Darstellungsparameter: Aktuell verwendete Einstellungen:
Skalierung der Graphiken ... ?
xyx+y,   Skalierungsfaktor:      Skalierung: Modus: x, Faktor: 1
Darstellungszeitraum ... ?
Vom - - bis: - -   Zeitraum: 16.02.2014 - 15.08.2014
Min/Max/Avg-Anzeige ... ?
Zeige MMA aktuell
Zeige MMA Monat
Zeige MMA alles
Zeige --A aktuell
Zeige --A Monat
Zeige --A alles
Keine MMA-Anzeige
MMA:
Minimum Maximum Average (ber die Originaldaten)
MMA-Basis: 16.02.2014 - 15.08.2014
Quicknavigation für Darstellung... ?
Tage:      1T, 2T, 3T, 5T -1T -2T -3T -5T +1T +2T +3T +5T
Wochen: 1W, 2W, 3W -1W -2W -3W +1W +2W +3W
Monate: 1M, 3M, 6M -1M -3M -6M +1M +3M +6M
Jahre:    1J, 3J, 5J, 10J -1J -3J -5J -10J +1J +3J +5J +10J
Nutze für die Darstellung ... ?
Originaldaten oder ...
Mittelwerte Minima Maxima auf...
Stundenbasis Tagesbasis Wochenbasis
Monatsbasis Jahresbasis      Datenbasis: Mittelwerte auf Stundenbasis
Darstellen als:
Statistik (Auto) Statistik J:M      Darstellung:
Zur Graphik,    zurück zur Übersicht aller Sensoren.
 
Tabellarische Datenbersicht: ?
 
Sensor: Nr:Datum:Temp:Feuchte:Taupunkt:
Aussen-T/F 1 16-02-2014 00:00:00 8.40833 C 79.6667 % 5.1 C
2 16-02-2014 01:00:00 8.45 C 77.9167 % 4.83 C
3 16-02-2014 02:00:00 8.275 C 78.0833 % 4.69 C
4 16-02-2014 03:00:00 7.95833 C 77.7500 % 4.32 C
5 16-02-2014 04:00:00 8.125 C 75.5833 % 4.08 C
6 16-02-2014 05:00:00 7.775 C 77.4167 % 4.08 C
7 16-02-2014 06:00:00 7.69167 C 78.5833 % 4.21 C
8 16-02-2014 07:00:00 7.575 C 79.8333 % 4.32 C
9 16-02-2014 08:00:00 7.35833 C 80.3333 % 4.2 C
10 16-02-2014 09:00:00 7.49167 C 81.5833 % 4.55 C
11 16-02-2014 10:00:00 8.00833 C 79.4167 % 4.67 C
12 16-02-2014 11:00:00 8.56667 C 76.9167 % 4.76 C
13 16-02-2014 12:00:00 8.45833 C 80.3333 % 5.27 C
14 16-02-2014 13:00:00 8.68333 C 79.6667 % 5.37 C
15 16-02-2014 14:00:00 9.21667 C 75.4167 % 5.1 C
16 16-02-2014 15:00:00 9.325 C 73.0833 % 4.76 C
17 16-02-2014 16:00:00 9.625 C 71.9167 % 4.82 C
18 16-02-2014 17:00:00 8.8 C 73.2500 % 4.28 C
19 16-02-2014 18:00:00 6.19167 C 85.1667 % 3.89 C
20 16-02-2014 19:00:00 5.24167 C 88.4167 % 3.49 C
21 16-02-2014 20:00:00 4.5 C 90.0000 % 3.01 C
22 16-02-2014 21:00:00 3.86667 C 91.9167 % 2.68 C
23 16-02-2014 22:00:00 3.81667 C 90.5000 % 2.41 C
24 16-02-2014 23:00:00 3.35 C 90.9167 % 2.01 C
25 17-02-2014 00:00:00 2.775 C 92.0833 % 1.62 C
Sensor: Nr:Datum:Temp:Feuchte:Taupunkt:
Aussen-T/F 26 17-02-2014 01:00:00 1.69167 C 93.9167 % 0.82 C
27 17-02-2014 02:00:00 1.24167 C 95.0000 % 0.53 C
28 17-02-2014 03:00:00 0.55833 C 95.1667 % -0.12 C
29 17-02-2014 04:00:00 0.16667 C 96.0000 % -0.39 C
30 17-02-2014 05:00:00 -0.04167 C 96.0000 % -0.6 C
31 17-02-2014 06:00:00 0.13333 C 96.5000 % -0.36 C
32 17-02-2014 07:00:00 0.49167 C 97.0000 % 0.07 C
33 17-02-2014 08:00:00 1.25 C 97.0000 % 0.83 C
34 17-02-2014 09:00:00 2.24167 C 97.0000 % 1.82 C
35 17-02-2014 10:00:00 3.51667 C 96.5833 % 3.03 C
36 17-02-2014 11:00:00 4.99167 C 93.6667 % 4.06 C
37 17-02-2014 12:00:00 6.93333 C 88.0000 % 5.09 C
38 17-02-2014 13:00:00 7.65833 C 83.5000 % 5.05 C
39 17-02-2014 14:00:00 8.71667 C 78.6667 % 5.22 C
40 17-02-2014 15:00:00 9.35833 C 74.9167 % 5.14 C
41 17-02-2014 16:00:00 8.59167 C 78.5833 % 5.09 C
42 17-02-2014 17:00:00 6.51667 C 87.0833 % 4.53 C
43 17-02-2014 18:00:00 5.03333 C 91.5000 % 3.77 C
44 17-02-2014 19:00:00 4.21667 C 93.0000 % 3.19 C
45 17-02-2014 20:00:00 3.65833 C 94.0833 % 2.8 C
46 17-02-2014 21:00:00 2.95 C 94.5833 % 2.17 C
47 17-02-2014 22:00:00 2.09167 C 95.3333 % 1.43 C
48 17-02-2014 23:00:00 1.625 C 95.9167 % 1.05 C
49 18-02-2014 00:00:00 1.3 C 96.0000 % 0.73 C
50 18-02-2014 01:00:00 0.9 C 96.0833 % 0.35 C
Sensor: Nr:Datum:Temp:Feuchte:Taupunkt:
Aussen-T/F 51 18-02-2014 02:00:00 0.675 C 96.9167 % 0.24 C
52 18-02-2014 03:00:00 0.51667 C 97.0000 % 0.1 C
53 18-02-2014 04:00:00 0.425 C 97.0000 % 0.01 C
54 18-02-2014 05:00:00 0.31667 C 97.0000 % -0.1 C
55 18-02-2014 06:00:00 0.21667 C 97.0000 % -0.2 C
56 18-02-2014 07:00:00 0.1 C 97.0000 % -0.32 C
57 18-02-2014 08:00:00 0.13333 C 97.4167 % -0.23 C
58 18-02-2014 09:00:00 0.28333 C 97.5833 % -0.05 C
59 18-02-2014 10:00:00 0.925 C 98.0000 % 0.65 C
60 18-02-2014 11:00:00 2.46667 C 98.0000 % 2.18 C
61 18-02-2014 12:00:00 3.35 C 97.8333 % 3.04 C
62 18-02-2014 13:00:00 4.79167 C 94.5833 % 4 C
63 18-02-2014 14:00:00 6.64167 C 88.0833 % 4.81 C
64 18-02-2014 15:00:00 7.79167 C 84.0000 % 5.26 C
65 18-02-2014 16:00:00 7.85833 C 86.8333 % 5.81 C
66 18-02-2014 17:00:00 6.95833 C 90.5000 % 5.51 C
67 18-02-2014 18:00:00 6.54167 C 90.7500 % 5.14 C
68 18-02-2014 19:00:00 6.075 C 91.1667 % 4.75 C
69 18-02-2014 20:00:00 5.76667 C 92.0833 % 4.58 C
70 18-02-2014 21:00:00 5.65 C 92.8333 % 4.58 C
71 18-02-2014 22:00:00 5.75833 C 92.4167 % 4.63 C
72 18-02-2014 23:00:00 5.85 C 91.3333 % 4.55 C
73 19-02-2014 00:00:00 5.50833 C 92.5833 % 4.4 C
74 19-02-2014 01:00:00 5.3 C 92.9167 % 4.25 C
75 19-02-2014 02:00:00 5.075 C 93.0000 % 4.04 C
Sensor: Nr:Datum:Temp:Feuchte:Taupunkt:
Aussen-T/F 76 19-02-2014 03:00:00 5.06667 C 93.0833 % 4.04 C
77 19-02-2014 04:00:00 5.45833 C 92.8333 % 4.39 C
78 19-02-2014 05:00:00 6.9 C 88.0833 % 5.07 C
79 19-02-2014 06:00:00 6.99167 C 89.1667 % 5.33 C
80 19-02-2014 07:00:00 7.175 C 88.1667 % 5.35 C
81 19-02-2014 08:00:00 7 C 89.9167 % 5.46 C
82 19-02-2014 09:00:00 7.83333 C 87.5833 % 5.9 C
83 19-02-2014 10:00:00 8.63333 C 83.7500 % 6.04 C
84 19-02-2014 11:00:00 9.175 C 80.1667 % 5.94 C
85 19-02-2014 12:00:00 10.31667 C 74.2500 % 5.94 C
86 19-02-2014 13:00:00 11.53333 C 68.0000 % 5.84 C
87 19-02-2014 14:00:00 11.525 C 67.5000 % 5.73 C
88 19-02-2014 15:00:00 10.83333 C 71.2500 % 5.84 C
89 19-02-2014 16:00:00 9.59167 C 81.2500 % 6.54 C
90 19-02-2014 17:00:00 9.25833 C 81.3333 % 6.23 C
91 19-02-2014 18:00:00 8.85833 C 82.9167 % 6.12 C
92 19-02-2014 19:00:00 8.19167 C 84.6667 % 5.77 C
93 19-02-2014 20:00:00 7.76667 C 86.9167 % 5.73 C
94 19-02-2014 21:00:00 6.825 C 89.1667 % 5.17 C
95 19-02-2014 22:00:00 6.2 C 91.4167 % 4.91 C
96 19-02-2014 23:00:00 6.78333 C 89.4167 % 5.17 C
97 20-02-2014 00:00:00 6.96667 C 88.0833 % 5.13 C
98 20-02-2014 01:00:00 6.55 C 89.4167 % 4.94 C
99 20-02-2014 02:00:00 6.48333 C 90.7500 % 5.08 C
100 20-02-2014 03:00:00 6.38333 C 91.0000 % 5.02 C
Sensor: Nr:Datum:Temp:Feuchte:Taupunkt:
Aussen-T/F 101 20-02-2014 04:00:00 6.425 C 89.9167 % 4.89 C
102 20-02-2014 05:00:00 5.86667 C 92.6667 % 4.77 C
103 20-02-2014 06:00:00 5.96667 C 93.0000 % 4.92 C
104 20-02-2014 07:00:00 6.09167 C 93.0000 % 5.05 C
105 20-02-2014 08:00:00 6.75 C 91.0000 % 5.39 C
106 20-02-2014 09:00:00 7.98333 C 85.3333 % 5.68 C
107 20-02-2014 10:00:00 8.88333 C 81.5833 % 5.91 C
108 20-02-2014 11:00:00 9.73333 C 76.5000 % 5.81 C
109 20-02-2014 12:00:00 10.76667 C 69.9167 % 5.51 C
110 20-02-2014 13:00:00 11.35 C 67.2500 % 5.5 C
111 20-02-2014 14:00:00 11.225 C 69.7500 % 5.91 C
112 20-02-2014 15:00:00 11.15 C 72.7500 % 6.45 C
113 20-02-2014 16:00:00 11.25833 C 72.9167 % 6.59 C
114 20-02-2014 17:00:00 10.875 C 75.5833 % 6.74 C
115 20-02-2014 18:00:00 9.95 C 79.7500 % 6.62 C
116 20-02-2014 19:00:00 9.75 C 79.5000 % 6.38 C
117 20-02-2014 20:00:00 9.475 C 81.4167 % 6.46 C
118 20-02-2014 21:00:00 9.6 C 82.1667 % 6.71 C
119 20-02-2014 22:00:00 9.65 C 83.4167 % 6.98 C
120 20-02-2014 23:00:00 9.41667 C 86.2500 % 7.24 C
121 21-02-2014 00:00:00 9.38333 C 87.8333 % 7.47 C
122 21-02-2014 01:00:00 9.65 C 87.9167 % 7.75 C
123 21-02-2014 02:00:00 9.73333 C 88.2500 % 7.89 C
124 21-02-2014 03:00:00 9.45 C 88.6667 % 7.68 C
125 21-02-2014 04:00:00 9.525 C 86.5000 % 7.39 C
Sensor: Nr:Datum:Temp:Feuchte:Taupunkt:
Aussen-T/F 126 21-02-2014 05:00:00 9.38333 C 83.2500 % 6.69 C
127 21-02-2014 06:00:00 8.21667 C 88.3333 % 6.41 C
128 21-02-2014 07:00:00 7.95833 C 87.8333 % 6.07 C
129 21-02-2014 08:00:00 8.25833 C 84.3333 % 5.78 C
130 21-02-2014 09:00:00 8.9 C 79.9167 % 5.63 C
131 21-02-2014 10:00:00 9.28333 C 77.7500 % 5.6 C
132 21-02-2014 11:00:00 8.90833 C 79.2500 % 5.52 C
133 21-02-2014 12:00:00 7.91667 C 85.9167 % 5.71 C
134 21-02-2014 13:00:00 8.575 C 77.8333 % 4.93 C
135 21-02-2014 14:00:00 9.03333 C 75.6667 % 4.97 C
136 21-02-2014 15:00:00 9.21667 C 71.0000 % 4.24 C
137 21-02-2014 16:00:00 7.69167 C 77.9167 % 4.09 C
138 21-02-2014 17:00:00 7.125 C 79.3333 % 3.8 C
139 21-02-2014 18:00:00 5.64167 C 85.3333 % 3.38 C
140 21-02-2014 19:00:00 5.1 C 87.0000 % 3.12 C
141 21-02-2014 20:00:00 4.11667 C 90.8333 % 2.76 C
142 21-02-2014 21:00:00 3.55 C 92.2500 % 2.41 C
143 21-02-2014 22:00:00 3.225 C 93.2500 % 2.24 C
144 21-02-2014 23:00:00 3.53333 C 92.9167 % 2.5 C
145 22-02-2014 00:00:00 2.86667 C 93.3333 % 1.9 C
146 22-02-2014 01:00:00 2.35 C 94.3333 % 1.54 C
147 22-02-2014 02:00:00 1.96667 C 95.0000 % 1.25 C
148 22-02-2014 03:00:00 1.675 C 95.0000 % 0.96 C
149 22-02-2014 04:00:00 1.33333 C 95.0000 % 0.62 C
150 22-02-2014 05:00:00 1.19167 C 95.4167 % 0.54 C
Sensor: Nr:Datum:Temp:Feuchte:Taupunkt:
Aussen-T/F 151 22-02-2014 06:00:00 2.05 C 95.7500 % 1.44 C
152 22-02-2014 07:00:00 3.3 C 92.9167 % 2.27 C
153 22-02-2014 08:00:00 3.93333 C 91.0833 % 2.61 C
154 22-02-2014 09:00:00 5.05 C 87.4167 % 3.14 C
155 22-02-2014 10:00:00 6.24167 C 82.9167 % 3.56 C
156 22-02-2014 11:00:00 7.00833 C 79.5000 % 3.71 C
157 22-02-2014 12:00:00 7.48333 C 79.4167 % 4.16 C
158 22-02-2014 13:00:00 7.28333 C 80.5833 % 4.17 C
159 22-02-2014 14:00:00 7.56667 C 79.7500 % 4.3 C
160 22-02-2014 15:00:00 7.76667 C 79.0000 % 4.36 C
161 22-02-2014 16:00:00 7.775 C 79.1667 % 4.4 C
162 22-02-2014 17:00:00 7.36667 C 80.7500 % 4.28 C
163 22-02-2014 18:00:00 6.74167 C 83.0000 % 4.06 C
164 22-02-2014 19:00:00 6.34167 C 83.3333 % 3.73 C
165 22-02-2014 20:00:00 6.10833 C 84.9167 % 3.77 C
166 22-02-2014 21:00:00 5.75 C 87.4167 % 3.83 C
167 22-02-2014 22:00:00 5.53333 C 88.2500 % 3.75 C
168 22-02-2014 23:00:00 5.28333 C 88.5000 % 3.54 C
169 23-02-2014 00:00:00 5.55 C 86.0833 % 3.41 C
170 23-02-2014 01:00:00 4.35 C 87.7500 % 2.5 C
171 23-02-2014 02:00:00 3.04167 C 91.0000 % 1.72 C
172 23-02-2014 03:00:00 2.88333 C 90.6667 % 1.51 C
173 23-02-2014 04:00:00 2.19167 C 91.8333 % 1.01 C
174 23-02-2014 05:00:00 2.06667 C 93.0833 % 1.07 C
175 23-02-2014 06:00:00 2.91667 C 92.5833 % 1.84 C
Sensor: Nr:Datum:Temp:Feuchte:Taupunkt:
Aussen-T/F 176 23-02-2014 07:00:00 3.725 C 90.1667 % 2.27 C
177 23-02-2014 08:00:00 4.51 C 90.6000 % 3.11 C
178 23-02-2014 09:00:00 6 C 84.0000 % 3.51 C
179 23-02-2014 12:00:00 10.125 C 75.2500 % 5.95 C
180 23-02-2014 13:00:00 10.40833 C 67.2500 % 4.61 C
181 23-02-2014 14:00:00 10.35 C 69.9167 % 5.11 C
182 23-02-2014 15:00:00 9.74167 C 73.3333 % 5.21 C
183 23-02-2014 16:00:00 9.98333 C 70.4167 % 4.86 C
184 23-02-2014 17:00:00 9.40833 C 74.1667 % 5.05 C
185 23-02-2014 18:00:00 8.38333 C 76.7500 % 4.55 C
186 23-02-2014 19:00:00 7.50833 C 81.7500 % 4.6 C
187 23-02-2014 20:00:00 6.3 C 84.5000 % 3.89 C
188 23-02-2014 21:00:00 5.4 C 86.5833 % 3.35 C
189 23-02-2014 22:00:00 4.675 C 88.2500 % 2.9 C
190 23-02-2014 23:00:00 3.8 C 90.5833 % 2.41 C
191 24-02-2014 00:00:00 3.28333 C 92.0000 % 2.11 C
192 24-02-2014 01:00:00 2.84167 C 92.9167 % 1.81 C
193 24-02-2014 02:00:00 2.05833 C 93.4167 % 1.11 C
194 24-02-2014 03:00:00 1.29167 C 94.3333 % 0.48 C
195 24-02-2014 04:00:00 0.61667 C 95.0000 % -0.09 C
196 24-02-2014 05:00:00 0.15833 C 95.7500 % -0.44 C
197 24-02-2014 06:00:00 -0.29167 C 96.0000 % -0.85 C
198 24-02-2014 07:00:00 -0.55833 C 96.0000 % -1.12 C
199 24-02-2014 08:00:00 0.64167 C 96.9167 % 0.21 C
200 24-02-2014 09:00:00 4.45833 C 86.3333 % 2.38 C
Sensor: Nr:Datum:Temp:Feuchte:Taupunkt:
Aussen-T/F 201 24-02-2014 10:00:00 6.31667 C 78.5833 % 2.88 C
202 24-02-2014 11:00:00 7.65 C 76.3333 % 3.76 C
203 24-02-2014 12:00:00 10.65833 C 64.6667 % 4.29 C
204 24-02-2014 13:00:00 12.98333 C 56.5000 % 4.55 C
205 24-02-2014 14:00:00 13.59167 C 54.0833 % 4.49 C
206 24-02-2014 15:00:00 13.99167 C 53.0833 % 4.6 C
207 24-02-2014 16:00:00 13.34167 C 55.0833 % 4.52 C
208 24-02-2014 17:00:00 11.69167 C 61.1667 % 4.47 C
209 24-02-2014 18:00:00 7.9 C 77.7500 % 4.26 C
210 24-02-2014 19:00:00 6.80833 C 81.9167 % 3.94 C
211 24-02-2014 20:00:00 6.30833 C 83.8333 % 3.78 C
212 24-02-2014 21:00:00 5.775 C 84.6667 % 3.4 C
213 24-02-2014 22:00:00 4.89167 C 87.8333 % 3.05 C
214 24-02-2014 23:00:00 4.325 C 88.5000 % 2.6 C
215 25-02-2014 00:00:00 3.79167 C 89.9167 % 2.29 C
216 25-02-2014 01:00:00 3.24167 C 91.4167 % 1.98 C
217 25-02-2014 02:00:00 2.725 C 92.5833 % 1.65 C
218 25-02-2014 03:00:00 2.175 C 93.5833 % 1.25 C
219 25-02-2014 04:00:00 1.75 C 94.4167 % 0.95 C
220 25-02-2014 05:00:00 1.55833 C 95.0000 % 0.85 C
221 25-02-2014 06:00:00 1.26667 C 95.2500 % 0.59 C
222 25-02-2014 07:00:00 1.5 C 96.0000 % 0.93 C
223 25-02-2014 08:00:00 1.96667 C 96.0000 % 1.4 C
224 25-02-2014 09:00:00 3.30833 C 96.4167 % 2.79 C
225 25-02-2014 10:00:00 7.58333 C 84.3333 % 5.12 C
Sensor: Nr:Datum:Temp:Feuchte:Taupunkt:
Aussen-T/F 226 25-02-2014 11:00:00 10.35 C 68.1667 % 4.74 C
227 25-02-2014 12:00:00 11.55833 C 64.7500 % 5.16 C
228 25-02-2014 13:00:00 10.98333 C 67.8333 % 5.28 C
229 25-02-2014 14:00:00 11.525 C 66.1667 % 5.44 C
230 25-02-2014 15:00:00 11.575 C 66.4167 % 5.54 C
231 25-02-2014 16:00:00 12 C 65.3333 % 5.71 C
232 25-02-2014 17:00:00 11.475 C 67.2500 % 5.62 C
233 25-02-2014 18:00:00 9.71667 C 73.4167 % 5.2 C
234 25-02-2014 19:00:00 8.45833 C 78.5833 % 4.96 C
235 25-02-2014 20:00:00 8.25833 C 81.0000 % 5.2 C
236 25-02-2014 21:00:00 7.98333 C 81.8333 % 5.07 C
237 25-02-2014 22:00:00 7.86667 C 82.5833 % 5.09 C
238 25-02-2014 23:00:00 7.86667 C 84.3333 % 5.39 C
239 26-02-2014 00:00:00 7.35 C 85.6667 % 5.11 C
240 26-02-2014 01:00:00 7.55833 C 86.0000 % 5.37 C
241 26-02-2014 02:00:00 8.13333 C 84.7500 % 5.73 C
242 26-02-2014 03:00:00 7.71667 C 85.9167 % 5.51 C
243 26-02-2014 04:00:00 7.9 C 85.5833 % 5.64 C
244 26-02-2014 05:00:00 8.50833 C 82.2500 % 5.66 C
245 26-02-2014 06:00:00 8.125 C 84.2500 % 5.63 C
246 26-02-2014 07:00:00 6.85 C 87.5833 % 4.94 C
247 26-02-2014 08:00:00 7.39167 C 87.4167 % 5.44 C
248 26-02-2014 09:00:00 7.41667 C 87.0000 % 5.4 C
249 26-02-2014 10:00:00 8.55 C 84.0833 % 6.02 C
250 26-02-2014 11:00:00 9.675 C 76.7500 % 5.8 C
Sensor: Nr:Datum:Temp:Feuchte:Taupunkt:
Aussen-T/F 251 26-02-2014 12:00:00 10.25833 C 74.5833 % 5.95 C
252 26-02-2014 13:00:00 10.83333 C 71.0000 % 5.79 C
253 26-02-2014 14:00:00 11.28333 C 68.7500 % 5.76 C
254 26-02-2014 15:00:00 10.71667 C 70.3333 % 5.54 C
255 26-02-2014 16:00:00 10.40833 C 72.5833 % 5.7 C
256 26-02-2014 17:00:00 9.825 C 77.1667 % 6.02 C
257 26-02-2014 18:00:00 8.73333 C 81.9167 % 5.82 C
258 26-02-2014 19:00:00 8.09167 C 83.9167 % 5.54 C
259 26-02-2014 20:00:00 7.50909 C 86.0909 % 5.34 C
260 26-02-2014 22:00:00 7.49167 C 85.5000 % 5.22 C
261 26-02-2014 23:00:00 6.96667 C 86.6667 % 4.9 C
262 27-02-2014 00:00:00 5.95 C 89.2500 % 4.32 C
263 27-02-2014 01:00:00 5 C 91.0833 % 3.67 C
264 27-02-2014 02:00:00 4.03333 C 92.9167 % 2.99 C
265 27-02-2014 03:00:00 3.25833 C 93.8333 % 2.36 C
266 27-02-2014 04:00:00 2.65833 C 94.8333 % 1.92 C
267 27-02-2014 05:00:00 1.91667 C 95.0000 % 1.2 C
268 27-02-2014 06:00:00 1.575 C 95.9167 % 1 C
269 27-02-2014 07:00:00 1.31667 C 96.0000 % 0.75 C
270 27-02-2014 08:00:00 1.1 C 96.0000 % 0.54 C
271 27-02-2014 09:00:00 1.6 C 97.0000 % 1.18 C
272 27-02-2014 11:00:00 7.525 C 85.5000 % 5.25 C
273 27-02-2014 12:00:00 9.85 C 69.0833 % 4.46 C
274 27-02-2014 13:00:00 9.825 C 67.1667 % 4.03 C
275 27-02-2014 14:00:00 10.04167 C 66.4167 % 4.08 C
Sensor: Nr:Datum:Temp:Feuchte:Taupunkt:
Aussen-T/F 276 27-02-2014 15:00:00 10.6 C 62.4167 % 3.73 C
277 27-02-2014 16:00:00 9.875 C 61.0833 % 2.74 C
278 27-02-2014 17:00:00 9.3 C 65.0000 % 3.07 C
279 27-02-2014 18:00:00 7.76667 C 76.6667 % 3.93 C
280 27-02-2014 19:00:00 6.35833 C 85.5000 % 4.11 C
281 27-02-2014 20:00:00 5.475 C 91.3333 % 4.18 C
282 27-02-2014 21:00:00 4.96667 C 94.5833 % 4.17 C
283 27-02-2014 22:00:00 4.625 C 94.7500 % 3.86 C
284 27-02-2014 23:00:00 4.40833 C 93.0833 % 3.39 C
285 28-02-2014 00:00:00 4.48333 C 92.9167 % 3.44 C
286 28-02-2014 01:00:00 4.775 C 92.6667 % 3.69 C
287 28-02-2014 02:00:00 4.85 C 90.5833 % 3.44 C
288 28-02-2014 03:00:00 4.1 C 91.9167 % 2.91 C
289 28-02-2014 04:00:00 3.91667 C 93.7500 % 3 C
290 28-02-2014 05:00:00 3.58333 C 95.1667 % 2.88 C
291 28-02-2014 06:00:00 3.86667 C 95.6667 % 3.24 C
292 28-02-2014 07:00:00 4.125 C 95.8333 % 3.52 C
293 28-02-2014 08:00:00 4.69167 C 94.3333 % 3.86 C
294 28-02-2014 09:00:00 5.68333 C 90.2500 % 4.21 C
295 28-02-2014 10:00:00 6.75833 C 86.6667 % 4.7 C
296 28-02-2014 11:00:00 7.78333 C 82.5000 % 5 C
297 28-02-2014 12:00:00 7.99167 C 82.0833 % 5.13 C
298 28-02-2014 13:00:00 8.48333 C 80.4167 % 5.31 C
299 28-02-2014 14:00:00 9.43333 C 74.0833 % 5.06 C
300 28-02-2014 15:00:00 9.225 C 73.2500 % 4.69 C
Sensor: Nr:Datum:Temp:Feuchte:Taupunkt:
Aussen-T/F 301 28-02-2014 16:00:00 9.3 C 72.6667 % 4.65 C
302 28-02-2014 17:00:00 9.07273 C 75.0909 % 4.9 C
303 28-02-2014 18:00:00 8.1 C 81.0000 % 5.04 C
304 28-02-2014 19:00:00 7.00833 C 85.2500 % 4.71 C
305 28-02-2014 20:00:00 6.63333 C 88.0833 % 4.8 C
306 28-02-2014 21:00:00 6.89167 C 88.9167 % 5.19 C
307 28-02-2014 22:00:00 6.3 C 92.9167 % 5.24 C
308 28-02-2014 23:00:00 5.65 C 94.5000 % 4.84 C
309 01-03-2014 00:00:00 5.29167 C 95.7500 % 4.67 C
310 01-03-2014 01:00:00 4.825 C 96.0000 % 4.24 C
311 01-03-2014 02:00:00 4.85 C 96.5000 % 4.34 C
312 01-03-2014 03:00:00 4.19167 C 96.0000 % 3.61 C
313 01-03-2014 04:00:00 3.675 C 96.0000 % 3.1 C
314 01-03-2014 05:00:00 2.64167 C 96.0000 % 2.07 C
315 01-03-2014 06:00:00 2.56667 C 96.6667 % 2.09 C
316 01-03-2014 07:00:00 2.75 C 97.0000 % 2.32 C
317 01-03-2014 08:00:00 3.13333 C 97.0000 % 2.7 C
318 01-03-2014 09:00:00 3.8 C 97.0000 % 3.37 C
319 01-03-2014 10:00:00 5.41667 C 94.9167 % 4.67 C
320 01-03-2014 11:00:00 7.21667 C 84.5833 % 4.8 C
321 01-03-2014 12:00:00 8.25 C 80.6667 % 5.13 C
322 01-03-2014 13:00:00 8.975 C 75.5000 % 4.88 C
323 01-03-2014 14:00:00 9.29167 C 69.7500 % 4.06 C
324 01-03-2014 15:00:00 9.40833 C 68.1667 % 3.85 C
325 01-03-2014 16:00:00 9.05833 C 68.9167 % 3.67 C
Sensor: Nr:Datum:Temp:Feuchte:Taupunkt:
Aussen-T/F 326 01-03-2014 17:00:00 7.95833 C 76.1667 % 4.03 C
327 01-03-2014 18:00:00 6.96667 C 83.5000 % 4.37 C
328 01-03-2014 19:00:00 6.15833 C 88.1667 % 4.35 C
329 01-03-2014 20:00:00 5.2 C 89.4167 % 3.61 C
330 01-03-2014 21:00:00 3.575 C 91.5833 % 2.34 C
331 01-03-2014 22:00:00 2.85833 C 93.5833 % 1.93 C
332 01-03-2014 23:00:00 2.59167 C 93.7500 % 1.69 C
333 02-03-2014 00:00:00 1.825 C 94.5000 % 1.04 C
334 02-03-2014 01:00:00 1.50833 C 95.3333 % 0.85 C
335 02-03-2014 02:00:00 1.425 C 95.6667 % 0.81 C
336 02-03-2014 03:00:00 1.95833 C 96.0000 % 1.39 C
337 02-03-2014 04:00:00 1.69167 C 95.5000 % 1.05 C
338 02-03-2014 05:00:00 0.86667 C 95.8333 % 0.28 C
339 02-03-2014 06:00:00 0.375 C 96.0000 % -0.19 C
340 02-03-2014 07:00:00 0.28333 C 96.4167 % -0.22 C
341 02-03-2014 08:00:00 0.55833 C 97.0000 % 0.14 C
342 02-03-2014 09:00:00 1.23333 C 97.0000 % 0.81 C
343 02-03-2014 10:00:00 2.81667 C 97.8333 % 2.51 C
344 02-03-2014 11:00:00 4.40833 C 94.2500 % 3.57 C
345 02-03-2014 12:00:00 6.25833 C 78.5000 % 2.8 C
346 02-03-2014 13:00:00 7.16667 C 72.5000 % 2.57 C
347 02-03-2014 14:00:00 8.03333 C 68.6667 % 2.63 C
348 02-03-2014 15:00:00 8.98333 C 65.5833 % 2.89 C
349 02-03-2014 16:00:00 9.10833 C 64.1667 % 2.71 C
350 02-03-2014 17:00:00 7.90833 C 71.2500 % 3.03 C
Sensor: Nr:Datum:Temp:Feuchte:Taupunkt:
Aussen-T/F 351 02-03-2014 18:00:00 4.98333 C 83.6667 % 2.46 C
352 02-03-2014 19:00:00 3.58333 C 85.8333 % 1.44 C
353 02-03-2014 20:00:00 2.98333 C 87.5000 % 1.12 C
354 02-03-2014 21:00:00 2.65833 C 88.8333 % 1.01 C
355 02-03-2014 22:00:00 2.525 C 90.5833 % 1.14 C
356 02-03-2014 23:00:00 2.075 C 92.0833 % 0.93 C
357 03-03-2014 00:00:00 2.16667 C 92.0000 % 1.01 C
358 03-03-2014 01:00:00 2.80833 C 90.7500 % 1.45 C
359 03-03-2014 02:00:00 3.41667 C 88.8333 % 1.75 C
360 03-03-2014 03:00:00 3.14167 C 89.4167 % 1.57 C
361 03-03-2014 04:00:00 3.325 C 91.0000 % 2 C
362 03-03-2014 05:00:00 4.04167 C 88.5000 % 2.32 C
363 03-03-2014 06:00:00 3.95833 C 88.4167 % 2.22 C
364 03-03-2014 07:00:00 4.325 C 86.3333 % 2.25 C
365 03-03-2014 08:00:00 4.80833 C 84.8333 % 2.48 C
366 03-03-2014 09:00:00 5.39167 C 84.0000 % 2.91 C
367 03-03-2014 10:00:00 5.99167 C 85.3333 % 3.72 C
368 03-03-2014 11:00:00 7.06667 C 83.0833 % 4.4 C
369 03-03-2014 12:00:00 7.35833 C 82.5000 % 4.58 C
370 03-03-2014 13:00:00 7.79167 C 84.9167 % 5.42 C
371 03-03-2014 14:00:00 7.98333 C 87.2500 % 6 C
372 03-03-2014 15:00:00 8.86667 C 80.4167 % 5.69 C
373 03-03-2014 16:00:00 9.29167 C 73.9167 % 4.89 C
374 03-03-2014 17:00:00 8.425 C 81.0000 % 5.36 C
375 03-03-2014 18:00:00 6.74167 C 86.0000 % 4.57 C
Sensor: Nr:Datum:Temp:Feuchte:Taupunkt:
Aussen-T/F 376 03-03-2014 19:00:00 5.175 C 88.5833 % 3.45 C
377 03-03-2014 20:00:00 4.325 C 90.0000 % 2.83 C
378 03-03-2014 21:00:00 4.09167 C 89.5000 % 2.52 C
379 03-03-2014 22:00:00 3.575 C 90.6667 % 2.2 C
380 03-03-2014 23:00:00 2.59167 C 92.2500 % 1.46 C
381 04-03-2014 00:00:00 1.725 C 93.7500 % 0.83 C
382 04-03-2014 01:00:00 0.95833 C 94.1667 % 0.13 C
383 04-03-2014 02:00:00 0.41667 C 95.0000 % -0.29 C
384 04-03-2014 03:00:00 0.21667 C 95.7500 % -0.38 C
385 04-03-2014 04:00:00 -0.175 C 96.0000 % -0.73 C
386 04-03-2014 05:00:00 -0.66667 C 96.0000 % -1.22 C
387 04-03-2014 06:00:00 -0.80833 C 96.1667 % -1.34 C
388 04-03-2014 07:00:00 -0.88333 C 96.8333 % -1.32 C
389 04-03-2014 08:00:00 -0.85833 C 97.0000 % -1.27 C
390 04-03-2014 09:00:00 -0.61667 C 97.0000 % -1.03 C
391 04-03-2014 10:00:00 0.375 C 97.0833 % -0.03 C
392 04-03-2014 11:00:00 1.85833 C 97.7500 % 1.54 C
393 04-03-2014 12:00:00 5.63333 C 93.6667 % 4.69 C
394 04-03-2014 13:00:00 9.93333 C 74.7500 % 5.67 C
395 04-03-2014 14:00:00 11.40833 C 62.5833 % 4.53 C
396 04-03-2014 15:00:00 12.14167 C 54.9167 % 3.36 C
397 04-03-2014 16:00:00 9.85833 C 71.6667 % 4.99 C
398 04-03-2014 17:00:00 8.95833 C 77.3333 % 5.21 C
399 04-03-2014 18:00:00 7.35 C 80.6667 % 4.25 C
400 04-03-2014 19:00:00 7.55833 C 80.0833 % 4.35 C
Sensor: Nr:Datum:Temp:Feuchte:Taupunkt:
Aussen-T/F 401 04-03-2014 20:00:00 8.05 C 78.4167 % 4.53 C
402 04-03-2014 21:00:00 7.09167 C 82.2500 % 4.28 C
403 04-03-2014 22:00:00 6.20833 C 85.5000 % 3.96 C
404 04-03-2014 23:00:00 5.475 C 86.7500 % 3.45 C
405 05-03-2014 00:00:00 4.74167 C 88.0833 % 2.94 C
406 05-03-2014 01:00:00 3.51667 C 90.5000 % 2.11 C
407 05-03-2014 02:00:00 2.51667 C 93.0000 % 1.5 C
408 05-03-2014 03:00:00 2.01667 C 93.7500 % 1.12 C
409 05-03-2014 04:00:00 1.76667 C 94.4167 % 0.97 C
410 05-03-2014 05:00:00 1.9 C 93.8333 % 1.01 C
411 05-03-2014 06:00:00 1.5 C 94.5000 % 0.72 C
412 05-03-2014 07:00:00 2.19167 C 93.7500 % 1.29 C
413 05-03-2014 08:00:00 2.23333 C 92.5000 % 1.15 C
414 05-03-2014 09:00:00 2.85833 C 93.0000 % 1.84 C
415 05-03-2014 10:00:00 4.92 C 90.6000 % 3.51 C
416 05-03-2014 11:00:00 8.6 C 79.0000 % 5.17 C
417 05-03-2014 12:00:00 9.30833 C 74.6667 % 5.05 C
418 05-03-2014 13:00:00 10.66667 C 72.0000 % 5.83 C
419 05-03-2014 14:00:00 10.1 C 67.0000 % 4.26 C
420 05-03-2014 15:00:00 10.51667 C 65.7500 % 4.39 C
421 05-03-2014 16:00:00 9.89167 C 68.0000 % 4.27 C
422 05-03-2014 17:00:00 9.56667 C 67.8333 % 3.93 C
423 05-03-2014 18:00:00 7.45 C 76.0000 % 3.5 C
424 05-03-2014 19:00:00 5.46667 C 85.9167 % 3.3 C
425 05-03-2014 20:00:00 4.875 C 88.4167 % 3.13 C
Sensor: Nr:Datum:Temp:Feuchte:Taupunkt:
Aussen-T/F 426 05-03-2014 21:00:00 3.75833 C 91.3333 % 2.48 C
427 05-03-2014 22:00:00 2.925 C 93.1667 % 1.93 C
428 05-03-2014 23:00:00 2.175 C 94.1667 % 1.34 C
429 06-03-2014 00:00:00 1.71667 C 94.8333 % 0.98 C
430 06-03-2014 01:00:00 1.25833 C 95.0000 % 0.55 C
431 06-03-2014 02:00:00 0.675 C 95.5833 % 0.05 C
432 06-03-2014 03:00:00 0.16667 C 96.0000 % -0.39 C
433 06-03-2014 04:00:00 -0.2 C 96.0000 % -0.76 C
434 06-03-2014 05:00:00 -0.61667 C 96.0000 % -1.17 C
435 06-03-2014 06:00:00 -0.24167 C 96.9167 % -0.67 C
436 06-03-2014 07:00:00 -0.10833 C 97.0000 % -0.53 C
437 06-03-2014 08:00:00 0.29167 C 97.0000 % -0.13 C
438 06-03-2014 09:00:00 0.75833 C 97.0000 % 0.34 C
439 06-03-2014 10:00:00 1.475 C 97.3333 % 1.1 C
440 06-03-2014 11:00:00 2.41667 C 98.0000 % 2.13 C
441 06-03-2014 12:00:00 4.25 C 98.0000 % 3.96 C
442 06-03-2014 13:00:00 7.75 C 89.5000 % 6.14 C
443 06-03-2014 14:00:00 10.26667 C 77.8333 % 6.57 C
444 06-03-2014 15:00:00 12.58333 C 66.0833 % 6.43 C
445 06-03-2014 16:00:00 12.3 C 63.5000 % 5.58 C
446 06-03-2014 17:00:00 10.175 C 73.7500 % 5.71 C
447 06-03-2014 18:00:00 7.48333 C 80.9167 % 4.43 C
448 06-03-2014 19:00:00 6.275 C 84.6667 % 3.89 C
449 06-03-2014 20:00:00 5.275 C 86.3333 % 3.18 C
450 06-03-2014 21:00:00 4.05833 C 88.5000 % 2.33 C
Sensor: Nr:Datum:Temp:Feuchte:Taupunkt:
Aussen-T/F 451 06-03-2014 22:00:00 3.10833 C 89.2500 % 1.51 C
452 06-03-2014 23:00:00 1.99167 C 91.3333 % 0.73 C
453 07-03-2014 00:00:00 1.275 C 93.1667 % 0.3 C
454 07-03-2014 01:00:00 0.80833 C 94.0000 % -0.04 C
455 07-03-2014 02:00:00 0.20833 C 94.9167 % -0.51 C
456 07-03-2014 03:00:00 -0.15 C 95.0000 % -0.85 C
457 07-03-2014 04:00:00 -0.36 C 95.6000 % -0.98 C
458 07-03-2014 07:00:00 -0.9 C 97.0000 % -1.32 C
459 07-03-2014 08:00:00 -0.78333 C 97.0000 % -1.2 C
460 07-03-2014 09:00:00 -0.15 C 97.0000 % -0.57 C
461 07-03-2014 10:00:00 0.99 C 97.2000 % 0.6 C
462 07-03-2014 13:00:00 12.16667 C 69.8889 % 6.84 C
463 07-03-2014 14:00:00 13.80833 C 60.1667 % 6.23 C
464 07-03-2014 15:00:00 15.15833 C 46.0833 % 3.66 C
465 07-03-2014 16:00:00 13.975 C 55.4167 % 5.2 C
466 07-03-2014 17:00:00 11.40833 C 69.6667 % 6.07 C
467 07-03-2014 18:00:00 10.03333 C 73.3333 % 5.49 C
468 07-03-2014 19:00:00 9.18889 C 75.7778 % 5.14 C
469 07-03-2014 20:00:00 8.30833 C 77.8333 % 4.67 C
470 07-03-2014 21:00:00 7.76667 C 79.9167 % 4.52 C
471 07-03-2014 22:00:00 7.33333 C 81.5833 % 4.4 C
472 07-03-2014 23:00:00 5.49167 C 86.5833 % 3.44 C
473 08-03-2014 00:00:00 4.8 C 88.0000 % 2.99 C
474 08-03-2014 01:00:00 4.40833 C 89.6667 % 2.86 C
475 08-03-2014 02:00:00 4.35 C 89.9167 % 2.84 C
Sensor: Nr:Datum:Temp:Feuchte:Taupunkt:
Aussen-T/F 476 08-03-2014 03:00:00 3.625 C 90.6667 % 2.25 C
477 08-03-2014 04:00:00 3.00833 C 92.3333 % 1.89 C
478 08-03-2014 05:00:00 2.3 C 93.6667 % 1.39 C
479 08-03-2014 06:00:00 1.93333 C 94.1667 % 1.1 C
480 08-03-2014 07:00:00 1.70833 C 95.0000 % 1 C
481 08-03-2014 08:00:00 1.89167 C 95.1667 % 1.2 C
482 08-03-2014 09:00:00 3.09167 C 95.6667 % 2.47 C
483 08-03-2014 10:00:00 5.45455 C 93.6364 % 4.51 C
484 08-03-2014 11:00:00 9.66667 C 83.5000 % 7.01 C
485 08-03-2014 12:00:00 13.74167 C 64.6667 % 7.21 C
486 08-03-2014 13:00:00 15.45833 C 53.8333 % 6.16 C
487 08-03-2014 14:00:00 15.8 C 51.4167 % 5.81 C
488 08-03-2014 15:00:00 16.18333 C 49.9167 % 5.74 C
489 08-03-2014 16:00:00 15.40833 C 50.8333 % 5.29 C
490 08-03-2014 17:00:00 14.025 C 58.0833 % 5.92 C
491 08-03-2014 18:00:00 10.25833 C 72.1667 % 5.47 C
492 08-03-2014 19:00:00 8.58333 C 77.6667 % 4.91 C
493 08-03-2014 20:00:00 7.18333 C 82.9167 % 4.48 C
494 08-03-2014 21:00:00 6.10833 C 85.4167 % 3.85 C
495 08-03-2014 22:00:00 5.11667 C 87.0833 % 3.15 C
496 08-03-2014 23:00:00 4.10833 C 88.5000 % 2.38 C
497 09-03-2014 00:00:00 3.24167 C 90.4167 % 1.83 C
498 09-03-2014 01:00:00 2.65 C 92.0000 % 1.48 C
499 09-03-2014 02:00:00 2.03333 C 93.4167 % 1.09 C
500 09-03-2014 03:00:00 1.66667 C 94.0000 % 0.81 C
Sensor: Nr:Datum:Temp:Feuchte:Taupunkt:
Aussen-T/F 501 09-03-2014 04:00:00 1.23333 C 94.5833 % 0.46 C
502 09-03-2014 05:00:00 0.90833 C 95.0000 % 0.2 C
503 09-03-2014 06:00:00 0.29167 C 95.0833 % -0.4 C
504 09-03-2014 07:00:00 0.1 C 96.0000 % -0.46 C
505 09-03-2014 08:00:00 0.175 C 96.0000 % -0.39 C
506 09-03-2014 09:00:00 0.95833 C 96.7500 % 0.5 C
507 09-03-2014 10:00:00 3.52222 C 96.3333 % 2.99 C
508 09-03-2014 11:00:00 7.2 C 88.5000 % 5.43 C
509 09-03-2014 12:00:00 11.70833 C 73.4167 % 7.12 C
510 09-03-2014 13:00:00 16.89167 C 42.7500 % 4.16 C
511 09-03-2014 14:00:00 19.19167 C 30.1667 % 1.29 C
512 09-03-2014 15:00:00 20.125 C 27.5833 % 0.86 C
513 09-03-2014 16:00:00 17.30833 C 42.5833 % 4.48 C
514 09-03-2014 17:00:00 15.1 C 52.5833 % 5.49 C
515 09-03-2014 18:00:00 12.59167 C 59.0833 % 4.82 C
516 09-03-2014 19:00:00 10.4 C 67.5833 % 4.67 C
517 09-03-2014 20:00:00 8.61667 C 75.2500 % 4.49 C
518 09-03-2014 21:00:00 7.29167 C 77.0833 % 3.55 C
519 09-03-2014 22:00:00 5.89167 C 80.0000 % 2.71 C
520 09-03-2014 23:00:00 4.50833 C 84.2500 % 2.09 C
521 10-03-2014 00:00:00 3.70833 C 85.9167 % 1.58 C
522 10-03-2014 01:00:00 2.775 C 88.9167 % 1.13 C
523 10-03-2014 02:00:00 2.18333 C 90.5000 % 0.79 C
524 10-03-2014 03:00:00 1.775 C 91.6667 % 0.57 C
525 10-03-2014 04:00:00 1.34167 C 92.5000 % 0.26 C
Sensor: Nr:Datum:Temp:Feuchte:Taupunkt:
Aussen-T/F 526 10-03-2014 05:00:00 1.18333 C 93.0000 % 0.18 C
527 10-03-2014 06:00:00 0.91667 C 93.8333 % 0.04 C
528 10-03-2014 07:00:00 0.61667 C 94.3333 % -0.19 C
529 10-03-2014 08:00:00 0.975 C 95.0000 % 0.27 C
530 10-03-2014 09:00:00 2.44167 C 94.5833 % 1.66 C
531 10-03-2014 10:00:00 5.16667 C 90.2500 % 3.7 C
532 10-03-2014 11:00:00 8.03333 C 84.5000 % 5.58 C
533 10-03-2014 12:00:00 13.2 C 65.7500 % 6.94 C
534 10-03-2014 13:00:00 16.99167 C 47.4167 % 5.74 C
535 10-03-2014 14:00:00 17.15 C 45.0833 % 5.16 C
536 10-03-2014 15:00:00 17.825 C 43.0000 % 5.09 C
537 10-03-2014 16:00:00 16.18333 C 48.0000 % 5.18 C
538 10-03-2014 17:00:00 14.55833 C 53.5833 % 5.26 C
539 10-03-2014 18:00:00 12.39167 C 56.9167 % 4.1 C
540 10-03-2014 19:00:00 10.46667 C 64.0833 % 3.98 C
541 10-03-2014 20:00:00 8.8 C 69.0000 % 3.44 C
542 10-03-2014 21:00:00 7.61667 C 71.4167 % 2.79 C
543 10-03-2014 22:00:00 6.65 C 74.9167 % 2.53 C
544 10-03-2014 23:00:00 5.71667 C 77.9167 % 2.17 C
545 11-03-2014 00:00:00 4.74167 C 83.1667 % 2.14 C
546 11-03-2014 01:00:00 3.96667 C 85.4167 % 1.75 C
547 11-03-2014 02:00:00 3.65 C 87.4167 % 1.76 C
548 11-03-2014 03:00:00 3.40833 C 88.9167 % 1.76 C
549 11-03-2014 04:00:00 3.125 C 89.5833 % 1.58 C
550 11-03-2014 05:00:00 3.06667 C 89.5000 % 1.51 C
Sensor: Nr:Datum:Temp:Feuchte:Taupunkt:
Aussen-T/F 551 11-03-2014 06:00:00 2.34167 C 91.4167 % 1.09 C
552 11-03-2014 07:00:00 2.30833 C 92.5000 % 1.22 C
553 11-03-2014 08:00:00 2.8 C 93.1667 % 1.81 C
554 11-03-2014 09:00:00 5.525 C 91.5000 % 4.25 C
555 11-03-2014 10:00:00 7.4 C 87.2500 % 5.42 C
556 11-03-2014 11:00:00 9.625 C 79.8333 % 6.32 C
557 11-03-2014 12:00:00 12.76667 C 70.8333 % 7.61 C
558 11-03-2014 13:00:00 15.29167 C 61.0833 % 7.84 C
559 11-03-2014 14:00:00 16.30833 C 56.0833 % 7.55 C
560 11-03-2014 15:00:00 17.9 C 50.2500 % 7.41 C
561 11-03-2014 16:00:00 17.075 C 55.1667 % 8.02 C
562 11-03-2014 17:00:00 14.95 C 64.5833 % 8.34 C
563 11-03-2014 18:00:00 12.04167 C 75.1667 % 7.78 C
564 11-03-2014 19:00:00 10.5 C 80.0833 % 7.22 C
565 11-03-2014 20:00:00 9.00833 C 80.1667 % 5.78 C
566 11-03-2014 21:00:00 8.39167 C 79.0833 % 4.98 C
567 11-03-2014 22:00:00 7.75 C 79.9167 % 4.51 C
568 11-03-2014 23:00:00 8.1 C 75.3333 % 4.01 C
569 12-03-2014 00:00:00 7.35833 C 77.9167 % 3.77 C
570 12-03-2014 01:00:00 6.80833 C 81.2500 % 3.83 C
571 12-03-2014 02:00:00 6.33333 C 84.3333 % 3.89 C
572 12-03-2014 03:00:00 5.60833 C 87.0833 % 3.63 C
573 12-03-2014 04:00:00 4.55833 C 89.7500 % 3.02 C
574 12-03-2014 05:00:00 3.775 C 91.6667 % 2.55 C
575 12-03-2014 06:00:00 2.975 C 93.4167 % 2.02 C
Sensor: Nr:Datum:Temp:Feuchte:Taupunkt:
Aussen-T/F 576 12-03-2014 07:00:00 2.66667 C 94.6667 % 1.9 C
577 12-03-2014 08:00:00 3 C 95.1667 % 2.3 C
578 12-03-2014 09:00:00 4.30833 C 96.2500 % 3.77 C
579 12-03-2014 10:00:00 7.23333 C 92.7500 % 6.14 C
580 12-03-2014 11:00:00 10.46667 C 76.5833 % 6.53 C
581 12-03-2014 12:00:00 14.89167 C 59.1667 % 7 C
582 12-03-2014 13:00:00 17.175 C 47.1667 % 5.83 C
583 12-03-2014 14:00:00 17.64167 C 43.5000 % 5.09 C
584 12-03-2014 15:00:00 18.89167 C 37.5833 % 4.12 C
585 12-03-2014 16:00:00 17.50833 C 41.6667 % 4.35 C
586 12-03-2014 17:00:00 15.11667 C 52.6667 % 5.53 C
587 12-03-2014 18:00:00 12.40833 C 59.0833 % 4.65 C
588 12-03-2014 19:00:00 10.525 C 66.5833 % 4.58 C
589 12-03-2014 20:00:00 9.08333 C 71.6667 % 4.25 C
590 12-03-2014 21:00:00 7.7 C 76.4167 % 3.82 C
591 12-03-2014 22:00:00 6.33333 C 80.0833 % 3.16 C
592 12-03-2014 23:00:00 5.50833 C 82.8333 % 2.83 C
593 13-03-2014 00:00:00 4.44167 C 86.0833 % 2.32 C
594 13-03-2014 01:00:00 4.11667 C 87.3333 % 2.21 C
595 13-03-2014 02:00:00 3.56667 C 88.3333 % 1.82 C
596 13-03-2014 03:00:00 3 C 89.6667 % 1.47 C
597 13-03-2014 04:00:00 2.325 C 90.8333 % 0.99 C
598 13-03-2014 05:00:00 1.74167 C 92.3333 % 0.63 C
599 13-03-2014 06:00:00 1.28333 C 93.1667 % 0.3 C
600 13-03-2014 07:00:00 1.05 C 94.0833 % 0.21 C
Sensor: Nr:Datum:Temp:Feuchte:Taupunkt:
Aussen-T/F 601 13-03-2014 08:00:00 1.64167 C 94.5833 % 0.87 C
602 13-03-2014 09:00:00 3.00833 C 93.5000 % 2.06 C
603 13-03-2014 10:00:00 5.69167 C 89.0000 % 4.02 C
604 13-03-2014 11:00:00 8.54167 C 82.0000 % 5.65 C
605 13-03-2014 12:00:00 13.825 C 64.1667 % 7.18 C
606 13-03-2014 13:00:00 17.35 C 50.5000 % 6.98 C
607 13-03-2014 14:00:00 17.55 C 44.2500 % 5.25 C
608 13-03-2014 15:00:00 18.63333 C 39.8333 % 4.72 C
609 13-03-2014 16:00:00 18.66667 C 34.7500 % 2.81 C
610 13-03-2014 17:00:00 17.79167 C 34.9167 % 2.11 C
611 13-03-2014 18:00:00 12.93333 C 54.4167 % 3.97 C
612 13-03-2014 19:00:00 10.64167 C 60.2500 % 3.27 C
613 13-03-2014 20:00:00 8.79167 C 68.1667 % 3.26 C
614 13-03-2014 21:00:00 7.44167 C 72.6667 % 2.86 C
615 13-03-2014 22:00:00 6.16667 C 77.2500 % 2.49 C
616 13-03-2014 23:00:00 5.64167 C 78.7500 % 2.25 C
617 14-03-2014 00:00:00 5.01667 C 80.7500 % 1.99 C
618 14-03-2014 01:00:00 4.25833 C 83.3333 % 1.69 C
619 14-03-2014 02:00:00 3.49167 C 85.1667 % 1.24 C
620 14-03-2014 03:00:00 2.64167 C 88.1667 % 0.89 C
621 14-03-2014 04:00:00 2.00833 C 89.8333 % 0.52 C
622 14-03-2014 05:00:00 1.65833 C 91.4167 % 0.41 C
623 14-03-2014 06:00:00 1.25833 C 91.8333 % 0.08 C
624 14-03-2014 07:00:00 1.05833 C 92.9167 % 0.04 C
625 14-03-2014 08:00:00 1.475 C 93.8333 % 0.59 C
Sensor: Nr:Datum:Temp:Feuchte:Taupunkt:
Aussen-T/F 626 14-03-2014 09:00:00 3.04167 C 92.9167 % 2.01 C
627 14-03-2014 10:00:00 6.05 C 86.0000 % 3.89 C
628 14-03-2014 11:00:00 9.03333 C 77.6667 % 5.35 C
629 14-03-2014 12:00:00 13.40833 C 66.0833 % 7.21 C
630 14-03-2014 13:00:00 15.81667 C 55.0833 % 6.83 C
631 14-03-2014 14:00:00 16.28333 C 48.9167 % 5.54 C
632 14-03-2014 15:00:00 17.44167 C 44.5000 % 5.23 C
633 14-03-2014 16:00:00 17.06667 C 44.3333 % 4.84 C
634 14-03-2014 17:00:00 14.5 C 60.6667 % 7 C
635 14-03-2014 18:00:00 12.15833 C 68.0000 % 6.44 C
636 14-03-2014 19:00:00 10.28333 C 74.4167 % 5.94 C
637 14-03-2014 20:00:00 9.50833 C 78.6667 % 5.99 C
638 14-03-2014 21:00:00 8.33333 C 82.0833 % 5.46 C
639 14-03-2014 22:00:00 7 C 85.8333 % 4.8 C
640 14-03-2014 23:00:00 7.275 C 83.1667 % 4.61 C
641 15-03-2014 00:00:00 6.80833 C 83.3333 % 4.19 C
642 15-03-2014 01:00:00 7.175 C 81.5000 % 4.23 C
643 15-03-2014 02:00:00 7.23333 C 80.5833 % 4.12 C
644 15-03-2014 03:00:00 7.175 C 79.3333 % 3.84 C
645 15-03-2014 04:00:00 7.675 C 77.5833 % 4.01 C
646 15-03-2014 05:00:00 8.48333 C 77.0833 % 4.71 C
647 15-03-2014 06:00:00 9.2 C 78.7500 % 5.71 C
648 15-03-2014 07:00:00 9.58333 C 78.2500 % 5.99 C
649 15-03-2014 08:00:00 9.21667 C 83.2500 % 6.53 C
650 15-03-2014 09:00:00 8.375 C 90.6667 % 6.94 C
Sensor: Nr:Datum:Temp:Feuchte:Taupunkt:
Aussen-T/F 651 15-03-2014 10:00:00 8.525 C 89.5000 % 6.9 C
652 15-03-2014 11:00:00 7.975 C 89.5833 % 6.37 C
653 15-03-2014 12:00:00 8.51667 C 86.4167 % 6.38 C
654 15-03-2014 13:00:00 9.88333 C 76.5833 % 5.97 C
655 15-03-2014 14:00:00 10.36667 C 67.7500 % 4.67 C
656 15-03-2014 15:00:00 10.8 C 62.0000 % 3.82 C
657 15-03-2014 16:00:00 10.65833 C 60.8333 % 3.42 C
658 15-03-2014 17:00:00 10.46667 C 63.4167 % 3.83 C
659 15-03-2014 18:00:00 10.1 C 67.6667 % 4.4 C
660 15-03-2014 19:00:00 9.54167 C 74.4167 % 5.23 C
661 15-03-2014 20:00:00 9.51667 C 75.4167 % 5.39 C
662 15-03-2014 21:00:00 9.44167 C 76.3333 % 5.49 C
663 15-03-2014 22:00:00 9.30833 C 77.5000 % 5.58 C
664 15-03-2014 23:00:00 9.33333 C 77.5000 % 5.61 C
665 16-03-2014 00:00:00 9.58333 C 76.6667 % 5.69 C
666 16-03-2014 01:00:00 9.83333 C 76.5000 % 5.9 C
667 16-03-2014 02:00:00 9.70833 C 78.8333 % 6.22 C
668 16-03-2014 03:00:00 9.875 C 78.9167 % 6.39 C
669 16-03-2014 04:00:00 10.10833 C 79.4167 % 6.71 C
670 16-03-2014 05:00:00 10.475 C 79.0833 % 7.01 C
671 16-03-2014 06:00:00 10.33333 C 80.4167 % 7.11 C
672 16-03-2014 07:00:00 10.68333 C 80.0000 % 7.38 C
673 16-03-2014 08:00:00 10.66667 C 80.0000 % 7.36 C
674 16-03-2014 09:00:00 11 C 79.3333 % 7.57 C
675 16-03-2014 10:00:00 11.38333 C 78.2500 % 7.74 C
Sensor: Nr:Datum:Temp:Feuchte:Taupunkt:
Aussen-T/F 676 16-03-2014 11:00:00 12.95833 C 74.5000 % 8.54 C
677 16-03-2014 12:00:00 14.74167 C 69.8333 % 9.3 C
678 16-03-2014 13:00:00 15.04167 C 69.4167 % 9.49 C
679 16-03-2014 14:00:00 15.125 C 68.0833 % 9.29 C
680 16-03-2014 15:00:00 15.5 C 66.5833 % 9.31 C
681 16-03-2014 16:00:00 14.69167 C 68.2500 % 8.91 C
682 16-03-2014 17:00:00 14.725 C 69.0000 % 9.1 C
683 16-03-2014 18:00:00 13.125 C 73.2500 % 8.45 C
684 16-03-2014 19:00:00 10.25 C 82.9167 % 7.48 C
685 16-03-2014 20:00:00 9.55 C 85.7500 % 7.29 C
686 16-03-2014 21:00:00 9.40833 C 85.7500 % 7.15 C
687 16-03-2014 22:00:00 9.55833 C 84.5000 % 7.08 C
688 16-03-2014 23:00:00 7.79167 C 88.7500 % 6.05 C
689 17-03-2014 00:00:00 7.09167 C 90.9167 % 5.71 C
690 17-03-2014 01:00:00 7.13333 C 91.2500 % 5.81 C
691 17-03-2014 02:00:00 7.08333 C 91.5833 % 5.81 C
692 17-03-2014 03:00:00 7.475 C 91.0833 % 6.12 C
693 17-03-2014 04:00:00 7.90833 C 89.9167 % 6.36 C
694 17-03-2014 05:00:00 8.23333 C 89.0000 % 6.53 C
695 17-03-2014 06:00:00 8.31667 C 89.0000 % 6.61 C
696 17-03-2014 07:00:00 8.73333 C 88.0000 % 6.86 C
697 17-03-2014 08:00:00 9.225 C 87.0000 % 7.18 C
698 17-03-2014 09:00:00 10 C 84.9167 % 7.58 C
699 17-03-2014 10:00:00 11.125 C 81.0000 % 7.99 C
700 17-03-2014 11:00:00 11.9 C 78.0000 % 8.19 C
Sensor: Nr:Datum:Temp:Feuchte:Taupunkt:
Aussen-T/F 701 17-03-2014 12:00:00 12.66667 C 75.3333 % 8.42 C
702 17-03-2014 13:00:00 13.05 C 75.0000 % 8.73 C
703 17-03-2014 14:00:00 13.84167 C 70.8333 % 8.64 C
704 17-03-2014 15:00:00 13.725 C 69.0000 % 8.15 C
705 17-03-2014 16:00:00 13.13333 C 69.2500 % 7.63 C
706 17-03-2014 17:00:00 12.875 C 69.5833 % 7.46 C
707 17-03-2014 18:00:00 12.28333 C 71.6667 % 7.32 C
708 17-03-2014 19:00:00 11.225 C 75.8333 % 7.12 C
709 17-03-2014 20:00:00 10.34167 C 80.0000 % 7.05 C
710 17-03-2014 21:00:00 9.85833 C 82.8333 % 7.08 C
711 17-03-2014 22:00:00 9.75833 C 83.1667 % 7.04 C
712 17-03-2014 23:00:00 9.70833 C 83.0000 % 6.96 C
713 18-03-2014 00:00:00 8.375 C 86.3333 % 6.23 C
714 18-03-2014 01:00:00 8.3 C 88.2500 % 6.47 C
715 18-03-2014 02:00:00 8.69167 C 86.8333 % 6.62 C
716 18-03-2014 03:00:00 8.54167 C 86.9167 % 6.49 C
717 18-03-2014 04:00:00 7.73333 C 88.8333 % 6.01 C
718 18-03-2014 05:00:00 7.53333 C 89.5000 % 5.92 C
719 18-03-2014 06:00:00 7.65833 C 90.0000 % 6.13 C
720 18-03-2014 07:00:00 7.98333 C 90.5000 % 6.53 C
721 18-03-2014 08:00:00 8.51667 C 89.1667 % 6.84 C
722 18-03-2014 09:00:00 8.58333 C 89.5833 % 6.97 C
723 18-03-2014 10:00:00 8.70833 C 88.0833 % 6.85 C
724 18-03-2014 11:00:00 8.56667 C 90.4167 % 7.09 C
725 18-03-2014 12:00:00 9.04167 C 89.5833 % 7.42 C
Sensor: Nr:Datum:Temp:Feuchte:Taupunkt:
Aussen-T/F 726 18-03-2014 13:00:00 9.45833 C 86.9167 % 7.39 C
727 18-03-2014 14:00:00 10.425 C 82.8333 % 7.64 C
728 18-03-2014 15:00:00 11.24167 C 79.1667 % 7.77 C
729 18-03-2014 16:00:00 11.38333 C 76.4167 % 7.39 C
730 18-03-2014 17:00:00 11.44167 C 75.6667 % 7.3 C
731 18-03-2014 18:00:00 11.38333 C 75.4167 % 7.2 C
732 18-03-2014 19:00:00 11.26667 C 72.7500 % 6.56 C
733 18-03-2014 20:00:00 10.84167 C 71.1667 % 5.83 C
734 18-03-2014 21:00:00 10.44167 C 71.2500 % 5.47 C
735 18-03-2014 22:00:00 9.775 C 76.3333 % 5.82 C
736 18-03-2014 23:00:00 9.86667 C 77.0000 % 6.03 C
737 19-03-2014 00:00:00 9.80833 C 79.5000 % 6.44 C
738 19-03-2014 01:00:00 9.75833 C 81.7500 % 6.79 C
739 19-03-2014 02:00:00 9.63333 C 83.6667 % 7.01 C
740 19-03-2014 03:00:00 9.925 C 80.8333 % 6.79 C
741 19-03-2014 04:00:00 9.9 C 80.5000 % 6.71 C
742 19-03-2014 05:00:00 9.975 C 79.7500 % 6.64 C
743 19-03-2014 06:00:00 9.84167 C 80.5000 % 6.65 C
744 19-03-2014 07:00:00 9.925 C 80.0000 % 6.64 C
745 19-03-2014 08:00:00 10.26667 C 79.2500 % 6.84 C
746 19-03-2014 09:00:00 10.875 C 76.9167 % 6.99 C
747 19-03-2014 10:00:00 11.88333 C 72.8333 % 7.17 C
748 19-03-2014 11:00:00 13.14167 C 64.9167 % 6.7 C
749 19-03-2014 12:00:00 14.28333 C 61.1667 % 6.91 C
750 19-03-2014 13:00:00 15.74167 C 57.5000 % 7.38 C
Sensor: Nr:Datum:Temp:Feuchte:Taupunkt:
Aussen-T/F 751 19-03-2014 14:00:00 15.84167 C 57.4167 % 7.45 C
752 19-03-2014 15:00:00 16.575 C 54.0000 % 7.24 C
753 19-03-2014 16:00:00 16.54167 C 53.5000 % 7.07 C
754 19-03-2014 17:00:00 15.88333 C 57.3333 % 7.47 C
755 19-03-2014 18:00:00 14.56667 C 62.8333 % 7.57 C
756 19-03-2014 19:00:00 13.35833 C 66.3333 % 7.22 C
757 19-03-2014 20:00:00 12.35833 C 69.1667 % 6.87 C
758 19-03-2014 21:00:00 12.08333 C 69.5833 % 6.7 C
759 19-03-2014 22:00:00 11.675 C 70.7500 % 6.55 C
760 19-03-2014 23:00:00 11.05833 C 73.2500 % 6.46 C
761 20-03-2014 00:00:00 10.21667 C 76.2500 % 6.23 C
762 20-03-2014 01:00:00 9.23333 C 79.8333 % 5.94 C
763 20-03-2014 02:00:00 8.69167 C 81.5000 % 5.71 C
764 20-03-2014 03:00:00 7.71667 C 83.9167 % 5.17 C
765 20-03-2014 04:00:00 6.36667 C 88.6667 % 4.64 C
766 20-03-2014 05:00:00 5.48333 C 90.3333 % 4.03 C
767 20-03-2014 06:00:00 4.775 C 92.2500 % 3.63 C
768 20-03-2014 07:00:00 4.56667 C 93.7500 % 3.65 C
769 20-03-2014 08:00:00 5.225 C 94.0833 % 4.35 C
770 20-03-2014 09:00:00 6.96667 C 92.5000 % 5.84 C
771 20-03-2014 10:00:00 10.275 C 80.9167 % 7.15 C
772 20-03-2014 11:00:00 14.79167 C 60.7500 % 7.29 C
773 20-03-2014 12:00:00 18.85833 C 40.6667 % 5.22 C
774 20-03-2014 13:00:00 19.83333 C 37.8333 % 5.05 C
775 20-03-2014 14:00:00 20.29167 C 38.2500 % 5.62 C
Sensor: Nr:Datum:Temp:Feuchte:Taupunkt:
Aussen-T/F 776 20-03-2014 15:00:00 20.98333 C 37.7500 % 6.04 C
777 20-03-2014 16:00:00 21.96667 C 33.9167 % 5.37 C
778 20-03-2014 17:00:00 21.78889 C 32.3333 % 4.53 C
779 20-03-2014 18:00:00 17.44167 C 46.9167 % 6 C
780 20-03-2014 19:00:00 14.35 C 58.2500 % 6.27 C
781 20-03-2014 20:00:00 13.8 C 61.8333 % 6.62 C
782 20-03-2014 21:00:00 13.53333 C 64.3333 % 6.94 C
783 20-03-2014 22:00:00 12.79167 C 68.0000 % 7.04 C
784 20-03-2014 23:00:00 12.21667 C 71.0833 % 7.14 C
785 21-03-2014 00:00:00 11.66667 C 74.0000 % 7.19 C
786 21-03-2014 01:00:00 10.79167 C 77.3333 % 6.99 C
787 21-03-2014 02:00:00 9.78333 C 80.3333 % 6.56 C
788 21-03-2014 03:00:00 12.85 C 70.7500 % 7.68 C
789 21-03-2014 04:00:00 15.675 C 60.3333 % 8.02 C
790 21-03-2014 05:00:00 15.5 C 60.6667 % 7.94 C
791 21-03-2014 06:00:00 15.31667 C 59.8333 % 7.56 C
792 21-03-2014 07:00:00 15.3 C 60.8333 % 7.79 C
793 21-03-2014 08:00:00 15.45 C 59.0000 % 7.48 C
794 21-03-2014 09:00:00 15.725 C 55.9167 % 6.96 C
795 21-03-2014 10:00:00 16.00833 C 53.3333 % 6.53 C
796 21-03-2014 11:00:00 16.88333 C 49.0833 % 6.14 C
797 21-03-2014 12:00:00 16.70833 C 54.2500 % 7.43 C
798 21-03-2014 13:00:00 15.81667 C 58.4167 % 7.68 C
799 21-03-2014 14:00:00 14.88333 C 64.7500 % 8.31 C
800 21-03-2014 15:00:00 14.375 C 67.5833 % 8.46 C
Sensor: Nr:Datum:Temp:Feuchte:Taupunkt:
Aussen-T/F 801 21-03-2014 16:00:00 13.78333 C 61.1667 % 6.44 C
802 21-03-2014 17:00:00 12.08333 C 68.5000 % 6.47 C
803 21-03-2014 18:00:00 11.125 C 69.8333 % 5.83 C
804 21-03-2014 19:00:00 9.93333 C 73.5000 % 5.42 C
805 21-03-2014 20:00:00 9.19167 C 76.0833 % 5.2 C
806 21-03-2014 21:00:00 8.91667 C 77.0833 % 5.13 C
807 21-03-2014 22:00:00 8.78333 C 79.9167 % 5.51 C
808 21-03-2014 23:00:00 8.75 C 83.6667 % 6.14 C
809 22-03-2014 00:00:00 8.575 C 85.5833 % 6.3 C
810 22-03-2014 01:00:00 7.83333 C 89.0833 % 6.15 C
811 22-03-2014 02:00:00 7.76667 C 89.1667 % 6.1 C
812 22-03-2014 03:00:00 7.45 C 91.0000 % 6.08 C
813 22-03-2014 04:00:00 8.21667 C 90.2500 % 6.72 C
814 22-03-2014 05:00:00 8.3 C 89.5833 % 6.69 C
815 22-03-2014 06:00:00 8.45 C 91.4167 % 7.13 C
816 22-03-2014 07:00:00 8.475 C 92.2500 % 7.29 C
817 22-03-2014 08:00:00 9.74167 C 82.2500 % 6.87 C
818 22-03-2014 09:00:00 10.5 C 72.7500 % 5.82 C
819 22-03-2014 10:00:00 11.01667 C 68.0000 % 5.35 C
820 22-03-2014 11:00:00 11.06667 C 67.1667 % 5.22 C
821 22-03-2014 12:00:00 12.41667 C 63.3333 % 5.65 C
822 22-03-2014 13:00:00 12.95833 C 58.6667 % 5.07 C
823 22-03-2014 14:00:00 12.51667 C 61.5000 % 5.33 C
824 22-03-2014 15:00:00 10.475 C 79.4167 % 7.07 C
825 22-03-2014 16:00:00 11.01667 C 73.6667 % 6.5 C
Sensor: Nr:Datum:Temp:Feuchte:Taupunkt:
Aussen-T/F 826 22-03-2014 17:00:00 7.75 C 85.1667 % 5.42 C
827 22-03-2014 18:00:00 6.24167 C 91.6667 % 4.99 C
828 22-03-2014 19:00:00 5.675 C 94.5833 % 4.88 C
829 22-03-2014 20:00:00 5.75 C 94.2500 % 4.9 C
830 22-03-2014 21:00:00 5.51667 C 93.8333 % 4.6 C
831 22-03-2014 22:00:00 4.89167 C 94.8333 % 4.13 C
832 22-03-2014 23:00:00 5.05 C 94.5000 % 4.24 C
833 23-03-2014 00:00:00 4.64167 C 94.6667 % 3.86 C
834 23-03-2014 01:00:00 4.73333 C 95.3333 % 4.05 C
835 23-03-2014 02:00:00 4.66667 C 95.1667 % 3.96 C
836 23-03-2014 03:00:00 4.26667 C 95.9167 % 3.67 C
837 23-03-2014 04:00:00 5.00833 C 95.5000 % 4.35 C
838 23-03-2014 05:00:00 5.10833 C 92.3333 % 3.97 C
839 23-03-2014 06:00:00 4.06667 C 93.0000 % 3.04 C
840 23-03-2014 07:00:00 3.99167 C 94.5000 % 3.19 C
841 23-03-2014 08:00:00 5.25833 C 88.5833 % 3.53 C
842 23-03-2014 09:00:00 5.925 C 81.2500 % 2.96 C
843 23-03-2014 10:00:00 6.96667 C 75.4167 % 2.93 C
844 23-03-2014 11:00:00 7.13333 C 72.1667 % 2.47 C
845 23-03-2014 12:00:00 8.25 C 66.5000 % 2.39 C
846 23-03-2014 13:00:00 8.69167 C 63.1667 % 2.09 C
847 23-03-2014 14:00:00 8.89167 C 62.8333 % 2.21 C
848 23-03-2014 15:00:00 8.84167 C 62.2500 % 2.03 C
849 23-03-2014 16:00:00 8.73333 C 64.5000 % 2.42 C
850 23-03-2014 17:00:00 8.41667 C 66.8333 % 2.62 C
Sensor: Nr:Datum:Temp:Feuchte:Taupunkt:
Aussen-T/F 851 23-03-2014 18:00:00 8.09167 C 71.3333 % 3.23 C
852 23-03-2014 19:00:00 6.48333 C 78.8333 % 3.08 C
853 23-03-2014 20:00:00 5.75 C 81.4167 % 2.82 C
854 23-03-2014 21:00:00 4.71667 C 84.2500 % 2.29 C
855 23-03-2014 22:00:00 3.44167 C 88.5000 % 1.73 C
856 23-03-2014 23:00:00 2.76667 C 91.4167 % 1.51 C
857 24-03-2014 00:00:00 3.24167 C 89.8333 % 1.74 C
858 24-03-2014 01:00:00 3.38333 C 88.9167 % 1.73 C
859 24-03-2014 02:00:00 3.14167 C 89.6667 % 1.61 C
860 24-03-2014 03:00:00 3.05 C 90.0000 % 1.57 C
861 24-03-2014 04:00:00 3.35 C 88.4167 % 1.62 C
862 24-03-2014 05:00:00 3.21667 C 88.5000 % 1.5 C
863 24-03-2014 06:00:00 3.03333 C 89.6667 % 1.51 C
864 24-03-2014 07:00:00 3.3 C 88.9167 % 1.65 C
865 24-03-2014 08:00:00 4.14167 C 88.0833 % 2.35 C
866 24-03-2014 09:00:00 4.78333 C 84.7500 % 2.44 C
867 24-03-2014 10:00:00 5.48333 C 83.1667 % 2.86 C
868 24-03-2014 11:00:00 6.875 C 78.0833 % 3.33 C
869 24-03-2014 12:00:00 8.4 C 69.4444 % 3.14 C
870 24-03-2014 13:00:00 9.425 C 65.0000 % 3.19 C
871 24-03-2014 14:00:00 9.925 C 60.0833 % 2.55 C
872 24-03-2014 15:00:00 9.075 C 64.5000 % 2.75 C
873 24-03-2014 16:00:00 9.35 C 63.7500 % 2.84 C
874 24-03-2014 17:00:00 9.18333 C 64.7500 % 2.9 C
875 24-03-2014 18:00:00 6.20833 C 78.6667 % 2.79 C
Sensor: Nr:Datum:Temp:Feuchte:Taupunkt:
Aussen-T/F 876 24-03-2014 19:00:00 6.275 C 79.1667 % 2.94 C
877 24-03-2014 20:00:00 6.18333 C 80.1667 % 3.03 C
878 24-03-2014 21:00:00 4.41667 C 83.6667 % 1.9 C
879 24-03-2014 22:00:00 3.31667 C 87.4167 % 1.43 C
880 24-03-2014 23:00:00 2.21667 C 90.3333 % 0.8 C
881 25-03-2014 00:00:00 1.66667 C 91.9167 % 0.5 C
882 25-03-2014 01:00:00 1.05833 C 92.8333 % 0.03 C
883 25-03-2014 02:00:00 0.75833 C 93.8333 % -0.12 C
884 25-03-2014 03:00:00 0.29167 C 94.5000 % -0.49 C
885 25-03-2014 04:00:00 0.58333 C 95.5833 % -0.04 C
886 25-03-2014 05:00:00 0.28333 C 95.7500 % -0.31 C
887 25-03-2014 06:00:00 0.34167 C 96.0000 % -0.22 C
888 25-03-2014 07:00:00 0.76667 C 96.0000 % 0.2 C
889 25-03-2014 08:00:00 1.23333 C 96.0000 % 0.67 C
890 25-03-2014 09:00:00 2.39167 C 95.5000 % 1.75 C
891 25-03-2014 10:00:00 3.94167 C 90.3333 % 2.51 C
892 25-03-2014 11:00:00 6.825 C 80.8333 % 3.77 C
893 25-03-2014 12:00:00 8.68333 C 68.2500 % 3.17 C
894 25-03-2014 13:00:00 8.88333 C 65.5833 % 2.8 C
895 25-03-2014 14:00:00 8.525 C 61.6667 % 1.6 C
896 25-03-2014 15:00:00 9.2 C 59.7500 % 1.79 C
897 25-03-2014 16:00:00 10.4 C 56.8333 % 2.22 C
898 25-03-2014 17:00:00 9.88333 C 61.0000 % 2.73 C
899 25-03-2014 18:00:00 7.91667 C 67.3333 % 2.25 C
900 25-03-2014 19:00:00 5.34167 C 74.5000 % 1.18 C
Sensor: Nr:Datum:Temp:Feuchte:Taupunkt:
Aussen-T/F 901 25-03-2014 20:00:00 3.99167 C 81.5000 % 1.12 C
902 25-03-2014 21:00:00 3.05833 C 85.2500 % 0.83 C
903 25-03-2014 22:00:00 2.35833 C 88.0833 % 0.59 C
904 25-03-2014 23:00:00 1.51667 C 89.4167 % -0.03 C
905 26-03-2014 00:00:00 0.88333 C 90.9167 % -0.43 C
906 26-03-2014 01:00:00 0.36667 C 92.1667 % -0.75 C
907 26-03-2014 02:00:00 0.10833 C 93.4167 % -0.82 C
908 26-03-2014 03:00:00 0.30833 C 93.7500 % -0.58 C
909 26-03-2014 04:00:00 -0.24167 C 94.0000 % -1.09 C
910 26-03-2014 05:00:00 -0.54167 C 94.3333 % -1.34 C
911 26-03-2014 06:00:00 -0.76667 C 95.0000 % -1.47 C
912 26-03-2014 07:00:00 -0.725 C 95.0000 % -1.42 C
913 26-03-2014 08:00:00 -0.01667 C 95.9167 % -0.59 C
914 26-03-2014 09:00:00 1.76667 C 95.7500 % 1.16 C
915 26-03-2014 10:00:00 4.50833 C 87.2500 % 2.58 C
916 26-03-2014 11:00:00 7.60833 C 72.7500 % 3.04 C
917 26-03-2014 12:00:00 10.36667 C 60.5833 % 3.09 C
918 26-03-2014 13:00:00 10.375 C 54.2500 % 1.55 C
919 26-03-2014 14:00:00 11.20833 C 48.4167 % 0.74 C
920 26-03-2014 15:00:00 11.55833 C 46.4167 % 0.48 C
921 26-03-2014 16:00:00 10.24167 C 54.0833 % 1.38 C
922 26-03-2014 17:00:00 10.80833 C 50.5000 % 0.95 C
923 26-03-2014 18:00:00 8.30833 C 62.1667 % 1.5 C
924 26-03-2014 19:00:00 5.85 C 74.9167 % 1.75 C
925 26-03-2014 20:00:00 4.58333 C 80.3333 % 1.5 C
Sensor: Nr:Datum:Temp:Feuchte:Taupunkt:
Aussen-T/F 926 26-03-2014 21:00:00 4.36667 C 83.0833 % 1.75 C
927 26-03-2014 22:00:00 4.38333 C 85.0833 % 2.1 C
928 26-03-2014 23:00:00 4.15 C 91.4167 % 2.88 C
929 27-03-2014 00:00:00 4.175 C 93.5000 % 3.22 C
930 27-03-2014 01:00:00 4.14167 C 93.0000 % 3.11 C
931 27-03-2014 02:00:00 3.79167 C 92.9167 % 2.75 C
932 27-03-2014 03:00:00 3.375 C 92.0000 % 2.2 C
933 27-03-2014 04:00:00 2.5 C 92.2500 % 1.37 C
934 27-03-2014 05:00:00 1.89167 C 93.2500 % 0.92 C
935 27-03-2014 06:00:00 1.46667 C 94.0000 % 0.61 C
936 27-03-2014 07:00:00 2.06667 C 93.8333 % 1.18 C
937 27-03-2014 08:00:00 3.1 C 92.1667 % 1.96 C
938 27-03-2014 09:00:00 5.325 C 87.1667 % 3.37 C
939 27-03-2014 10:00:00 8.2 C 74.5000 % 3.95 C
940 27-03-2014 11:00:00 10.825 C 62.1667 % 3.88 C
941 27-03-2014 12:00:00 13.6 C 54.2500 % 4.54 C
942 27-03-2014 13:00:00 14.70833 C 49.9167 % 4.38 C
943 27-03-2014 14:00:00 15.35 C 45.0833 % 3.52 C
944 27-03-2014 15:00:00 15.80833 C 43.0833 % 3.3 C
945 27-03-2014 16:00:00 15.71667 C 43.2500 % 3.27 C
946 27-03-2014 17:00:00 15.73333 C 42.5000 % 3.04 C
947 27-03-2014 18:00:00 12 C 56.7500 % 3.69 C
948 27-03-2014 19:00:00 9.51667 C 66.5833 % 3.62 C
949 27-03-2014 20:00:00 8.625 C 73.1667 % 4.1 C
950 27-03-2014 21:00:00 8.01667 C 76.6667 % 4.18 C
Sensor: Nr:Datum:Temp:Feuchte:Taupunkt:
Aussen-T/F 951 27-03-2014 22:00:00 7.625 C 79.1667 % 4.25 C
952 27-03-2014 23:00:00 7.99167 C 77.0833 % 4.23 C
953 28-03-2014 00:00:00 7.24167 C 79.0833 % 3.86 C
954 28-03-2014 01:00:00 6.525 C 80.8333 % 3.48 C
955 28-03-2014 02:00:00 5.825 C 83.3333 % 3.22 C
956 28-03-2014 03:00:00 5.40833 C 85.0000 % 3.09 C
957 28-03-2014 04:00:00 4.83333 C 87.0000 % 2.86 C
958 28-03-2014 05:00:00 4.1 C 88.5000 % 2.38 C
959 28-03-2014 06:00:00 3.5 C 89.5833 % 1.95 C
960 28-03-2014 07:00:00 3.66667 C 91.8333 % 2.47 C
961 28-03-2014 08:00:00 5.26667 C 89.0833 % 3.62 C
962 28-03-2014 09:00:00 8.20833 C 78.9167 % 4.77 C
963 28-03-2014 10:00:00 11.275 C 66.0833 % 5.18 C
964 28-03-2014 11:00:00 13.61667 C 58.0833 % 5.54 C
965 28-03-2014 12:00:00 15.75 C 51.5833 % 5.81 C
966 28-03-2014 13:00:00 17.85 C 43.5833 % 5.31 C
967 28-03-2014 14:00:00 18.21667 C 39.1667 % 4.11 C
968 28-03-2014 15:00:00 18.79167 C 36.6667 % 3.68 C
969 28-03-2014 16:00:00 19.175 C 35.1667 % 3.43 C
970 28-03-2014 17:00:00 16.79167 C 42.9167 % 4.13 C
971 28-03-2014 18:00:00 13.78333 C 55.5833 % 5.06 C
972 28-03-2014 19:00:00 13.15 C 55.0833 % 4.34 C
973 28-03-2014 20:00:00 12.1 C 56.3333 % 3.68 C
974 28-03-2014 21:00:00 10.96667 C 60.5833 % 3.65 C
975 28-03-2014 22:00:00 10.1 C 66.2500 % 4.1 C
Sensor: Nr:Datum:Temp:Feuchte:Taupunkt:
Aussen-T/F 976 28-03-2014 23:00:00 8.49167 C 73.7500 % 4.08 C
977 29-03-2014 00:00:00 6.69167 C 81.4167 % 3.74 C
978 29-03-2014 01:00:00 5.93333 C 85.0000 % 3.61 C
979 29-03-2014 02:00:00 5.5 C 87.0833 % 3.53 C
980 29-03-2014 03:00:00 5.025 C 88.5833 % 3.3 C
981 29-03-2014 04:00:00 4.33333 C 90.5833 % 2.93 C
982 29-03-2014 05:00:00 3.7 C 91.8333 % 2.5 C
983 29-03-2014 06:00:00 3.15 C 93.2500 % 2.17 C
984 29-03-2014 07:00:00 3.18333 C 94.0000 % 2.31 C
985 29-03-2014 08:00:00 4.1 C 94.6667 % 3.32 C
986 29-03-2014 09:00:00 6.75 C 91.0833 % 5.4 C
987 29-03-2014 10:00:00 10.55833 C 76.6667 % 6.64 C
988 29-03-2014 11:00:00 14.25833 C 61.7500 % 7.03 C
989 29-03-2014 12:00:00 17.34167 C 52.5000 % 7.54 C
990 29-03-2014 13:00:00 18.58333 C 47.6667 % 7.27 C
991 29-03-2014 14:00:00 19.66667 C 40.5000 % 5.88 C
992 29-03-2014 15:00:00 20.26667 C 34.2500 % 4.02 C
993 29-03-2014 16:00:00 20.79167 C 31.2500 % 3.18 C
994 29-03-2014 17:00:00 20.8 C 30.1429 % 2.67 C
995 29-03-2014 18:00:00 14.1 C 54.0000 % 4.94 C
996 29-03-2014 19:00:00 12.84167 C 55.2500 % 4.1 C
997 29-03-2014 20:00:00 11.575 C 63.0000 % 4.78 C
998 29-03-2014 21:00:00 10.375 C 68.9167 % 4.93 C
999 29-03-2014 22:00:00 8.99167 C 72.2500 % 4.27 C
1000 29-03-2014 23:00:00 7.66667 C 76.2500 % 3.76 C
Sensor: Nr:Datum:Temp:Feuchte:Taupunkt:
Aussen-T/F 1001 30-03-2014 00:00:00 6.86667 C 79.5000 % 3.57 C
1002 30-03-2014 01:00:00 6.1 C 81.9167 % 3.25 C
1003 30-03-2014 02:00:00 5.00833 C 85.9167 % 2.85 C
1004 30-03-2014 04:00:00 4.35833 C 87.9167 % 2.54 C
1005 30-03-2014 05:00:00 3.75833 C 89.7500 % 2.23 C
1006 30-03-2014 06:00:00 3.28333 C 91.2500 % 2 C
1007 30-03-2014 07:00:00 2.91667 C 92.6667 % 1.85 C
1008 30-03-2014 08:00:00 3.375 C 92.8333 % 2.33 C
1009 30-03-2014 09:00:00 4.04286 C 93.0000 % 3.02 C
1010 30-03-2014 10:00:00 7.47 C 84.5000 % 5.03 C
1011 30-03-2014 11:00:00 10.175 C 76.1667 % 6.17 C
1012 30-03-2014 12:00:00 13.90833 C 66.3333 % 7.74 C
1013 30-03-2014 13:00:00 18.48333 C 54.8333 % 9.24 C
1014 30-03-2014 14:00:00 20.73333 C 40.6667 % 6.9 C
1015 30-03-2014 15:00:00 20.74 C 38.0000 % 5.92 C
1016 30-03-2014 20:00:00 13.97 C 61.9000 % 6.79 C
1017 30-03-2014 21:00:00 12.46 C 68.2000 % 6.77 C
1018 30-03-2014 22:00:00 11.59167 C 69.5833 % 6.23 C
1019 30-03-2014 23:00:00 10.425 C 74.2500 % 6.05 C
1020 31-03-2014 00:00:00 9.775 C 76.3333 % 5.82 C
1021 31-03-2014 01:00:00 8.83333 C 80.2500 % 5.62 C
1022 31-03-2014 02:00:00 8.325 C 82.5000 % 5.53 C
1023 31-03-2014 03:00:00 8.06667 C 83.6667 % 5.47 C
1024 31-03-2014 04:00:00 7.525 C 85.6667 % 5.28 C
1025 31-03-2014 05:00:00 7.09167 C 87.7500 % 5.2 C
Sensor: Nr:Datum:Temp:Feuchte:Taupunkt:
Aussen-T/F 1026 31-03-2014 06:00:00 6.71667 C 88.1667 % 4.9 C
1027 31-03-2014 07:00:00 6.225 C 89.9167 % 4.7 C
1028 31-03-2014 08:00:00 6.6 C 90.7500 % 5.2 C
1029 31-03-2014 09:00:00 7.74167 C 88.0000 % 5.88 C
1030 31-03-2014 10:00:00 9.29167 C 82.9167 % 6.54 C
1031 31-03-2014 11:00:00 11.4 C 76.8333 % 7.49 C
1032 31-03-2014 12:00:00 14.65 C 66.8333 % 8.56 C
1033 31-03-2014 13:00:00 17.93333 C 55.5000 % 8.9 C
1034 31-03-2014 14:00:00 20.25833 C 41.1667 % 6.65 C
1035 31-03-2014 15:00:00 22.14167 C 24.6667 % 1.02 C
1036 31-03-2014 16:00:00 22.95 C 28.2500 % 3.61 C
1037 31-03-2014 17:00:00 22.94167 C 28.3333 % 3.65 C
1038 31-03-2014 18:00:00 21.44167 C 32.6667 % 4.37 C
1039 31-03-2014 19:00:00 17.40833 C 43.7500 % 4.96 C
1040 31-03-2014 20:00:00 15.14167 C 47.5000 % 4.07 C
1041 31-03-2014 21:00:00 14.075 C 60.6667 % 6.6 C
1042 31-03-2014 22:00:00 12.625 C 69.5000 % 7.2 C
1043 31-03-2014 23:00:00 12.01667 C 69.8333 % 6.69 C
1044 01-04-2014 00:00:00 10.94167 C 74.2500 % 6.54 C
1045 01-04-2014 01:00:00 10.78333 C 75.8333 % 6.7 C
1046 01-04-2014 02:00:00 10.525 C 77.7500 % 6.81 C
1047 01-04-2014 03:00:00 9.56667 C 80.2500 % 6.34 C
1048 01-04-2014 04:00:00 9.04167 C 81.6667 % 6.08 C
1049 01-04-2014 05:00:00 8.53333 C 83.4167 % 5.89 C
1050 01-04-2014 06:00:00 8.00833 C 84.5833 % 5.57 C
Sensor: Nr:Datum:Temp:Feuchte:Taupunkt:
Aussen-T/F 1051 01-04-2014 07:00:00 7.65833 C 86.4167 % 5.54 C
1052 01-04-2014 08:00:00 8.38333 C 87.0000 % 6.35 C
1053 01-04-2014 09:00:00 9.8 C 82.8333 % 7.03 C
1054 01-04-2014 10:00:00 11.6 C 77.2500 % 7.76 C
1055 01-04-2014 11:00:00 14.09167 C 68.1667 % 8.32 C
1056 01-04-2014 12:00:00 17.36667 C 56.1667 % 8.55 C
1057 01-04-2014 13:00:00 21.06667 C 46.7500 % 9.25 C
1058 01-04-2014 14:00:00 22.1 C 39.8333 % 7.82 C
1059 01-04-2014 15:00:00 21.95833 C 38.4167 % 7.16 C
1060 01-04-2014 16:00:00 23.06667 C 35.0833 % 6.82 C
1061 01-04-2014 17:00:00 22.76 C 34.0000 % 6.1 C
1062 01-04-2014 19:00:00 17.84286 C 56.8571 % 9.18 C
1063 01-04-2014 20:00:00 17 C 60.0833 % 9.21 C
1064 01-04-2014 21:00:00 15.3 C 70.1000 % 9.89 C
1065 01-04-2014 22:00:00 13.91667 C 66.8333 % 7.86 C
1066 01-04-2014 23:00:00 12.70833 C 70.5833 % 7.51 C
1067 02-04-2014 00:00:00 11.51667 C 73.4167 % 6.93 C
1068 02-04-2014 01:00:00 10.63333 C 76.5000 % 6.68 C
1069 02-04-2014 02:00:00 9.41667 C 80.6667 % 6.27 C
1070 02-04-2014 03:00:00 8.75833 C 82.5000 % 5.95 C
1071 02-04-2014 04:00:00 7.96667 C 85.5000 % 5.69 C
1072 02-04-2014 05:00:00 7.28333 C 87.3333 % 5.32 C
1073 02-04-2014 06:00:00 6.60833 C 89.7500 % 5.05 C
1074 02-04-2014 07:00:00 6.78333 C 90.0000 % 5.26 C
1075 02-04-2014 08:00:00 7.00833 C 90.3333 % 5.54 C
Sensor: Nr:Datum:Temp:Feuchte:Taupunkt:
Aussen-T/F 1076 02-04-2014 09:00:00 8.04167 C 88.8333 % 6.31 C
1077 02-04-2014 10:00:00 10.375 C 83.0000 % 7.62 C
1078 02-04-2014 11:00:00 13.45833 C 75.0833 % 9.14 C
1079 02-04-2014 12:00:00 17.03636 C 61.8182 % 9.66 C
1080 02-04-2014 13:00:00 20.98889 C 47.7778 % 9.5 C
1081 02-04-2014 14:00:00 22.40833 C 39.9167 % 8.12 C
1082 02-04-2014 15:00:00 22.66667 C 39.0000 % 8.01 C
1083 02-04-2014 16:00:00 23.2 C 37.4167 % 7.88 C
1084 02-04-2014 17:00:00 23.36667 C 36.3333 % 7.6 C
1085 02-04-2014 18:00:00 22.54167 C 40.3333 % 8.4 C
1086 02-04-2014 19:00:00 18.53333 C 57.4167 % 9.97 C
1087 02-04-2014 20:00:00 15.90833 C 65.6667 % 9.49 C
1088 02-04-2014 21:00:00 14.90833 C 69.6667 % 9.42 C
1089 02-04-2014 22:00:00 13.64167 C 74.5000 % 9.2 C
1090 02-04-2014 23:00:00 12.69167 C 76.7500 % 8.72 C
1091 03-04-2014 00:00:00 11.5 C 80.6667 % 8.3 C
1092 03-04-2014 01:00:00 11.39167 C 81.6667 % 8.37 C
1093 03-04-2014 02:00:00 10.91667 C 83.1667 % 8.18 C
1094 03-04-2014 03:00:00 10.46667 C 85.0000 % 8.06 C
1095 03-04-2014 04:00:00 9.51667 C 86.3333 % 7.35 C
1096 03-04-2014 05:00:00 8.575 C 89.2500 % 6.91 C
1097 03-04-2014 06:00:00 8.21667 C 90.5000 % 6.76 C
1098 03-04-2014 07:00:00 8.09167 C 91.7500 % 6.83 C
1099 03-04-2014 08:00:00 9.03333 C 90.8333 % 7.62 C
1100 03-04-2014 09:00:00 10.18333 C 87.2500 % 8.16 C
Sensor: Nr:Datum:Temp:Feuchte:Taupunkt:
Aussen-T/F 1101 03-04-2014 10:00:00 11.55833 C 83.2500 % 8.82 C
1102 03-04-2014 11:00:00 13.675 C 76.7500 % 9.67 C
1103 03-04-2014 12:00:00 17.08333 C 68.0000 % 11.14 C
1104 03-04-2014 13:00:00 20.50833 C 47.4167 % 8.95 C
1105 03-04-2014 14:00:00 21.35 C 44.1667 % 8.66 C
1106 03-04-2014 18:00:00 20.4 C 51.0000 % 9.93 C
1107 03-04-2014 19:00:00 19.575 C 54.2500 % 10.09 C
1108 03-04-2014 20:00:00 16.14286 C 67.2857 % 10.08 C
1109 03-04-2014 21:00:00 15.4 C 65.3333 % 8.94 C
1110 03-04-2014 22:00:00 14.44167 C 69.9167 % 9.03 C
1111 03-04-2014 23:00:00 13.175 C 74.5000 % 8.75 C
1112 04-04-2014 00:00:00 12.34167 C 77.5833 % 8.54 C
1113 04-04-2014 01:00:00 12.79167 C 77.4167 % 8.95 C
1114 04-04-2014 02:00:00 12.76667 C 78.0833 % 9.05 C
1115 04-04-2014 03:00:00 12.31667 C 80.8333 % 9.12 C
1116 04-04-2014 04:00:00 12.1 C 82.3333 % 9.18 C
1117 04-04-2014 05:00:00 11.525 C 84.0833 % 8.93 C
1118 04-04-2014 06:00:00 11.3 C 85.5000 % 8.96 C
1119 04-04-2014 07:00:00 11.225 C 85.9167 % 8.96 C
1120 04-04-2014 08:00:00 11.05 C 87.5833 % 9.07 C
1121 04-04-2014 09:00:00 11.88333 C 85.7500 % 9.58 C
1122 04-04-2014 10:00:00 13.21667 C 81.5000 % 10.12 C
1123 04-04-2014 11:00:00 14.99167 C 77.0000 % 11 C
1124 04-04-2014 12:00:00 16.99167 C 70.1667 % 11.52 C
1125 04-04-2014 13:00:00 18.975 C 63.2500 % 11.84 C
Sensor: Nr:Datum:Temp:Feuchte:Taupunkt:
Aussen-T/F 1126 04-04-2014 14:00:00 20.21667 C 56.5833 % 11.32 C
1127 04-04-2014 15:00:00 20.58333 C 56.0833 % 11.53 C
1128 04-04-2014 16:00:00 20.39167 C 57.5000 % 11.73 C
1129 04-04-2014 17:00:00 20.22857 C 60.1429 % 12.25 C
1130 04-04-2014 18:00:00 19.27143 C 72.0000 % 14.1 C
1131 04-04-2014 19:00:00 17.96667 C 63.0000 % 10.83 C
1132 04-04-2014 20:00:00 16.70833 C 69.1667 % 11.03 C
1133 04-04-2014 21:00:00 15.28333 C 76.9167 % 11.26 C
1134 04-04-2014 22:00:00 14.9 C 79.1667 % 11.33 C
1135 04-04-2014 23:00:00 14 C 83.0833 % 11.18 C
1136 05-04-2014 00:00:00 13.95833 C 84.9167 % 11.46 C
1137 05-04-2014 01:00:00 13.43333 C 87.0000 % 11.31 C
1138 05-04-2014 02:00:00 13.2 C 87.0000 % 11.09 C
1139 05-04-2014 03:00:00 12.91667 C 87.5833 % 10.91 C
1140 05-04-2014 04:00:00 12.74167 C 87.0000 % 10.63 C
1141 05-04-2014 05:00:00 12.53333 C 87.5833 % 10.53 C
1142 05-04-2014 06:00:00 12.125 C 90.0833 % 10.55 C
1143 05-04-2014 07:00:00 12.00833 C 90.0000 % 10.42 C
1144 05-04-2014 08:00:00 12.04167 C 90.0000 % 10.45 C
1145 05-04-2014 09:00:00 12.2 C 89.5000 % 10.53 C
1146 05-04-2014 10:00:00 12.13333 C 89.5000 % 10.46 C
1147 05-04-2014 11:00:00 12.36667 C 88.0833 % 10.45 C
1148 05-04-2014 12:00:00 13.075 C 86.8333 % 10.93 C
1149 05-04-2014 13:00:00 13.9 C 87.0000 % 11.77 C
1150 05-04-2014 15:00:00 15.43333 C 76.6667 % 11.36 C
Sensor: Nr:Datum:Temp:Feuchte:Taupunkt:
Aussen-T/F 1151 05-04-2014 16:00:00 15.125 C 76.2500 % 10.98 C
1152 05-04-2014 17:00:00 14.88889 C 79.0000 % 11.28 C
1153 05-04-2014 18:00:00 14.7 C 78.0000 % 10.91 C
1154 05-04-2014 19:00:00 14.29167 C 82.1667 % 11.29 C
1155 05-04-2014 20:00:00 13.38333 C 83.9167 % 10.72 C
1156 05-04-2014 21:00:00 13.06667 C 85.5000 % 10.69 C
1157 05-04-2014 22:00:00 12.70833 C 86.7500 % 10.56 C
1158 05-04-2014 23:00:00 11.26667 C 88.3333 % 9.41 C
1159 06-04-2014 00:00:00 10.08333 C 91.3333 % 8.74 C
1160 06-04-2014 01:00:00 9.2 C 92.9167 % 8.12 C
1161 06-04-2014 02:00:00 8.45 C 94.4167 % 7.61 C
1162 06-04-2014 03:00:00 7.9 C 95.0000 % 7.15 C
1163 06-04-2014 04:00:00 7.19167 C 95.4167 % 6.51 C
1164 06-04-2014 05:00:00 7.00833 C 96.1667 % 6.44 C
1165 06-04-2014 06:00:00 7.2 C 96.6667 % 6.71 C
1166 06-04-2014 07:00:00 7.21667 C 97.0000 % 6.77 C
1167 06-04-2014 08:00:00 7.71667 C 97.0000 % 7.27 C
1168 06-04-2014 09:00:00 8.19167 C 97.0000 % 7.74 C
1169 06-04-2014 10:00:00 10.23333 C 94.0000 % 9.31 C
1170 06-04-2014 11:00:00 13.87778 C 76.1111 % 9.74 C
1171 06-04-2014 12:00:00 16.50833 C 62.2500 % 9.27 C
1172 06-04-2014 13:00:00 18.53333 C 57.3333 % 9.95 C
1173 06-04-2014 14:00:00 19.44 C 53.8000 % 9.84 C
1174 06-04-2014 15:00:00 19.08571 C 55.2857 % 9.92 C
1175 06-04-2014 16:00:00 18.9 C 56.0000 % 9.94 C
Sensor: Nr:Datum:Temp:Feuchte:Taupunkt:
Aussen-T/F 1176 06-04-2014 17:00:00 18.3 C 58.0000 % 9.9 C
1177 06-04-2014 19:00:00 16.45 C 67.6667 % 10.46 C
1178 06-04-2014 20:00:00 14.9 C 72.8333 % 10.07 C
1179 06-04-2014 21:00:00 13.825 C 77.5000 % 9.96 C
1180 06-04-2014 22:00:00 13.9 C 78.1667 % 10.16 C
1181 06-04-2014 23:00:00 13.99167 C 77.3333 % 10.09 C
1182 07-04-2014 00:00:00 13.875 C 77.8333 % 10.08 C
1183 07-04-2014 01:00:00 13.21667 C 81.5000 % 10.12 C
1184 07-04-2014 02:00:00 12.99167 C 83.2500 % 10.22 C
1185 07-04-2014 03:00:00 12.675 C 84.7500 % 10.18 C
1186 07-04-2014 04:00:00 12.5 C 85.7500 % 10.18 C
1187 07-04-2014 05:00:00 12.4 C 86.4167 % 10.2 C
1188 07-04-2014 06:00:00 12.38333 C 87.5833 % 10.38 C
1189 07-04-2014 07:00:00 12.26667 C 88.5000 % 10.42 C
1190 07-04-2014 08:00:00 12.95 C 87.1667 % 10.87 C
1191 07-04-2014 09:00:00 14.15833 C 84.7500 % 11.63 C
1192 07-04-2014 10:00:00 16.19167 C 79.6667 % 12.68 C
1193 07-04-2014 11:00:00 17.8 C 75.1667 % 13.35 C
1194 07-04-2014 12:00:00 19.51667 C 68.1667 % 13.49 C
1195 07-04-2014 13:00:00 20.51667 C 62.4167 % 13.09 C
1196 07-04-2014 14:00:00 21.20833 C 60.9167 % 13.37 C
1197 07-04-2014 15:00:00 21.54167 C 56.6667 % 12.58 C
1198 07-04-2014 16:00:00 22.16667 C 50.6667 % 11.46 C
1199 07-04-2014 18:00:00 23.36667 C 82.6667 % 20.25 C
1200 07-04-2014 19:00:00 17.9 C 65.7500 % 11.41 C
Sensor: Nr:Datum:Temp:Feuchte:Taupunkt:
Aussen-T/F 1201 07-04-2014 20:00:00 16.87 C 65.2000 % 10.3 C
1202 07-04-2014 21:00:00 16.20909 C 69.7273 % 10.68 C
1203 07-04-2014 22:00:00 16.03333 C 66.8333 % 9.88 C
1204 07-04-2014 23:00:00 16.125 C 67.3333 % 10.07 C
1205 08-04-2014 00:00:00 15.48333 C 71.0000 % 10.25 C
1206 08-04-2014 01:00:00 15.59167 C 74.2500 % 11.03 C
1207 08-04-2014 02:00:00 16.025 C 72.1667 % 11.02 C
1208 08-04-2014 03:00:00 15.20833 C 75.0833 % 10.83 C
1209 08-04-2014 04:00:00 14.66667 C 76.9167 % 10.67 C
1210 08-04-2014 05:00:00 15.5 C 70.0000 % 10.06 C
1211 08-04-2014 06:00:00 13.175 C 83.1667 % 10.38 C
1212 08-04-2014 07:00:00 11.525 C 74.6667 % 7.19 C
1213 08-04-2014 08:00:00 10.99167 C 67.8333 % 5.29 C
1214 08-04-2014 09:00:00 11.075 C 64.4167 % 4.63 C
1215 08-04-2014 10:00:00 11.725 C 62.5000 % 4.81 C
1216 08-04-2014 11:00:00 12.28333 C 60.7500 % 4.93 C
1217 08-04-2014 12:00:00 12.64167 C 58.9167 % 4.83 C
1218 08-04-2014 13:00:00 12.64167 C 56.5000 % 4.23 C
1219 08-04-2014 14:00:00 12.15833 C 56.4167 % 3.76 C
1220 08-04-2014 15:00:00 12.63333 C 51.2500 % 2.84 C
1221 08-04-2014 16:00:00 12.6 C 49.0833 % 2.21 C
1222 08-04-2014 17:00:00 10.68333 C 62.0833 % 3.73 C
1223 08-04-2014 18:00:00 10.65833 C 63.3333 % 3.99 C
1224 08-04-2014 19:00:00 10.26667 C 64.4167 % 3.86 C
1225 08-04-2014 20:00:00 9.26667 C 70.0000 % 4.09 C
Sensor: Nr:Datum:Temp:Feuchte:Taupunkt:
Aussen-T/F 1226 08-04-2014 21:00:00 8.75 C 74.4167 % 4.46 C
1227 08-04-2014 22:00:00 8.00833 C 77.3333 % 4.29 C
1228 08-04-2014 23:00:00 7.79091 C 76.8182 % 3.99 C
1229 09-04-2014 00:00:00 6.06667 C 91.0000 % 4.71 C
1230 09-04-2014 01:00:00 5.65833 C 92.5833 % 4.55 C
1231 09-04-2014 02:00:00 5.425 C 93.7500 % 4.5 C
1232 09-04-2014 03:00:00 4.9 C 93.8333 % 3.99 C
1233 09-04-2014 04:00:00 4.88333 C 93.7500 % 3.96 C
1234 09-04-2014 05:00:00 5.05833 C 92.1667 % 3.89 C
1235 09-04-2014 06:00:00 4.375 C 93.8333 % 3.47 C
1236 09-04-2014 07:00:00 4.18 C 94.0000 % 3.3 C
1237 09-04-2014 08:00:00 4.64167 C 94.9167 % 3.9 C
1238 09-04-2014 09:00:00 6.81667 C 89.6667 % 5.24 C
1239 09-04-2014 10:00:00 8.54167 C 84.5000 % 6.08 C
1240 09-04-2014 11:00:00 10.29167 C 76.6667 % 6.38 C
1241 09-04-2014 12:00:00 11.375 C 70.5833 % 6.23 C
1242 09-04-2014 13:00:00 12.96667 C 58.9167 % 5.13 C
1243 09-04-2014 14:00:00 13.64167 C 55.0000 % 4.78 C
1244 09-04-2014 15:00:00 14.43333 C 48.9167 % 3.84 C
1245 09-04-2014 16:00:00 14.325 C 49.4167 % 3.89 C
1246 09-04-2014 17:00:00 14.80833 C 50.8333 % 4.73 C
1247 09-04-2014 18:00:00 14.58333 C 51.6667 % 4.76 C
1248 09-04-2014 19:00:00 13.15833 C 59.3333 % 5.42 C
1249 09-04-2014 20:00:00 10.35833 C 73.0000 % 5.74 C
1250 09-04-2014 21:00:00 9.15 C 78.0833 % 5.54 C
Sensor: Nr:Datum:Temp:Feuchte:Taupunkt:
Aussen-T/F 1251 09-04-2014 22:00:00 9 C 78.5000 % 5.47 C
1252 09-04-2014 23:00:00 8.56667 C 78.9167 % 5.12 C
1253 10-04-2014 00:00:00 9.05833 C 76.1667 % 5.09 C
1254 10-04-2014 01:00:00 8.23333 C 79.5833 % 4.92 C
1255 10-04-2014 02:00:00 7.93333 C 82.0000 % 5.06 C
1256 10-04-2014 03:00:00 8.29167 C 81.5833 % 5.33 C
1257 10-04-2014 04:00:00 7.925 C 83.1667 % 5.25 C
1258 10-04-2014 05:00:00 7.13333 C 86.0833 % 4.97 C
1259 10-04-2014 06:00:00 6.48333 C 88.4167 % 4.71 C
1260 10-04-2014 07:00:00 6.50833 C 89.6667 % 4.94 C
1261 10-04-2014 08:00:00 7.35556 C 87.3333 % 5.39 C
1262 10-04-2014 09:00:00 8.65 C 89.0000 % 6.94 C
1263 10-04-2014 10:00:00 9.85556 C 79.2222 % 6.43 C
1264 10-04-2014 13:00:00 16.3 C 60.6667 % 8.69 C
1265 10-04-2014 14:00:00 17.6 C 58.0000 % 9.25 C
1266 10-04-2014 15:00:00 17.66 C 56.6000 % 8.94 C
1267 10-04-2014 16:00:00 18.52 C 62.8000 % 11.3 C
1268 10-04-2014 17:00:00 17.91667 C 55.5000 % 8.89 C
1269 10-04-2014 18:00:00 16.5 C 59.1667 % 8.51 C
1270 10-04-2014 19:00:00 16.2 C 60.0000 % 8.43 C
1271 11-04-2014 08:00:00 6.86 C 95.0000 % 6.12 C
1272 11-04-2014 09:00:00 8.29167 C 95.0000 % 7.54 C
1273 11-04-2014 10:00:00 11.43333 C 85.7778 % 9.14 C
1274 11-04-2014 11:00:00 15.75 C 67.5000 % 9.75 C
1275 11-04-2014 12:00:00 16.90833 C 63.1667 % 9.86 C
Sensor: Nr:Datum:Temp:Feuchte:Taupunkt:
Aussen-T/F 1276 11-04-2014 13:00:00 18.85556 C 57.0000 % 10.16 C
1277 11-04-2014 14:00:00 18.53333 C 57.0000 % 9.86 C
1278 11-04-2014 16:00:00 19.54286 C 57.7143 % 10.99 C
1279 11-04-2014 17:00:00 18.01667 C 62.6667 % 10.79 C
1280 11-04-2014 18:00:00 16.775 C 64.0000 % 9.93 C
1281 11-04-2014 19:00:00 15.29167 C 70.1667 % 9.89 C
1282 11-04-2014 20:00:00 14.31667 C 72.6667 % 9.48 C
1283 11-04-2014 21:00:00 13.6 C 76.5000 % 9.55 C
1284 11-04-2014 22:00:00 12.85833 C 78.3333 % 9.18 C
1285 11-04-2014 23:00:00 12.325 C 79.5000 % 8.88 C
1286 12-04-2014 00:00:00 11.46667 C 82.0000 % 8.51 C
1287 12-04-2014 01:00:00 10.175 C 86.9167 % 8.1 C
1288 12-04-2014 02:00:00 9.86667 C 87.4167 % 7.88 C
1289 12-04-2014 03:00:00 9.825 C 85.2500 % 7.47 C
1290 12-04-2014 04:00:00 9.85 C 83.5000 % 7.19 C
1291 12-04-2014 05:00:00 9.26667 C 86.4167 % 7.12 C
1292 12-04-2014 06:00:00 9.21667 C 86.4167 % 7.07 C
1293 12-04-2014 07:00:00 9.09167 C 86.9167 % 7.03 C
1294 12-04-2014 08:00:00 9.375 C 84.5000 % 6.9 C
1295 12-04-2014 09:00:00 10.05833 C 82.1667 % 7.16 C
1296 12-04-2014 10:00:00 11.45833 C 79.1667 % 7.98 C
1297 12-04-2014 11:00:00 12.66667 C 75.2500 % 8.4 C
1298 12-04-2014 12:00:00 13.96667 C 71.6667 % 8.94 C
1299 12-04-2014 13:00:00 16.03333 C 63.5000 % 9.12 C
1300 12-04-2014 14:00:00 16.95833 C 54.9167 % 7.84 C
Sensor: Nr:Datum:Temp:Feuchte:Taupunkt:
Aussen-T/F 1301 12-04-2014 15:00:00 17.55 C 52.1667 % 7.64 C
1302 12-04-2014 16:00:00 18.20833 C 44.8333 % 6.04 C
1303 12-04-2014 17:00:00 17.225 C 47.4167 % 5.95 C
1304 12-04-2014 18:00:00 15.78333 C 52.1667 % 6.01 C
1305 12-04-2014 19:00:00 15.16667 C 53.3333 % 5.75 C
1306 12-04-2014 20:00:00 14.08333 C 55.6667 % 5.36 C
1307 12-04-2014 21:00:00 13.28333 C 61.5833 % 6.07 C
1308 12-04-2014 22:00:00 11.95 C 67.3333 % 6.09 C
1309 12-04-2014 23:00:00 11.79167 C 66.6667 % 5.8 C
1310 13-04-2014 00:00:00 11.44167 C 70.4167 % 6.26 C
1311 13-04-2014 01:00:00 11.075 C 73.1667 % 6.46 C
1312 13-04-2014 02:00:00 10.81667 C 74.0833 % 6.39 C
1313 13-04-2014 03:00:00 9.96667 C 77.5833 % 6.24 C
1314 13-04-2014 04:00:00 9.69167 C 78.6667 % 6.17 C
1315 13-04-2014 05:00:00 8.63333 C 81.5833 % 5.67 C
1316 13-04-2014 06:00:00 7.41667 C 85.6667 % 5.18 C
1317 13-04-2014 07:00:00 6.75833 C 87.9167 % 4.9 C
1318 13-04-2014 08:00:00 7.3 C 88.1667 % 5.48 C
1319 13-04-2014 09:00:00 9.475 C 80.8333 % 6.35 C
1320 13-04-2014 10:00:00 11 C 74.0833 % 6.57 C
1321 13-04-2014 11:00:00 12.75833 C 67.1667 % 6.83 C
1322 13-04-2014 12:00:00 14.14444 C 62.2222 % 7.03 C
1323 13-04-2014 13:00:00 14.65455 C 62.1818 % 7.5 C
1324 13-04-2014 14:00:00 14.675 C 63.5000 % 7.83 C
1325 13-04-2014 15:00:00 14.9 C 62.5000 % 7.81 C
Sensor: Nr:Datum:Temp:Feuchte:Taupunkt:
Aussen-T/F 1326 13-04-2014 16:00:00 14.93333 C 61.9167 % 7.7 C
1327 13-04-2014 17:00:00 15.01667 C 57.2500 % 6.64 C
1328 13-04-2014 18:00:00 15.1 C 54.5000 % 6 C
1329 13-04-2014 19:00:00 13.84167 C 58.4167 % 5.83 C
1330 13-04-2014 20:00:00 13 C 64.2500 % 6.41 C
1331 13-04-2014 21:00:00 11.98333 C 69.0833 % 6.5 C
1332 13-04-2014 22:00:00 11.10833 C 71.4167 % 6.14 C
1333 13-04-2014 23:00:00 9.75833 C 75.9167 % 5.72 C
1334 14-04-2014 00:00:00 8.85833 C 79.1667 % 5.45 C
1335 14-04-2014 01:00:00 9.30833 C 77.4167 % 5.57 C
1336 14-04-2014 02:00:00 8.825 C 79.3333 % 5.45 C
1337 14-04-2014 03:00:00 7.375 C 84.6667 % 4.97 C
1338 14-04-2014 04:00:00 7.575 C 83.7500 % 5.01 C
1339 14-04-2014 05:00:00 7.875 C 82.7500 % 5.13 C
1340 14-04-2014 06:00:00 8.43333 C 81.0833 % 5.38 C
1341 14-04-2014 07:00:00 8.60833 C 81.0833 % 5.55 C
1342 14-04-2014 08:00:00 8.85 C 81.4167 % 5.85 C
1343 14-04-2014 09:00:00 9.825 C 75.8333 % 5.77 C
1344 14-04-2014 10:00:00 10.49167 C 68.6667 % 4.98 C
1345 14-04-2014 11:00:00 9.94167 C 73.7500 % 5.48 C
1346 14-04-2014 12:00:00 11.4 C 61.7500 % 4.33 C
1347 14-04-2014 13:00:00 12.83333 C 54.0833 % 3.79 C
1348 14-04-2014 14:00:00 13.39167 C 51.5833 % 3.63 C
1349 14-04-2014 15:00:00 13.20833 C 51.9167 % 3.56 C
1350 14-04-2014 16:00:00 12.89167 C 56.8333 % 4.55 C
Sensor: Nr:Datum:Temp:Feuchte:Taupunkt:
Aussen-T/F 1351 14-04-2014 17:00:00 13.31667 C 52.3333 % 3.77 C
1352 14-04-2014 18:00:00 12.76667 C 51.5000 % 3.03 C
1353 14-04-2014 19:00:00 11.6 C 52.4167 % 2.2 C
1354 14-04-2014 20:00:00 7.96667 C 76.5833 % 4.11 C
1355 14-04-2014 21:00:00 6.58889 C 84.0000 % 4.08 C
1356 14-04-2014 22:00:00 5.9 C 84.2500 % 3.45 C
1357 14-04-2014 23:00:00 5.6 C 87.0000 % 3.61 C
1358 15-04-2014 00:00:00 6.11667 C 84.5000 % 3.71 C
1359 15-04-2014 01:00:00 5.65833 C 83.8333 % 3.14 C
1360 15-04-2014 02:00:00 5.025 C 84.4167 % 2.62 C
1361 15-04-2014 03:00:00 4.64444 C 86.2222 % 2.55 C
1362 15-04-2014 04:00:00 4.04167 C 88.0833 % 2.25 C
1363 15-04-2014 05:00:00 3.91667 C 88.9167 % 2.26 C
1364 15-04-2014 06:00:00 4.125 C 88.7500 % 2.44 C
1365 15-04-2014 07:00:00 4.01667 C 88.9167 % 2.36 C
1366 15-04-2014 08:00:00 4.9 C 86.5000 % 2.84 C
1367 15-04-2014 09:00:00 6.175 C 81.8333 % 3.31 C
1368 15-04-2014 10:00:00 7.16667 C 74.3333 % 2.92 C
1369 15-04-2014 11:00:00 7.175 C 71.3333 % 2.35 C
1370 15-04-2014 12:00:00 7.99167 C 65.4167 % 1.92 C
1371 15-04-2014 13:00:00 9.2 C 59.5000 % 1.73 C
1372 15-04-2014 14:00:00 9.4 C 58.1667 % 1.61 C
1373 15-04-2014 15:00:00 9.44167 C 57.0000 % 1.36 C
1374 15-04-2014 16:00:00 9.55833 C 57.0833 % 1.49 C
1375 15-04-2014 17:00:00 10.09167 C 55.1667 % 1.52 C
Sensor: Nr:Datum:Temp:Feuchte:Taupunkt:
Aussen-T/F 1376 15-04-2014 18:00:00 10.56667 C 60.2222 % 3.19 C
1377 15-04-2014 19:00:00 9.64167 C 76.4167 % 5.7 C
1378 15-04-2014 20:00:00 9.02 C 61.4000 % 2 C
1379 16-04-2014 11:00:00 9.8 C 64.5000 % 3.43 C
1380 16-04-2014 12:00:00 11.3 C 54.5833 % 2.49 C
1381 16-04-2014 13:00:00 13.9 C 46.0833 % 2.51 C
1382 16-04-2014 14:00:00 15.10833 C 42.2500 % 2.39 C
1383 16-04-2014 15:00:00 15.9 C 40.3333 % 2.45 C
1384 16-04-2014 16:00:00 16.69167 C 37.2500 % 2.04 C
1385 16-04-2014 17:00:00 16.81667 C 36.7500 % 1.96 C
1386 16-04-2014 18:00:00 16.64167 C 36.4167 % 1.68 C
1387 16-04-2014 19:00:00 15.75 C 38.8333 % 1.79 C
1388 16-04-2014 20:00:00 11.13333 C 56.1667 % 2.74 C
1389 16-04-2014 21:00:00 8.55 C 63.5000 % 2.03 C
1390 16-04-2014 22:00:00 7.675 C 67.3333 % 2.02 C
1391 16-04-2014 23:00:00 6.725 C 71.4167 % 1.93 C
1392 17-04-2014 00:00:00 5.65 C 75.1667 % 1.61 C
1393 17-04-2014 01:00:00 4.85833 C 78.3333 % 1.41 C
1394 17-04-2014 02:00:00 4.08333 C 80.9167 % 1.11 C
1395 17-04-2014 03:00:00 3.4 C 85.8333 % 1.26 C
1396 17-04-2014 04:00:00 2.60833 C 87.3333 % 0.72 C
1397 17-04-2014 05:00:00 1.88333 C 89.2500 % 0.31 C
1398 17-04-2014 06:00:00 1.5 C 91.0000 % 0.19 C
1399 17-04-2014 07:00:00 1.39167 C 91.9167 % 0.23 C
1400 17-04-2014 08:00:00 2.10833 C 91.7500 % 0.91 C
Sensor: Nr:Datum:Temp:Feuchte:Taupunkt:
Aussen-T/F 1401 17-04-2014 09:00:00 4.18333 C 87.0833 % 2.23 C
1402 17-04-2014 10:00:00 7.04167 C 78.6667 % 3.6 C
1403 17-04-2014 11:00:00 10.525 C 61.0000 % 3.33 C
1404 17-04-2014 12:00:00 13.66667 C 46.5833 % 2.45 C
1405 17-04-2014 13:00:00 15.53333 C 39.5000 % 1.83 C
1406 17-04-2014 14:00:00 16.15833 C 38.2500 % 1.94 C
1407 17-04-2014 15:00:00 16.98333 C 37.4167 % 2.36 C
1408 17-04-2014 16:00:00 18.75833 C 34.0833 % 2.62 C
1409 17-04-2014 17:00:00 19.475 C 31.0833 % 1.96 C
1410 17-04-2014 18:00:00 19.54167 C 32.1667 % 2.5 C
1411 17-04-2014 19:00:00 16.58333 C 45.1667 % 4.67 C
1412 17-04-2014 20:00:00 12.6 C 57.0833 % 4.34 C
1413 17-04-2014 21:00:00 12.46667 C 54.4167 % 3.53 C
1414 17-04-2014 22:00:00 12.91667 C 50.5833 % 2.92 C
1415 17-04-2014 23:00:00 12.55833 C 54.6667 % 3.69 C
1416 18-04-2014 00:00:00 11.76667 C 59.6667 % 4.19 C
1417 18-04-2014 01:00:00 11.38333 C 70.7500 % 6.27 C
1418 18-04-2014 02:00:00 10.95 C 73.8333 % 6.47 C
1419 18-04-2014 03:00:00 11.55833 C 71.9167 % 6.67 C
1420 18-04-2014 04:00:00 10.13333 C 81.3333 % 7.08 C
1421 18-04-2014 05:00:00 8.80833 C 86.5833 % 6.7 C
1422 18-04-2014 06:00:00 8.4 C 87.5833 % 6.46 C
1423 18-04-2014 07:00:00 8.38333 C 84.8333 % 5.98 C
1424 18-04-2014 08:00:00 8.54167 C 80.0833 % 5.31 C
1425 18-04-2014 09:00:00 9.05833 C 71.9167 % 4.27 C
Sensor: Nr:Datum:Temp:Feuchte:Taupunkt:
Aussen-T/F 1426 18-04-2014 10:00:00 9.225 C 71.0833 % 4.27 C
1427 18-04-2014 11:00:00 9.49167 C 71.9167 % 4.69 C
1428 18-04-2014 12:00:00 10.00833 C 70.5000 % 4.9 C
1429 18-04-2014 13:00:00 12.375 C 56.2500 % 3.92 C
1430 18-04-2014 14:00:00 13.325 C 48.5833 % 2.73 C
1431 18-04-2014 15:00:00 13.6 C 43.2500 % 1.35 C
1432 18-04-2014 16:00:00 14.55 C 38.6667 % 0.65 C
1433 18-04-2014 17:00:00 14.13333 C 39.9167 % 0.72 C
1434 18-04-2014 18:00:00 13.90833 C 40.8333 % 0.83 C
1435 18-04-2014 19:00:00 13.19167 C 41.8333 % 0.52 C
1436 18-04-2014 20:00:00 10.21667 C 54.8333 % 1.55 C
1437 18-04-2014 21:00:00 8.725 C 65.1667 % 2.56 C
1438 18-04-2014 22:00:00 8.20833 C 69.8333 % 3.04 C
1439 18-04-2014 23:00:00 7.35 C 75.8333 % 3.38 C
1440 19-04-2014 00:00:00 7.725 C 76.2500 % 3.82 C
1441 19-04-2014 01:00:00 6.825 C 79.2500 % 3.49 C
1442 19-04-2014 02:00:00 5.83333 C 82.8333 % 3.15 C
1443 19-04-2014 03:00:00 5.14167 C 85.5000 % 2.92 C
1444 19-04-2014 04:00:00 5.16667 C 86.3333 % 3.08 C
1445 19-04-2014 05:00:00 4.15833 C 88.5833 % 2.45 C
1446 19-04-2014 06:00:00 4.08333 C 90.5833 % 2.69 C
1447 19-04-2014 07:00:00 4.35833 C 91.0000 % 3.02 C
1448 19-04-2014 08:00:00 4.95833 C 90.0833 % 3.47 C
1449 19-04-2014 09:00:00 6.06667 C 88.4167 % 4.3 C
1450 19-04-2014 10:00:00 8.76667 C 77.5833 % 5.07 C
Sensor: Nr:Datum:Temp:Feuchte:Taupunkt:
Aussen-T/F 1451 19-04-2014 11:00:00 10.48333 C 68.0833 % 4.85 C
1452 19-04-2014 12:00:00 11.96667 C 61.1667 % 4.73 C
1453 19-04-2014 13:00:00 14.75 C 53.8333 % 5.5 C
1454 19-04-2014 14:00:00 16.4 C 50.5833 % 6.13 C
1455 19-04-2014 15:00:00 17.75 C 47.2500 % 6.38 C
1456 19-04-2014 16:00:00 18.675 C 48.5833 % 7.63 C
1457 19-04-2014 17:00:00 18.325 C 51.1667 % 8.07 C
1458 19-04-2014 18:00:00 17.90833 C 54.0833 % 8.5 C
1459 19-04-2014 19:00:00 17.09167 C 57.5833 % 8.66 C
1460 19-04-2014 20:00:00 14.75 C 67.2500 % 8.75 C
1461 19-04-2014 21:00:00 13.825 C 70.9167 % 8.65 C
1462 19-04-2014 22:00:00 12.74167 C 76.8333 % 8.78 C
1463 19-04-2014 23:00:00 11.94167 C 81.8333 % 8.94 C
1464 20-04-2014 00:00:00 11.43333 C 85.5833 % 9.11 C
1465 20-04-2014 01:00:00 11.35 C 87.5833 % 9.37 C
1466 20-04-2014 02:00:00 11.375 C 88.0833 % 9.47 C
1467 20-04-2014 03:00:00 11.19167 C 89.4167 % 9.52 C
1468 20-04-2014 04:00:00 11.23333 C 89.4167 % 9.56 C
1469 20-04-2014 05:00:00 11.025 C 89.5833 % 9.38 C
1470 20-04-2014 06:00:00 10.50833 C 91.6667 % 9.21 C
1471 20-04-2014 07:00:00 10.43333 C 92.7500 % 9.31 C
1472 20-04-2014 08:00:00 11.18889 C 92.3333 % 9.99 C
1473 20-04-2014 09:00:00 12.6 C 87.8333 % 10.64 C
1474 20-04-2014 10:00:00 15.28333 C 73.8333 % 10.65 C
1475 20-04-2014 11:00:00 17.14167 C 65.4167 % 10.61 C
Sensor: Nr:Datum:Temp:Feuchte:Taupunkt:
Aussen-T/F 1476 20-04-2014 12:00:00 18.75833 C 56.5000 % 9.94 C
1477 20-04-2014 13:00:00 20.65 C 48.3333 % 9.36 C
1478 20-04-2014 14:00:00 20.39167 C 47.0000 % 8.71 C
1479 20-04-2014 15:00:00 20.6 C 45.8333 % 8.53 C
1480 20-04-2014 16:00:00 21.6 C 41.6667 % 8.03 C
1481 20-04-2014 17:00:00 21.86667 C 40.5000 % 7.85 C
1482 20-04-2014 18:00:00 19.4 C 49.0833 % 8.45 C
1483 20-04-2014 19:00:00 16.3 C 61.3333 % 8.85 C
1484 20-04-2014 20:00:00 14.39167 C 64.5000 % 7.79 C
1485 20-04-2014 21:00:00 13.40833 C 67.2500 % 7.47 C
1486 20-04-2014 22:00:00 12.96667 C 69.6667 % 7.56 C
1487 20-04-2014 23:00:00 12.00833 C 73.5000 % 7.42 C
1488 21-04-2014 00:00:00 10.99167 C 76.4167 % 7.01 C
1489 21-04-2014 01:00:00 10.09167 C 79.8333 % 6.77 C
1490 21-04-2014 02:00:00 9.73333 C 80.4167 % 6.53 C
1491 21-04-2014 03:00:00 8.88333 C 83.5833 % 6.26 C
1492 21-04-2014 04:00:00 8.46667 C 85.0833 % 6.11 C
1493 21-04-2014 05:00:00 7.54167 C 88.0833 % 5.7 C
1494 21-04-2014 06:00:00 6.76667 C 91.1667 % 5.43 C
1495 21-04-2014 07:00:00 6.45 C 92.8333 % 5.38 C
1496 21-04-2014 08:00:00 7.125 C 94.0000 % 6.23 C
1497 21-04-2014 09:00:00 9.025 C 91.9167 % 7.78 C
1498 21-04-2014 10:00:00 11.71667 C 84.3333 % 9.16 C
1499 21-04-2014 11:00:00 15.35 C 66.6667 % 9.19 C
1500 21-04-2014 12:00:00 17.86667 C 55.5000 % 8.84 C
Sensor: Nr:Datum:Temp:Feuchte:Taupunkt:
Aussen-T/F 1501 21-04-2014 13:00:00 19.8 C 49.5000 % 8.94 C
1502 21-04-2014 14:00:00 18.94167 C 57.5000 % 10.37 C
1503 21-04-2014 15:00:00 18.15833 C 67.5000 % 12.05 C
1504 21-04-2014 16:00:00 19.575 C 55.2500 % 10.36 C
1505 21-04-2014 17:00:00 20.69167 C 48.3333 % 9.4 C
1506 21-04-2014 18:00:00 17.23333 C 62.5833 % 10.03 C
1507 21-04-2014 19:00:00 13.68333 C 81.7500 % 10.62 C
1508 21-04-2014 20:00:00 11.16667 C 93.1667 % 10.1 C
1509 21-04-2014 21:00:00 10.91667 C 94.9167 % 10.13 C
1510 21-04-2014 22:00:00 10.14167 C 95.4167 % 9.44 C
1511 21-04-2014 23:00:00 9.55833 C 96.0000 % 8.95 C
1512 22-04-2014 00:00:00 8.925 C 96.0833 % 8.34 C
1513 22-04-2014 01:00:00 8.79167 C 96.8333 % 8.32 C
1514 22-04-2014 02:00:00 8.81667 C 97.0000 % 8.37 C
1515 22-04-2014 03:00:00 8.575 C 97.0000 % 8.13 C
1516 22-04-2014 04:00:00 8.30833 C 97.0000 % 7.86 C
1517 22-04-2014 05:00:00 8.68333 C 97.4167 % 8.3 C
1518 22-04-2014 06:00:00 8.69167 C 97.0000 % 8.24 C
1519 22-04-2014 07:00:00 9.13333 C 97.7500 % 8.8 C
1520 22-04-2014 08:00:00 10.125 C 97.9167 % 9.81 C
1521 22-04-2014 09:00:00 11.05833 C 94.5833 % 10.22 C
1522 22-04-2014 10:00:00 12.68333 C 87.1667 % 10.61 C
1523 22-04-2014 11:00:00 13.48333 C 83.5833 % 10.76 C
1524 22-04-2014 12:00:00 14.11667 C 81.6667 % 11.03 C
1525 22-04-2014 13:00:00 15.80833 C 78.5000 % 12.08 C
Sensor: Nr:Datum:Temp:Feuchte:Taupunkt:
Aussen-T/F 1526 22-04-2014 14:00:00 17.46667 C 70.8333 % 12.12 C
1527 22-04-2014 15:00:00 17.91667 C 68.8333 % 12.12 C
1528 22-04-2014 16:00:00 18.51667 C 66.8333 % 12.24 C
1529 22-04-2014 17:00:00 18.85 C 65.6667 % 12.29 C
1530 22-04-2014 18:00:00 19.23333 C 62.1667 % 11.82 C
1531 22-04-2014 19:00:00 18.55833 C 65.7500 % 12.03 C
1532 22-04-2014 20:00:00 14.325 C 84.1667 % 11.69 C
1533 22-04-2014 21:00:00 12.59167 C 88.4167 % 10.73 C
1534 22-04-2014 22:00:00 12.05833 C 90.0000 % 10.47 C
1535 22-04-2014 23:00:00 11.16667 C 92.4167 % 9.98 C
1536 23-04-2014 00:00:00 10.3 C 93.9167 % 9.36 C
1537 23-04-2014 01:00:00 9.64167 C 94.9167 % 8.87 C
1538 23-04-2014 02:00:00 9.01667 C 95.2500 % 8.3 C
1539 23-04-2014 03:00:00 8.41667 C 95.9167 % 7.8 C
1540 23-04-2014 04:00:00 7.74167 C 96.0000 % 7.14 C
1541 23-04-2014 05:00:00 7.40833 C 96.0000 % 6.81 C
1542 23-04-2014 06:00:00 7.29167 C 96.5833 % 6.79 C
1543 23-04-2014 07:00:00 7.625 C 97.0000 % 7.18 C
1544 23-04-2014 08:00:00 8.11667 C 97.0000 % 7.67 C
1545 23-04-2014 09:00:00 9.75833 C 96.8333 % 9.28 C
1546 23-04-2014 10:00:00 11.53333 C 94.4167 % 10.67 C
1547 23-04-2014 11:00:00 14.34167 C 87.5000 % 12.3 C
1548 23-04-2014 12:00:00 15.90833 C 86.5833 % 13.67 C
1549 23-04-2014 13:00:00 18.74167 C 68.4167 % 12.81 C
1550 23-04-2014 14:00:00 19.14167 C 67.8333 % 13.06 C
Sensor: Nr:Datum:Temp:Feuchte:Taupunkt:
Aussen-T/F 1551 23-04-2014 15:00:00 19.55 C 62.3333 % 12.16 C
1552 23-04-2014 16:00:00 21.05 C 49.0833 % 9.96 C
1553 23-04-2014 17:00:00 22.55 C 43.5000 % 9.52 C
1554 23-04-2014 18:00:00 22.175 C 46.0000 % 10.02 C
1555 23-04-2014 19:00:00 19.95833 C 56.7500 % 11.12 C
1556 23-04-2014 20:00:00 15.60833 C 75.1667 % 11.23 C
1557 23-04-2014 21:00:00 13.31667 C 79.8333 % 9.91 C
1558 23-04-2014 22:00:00 12.1 C 84.4167 % 9.55 C
1559 23-04-2014 23:00:00 11.25833 C 87.0000 % 9.18 C
1560 24-04-2014 00:00:00 10.83333 C 89.9167 % 9.25 C
1561 24-04-2014 01:00:00 10.96667 C 90.0000 % 9.39 C
1562 24-04-2014 02:00:00 10.58333 C 90.5000 % 9.1 C
1563 24-04-2014 03:00:00 10.04167 C 92.1667 % 8.83 C
1564 24-04-2014 04:00:00 10.23333 C 93.1667 % 9.18 C
1565 24-04-2014 05:00:00 10.25833 C 94.0833 % 9.35 C
1566 24-04-2014 06:00:00 10.49167 C 95.0000 % 9.73 C
1567 24-04-2014 07:00:00 10.7 C 95.9167 % 10.08 C
1568 24-04-2014 08:00:00 11.20833 C 96.0000 % 10.59 C
1569 24-04-2014 09:00:00 12.48333 C 95.4167 % 11.77 C
1570 24-04-2014 10:00:00 14.45833 C 89.6667 % 12.78 C
1571 24-04-2014 11:00:00 16.79167 C 83.2500 % 13.94 C
1572 24-04-2014 12:00:00 19.06667 C 77.4167 % 15.03 C
1573 24-04-2014 13:00:00 22.275 C 64.5833 % 15.28 C
1574 24-04-2014 14:00:00 23.28333 C 48.9167 % 11.95 C
1575 24-04-2014 15:00:00 23.49167 C 46.6667 % 11.43 C
Sensor: Nr:Datum:Temp:Feuchte:Taupunkt:
Aussen-T/F 1576 24-04-2014 16:00:00 24.73333 C 41.9167 % 10.93 C
1577 24-04-2014 17:00:00 23.71667 C 44.9167 % 11.06 C
1578 24-04-2014 18:00:00 20.55833 C 58.0000 % 12.01 C
1579 24-04-2014 19:00:00 17.89167 C 72.5833 % 12.9 C
1580 24-04-2014 20:00:00 15.88333 C 78.5833 % 12.17 C
1581 24-04-2014 21:00:00 14.4 C 82.2500 % 11.41 C
1582 24-04-2014 22:00:00 13.4 C 85.6667 % 11.05 C
1583 24-04-2014 23:00:00 12.45833 C 89.5000 % 10.78 C
1584 25-04-2014 00:00:00 11.80833 C 91.8333 % 10.52 C
1585 25-04-2014 01:00:00 11.45833 C 92.7500 % 10.33 C
1586 25-04-2014 02:00:00 11.1 C 92.8333 % 9.99 C
1587 25-04-2014 03:00:00 10.69167 C 93.4167 % 9.67 C
1588 25-04-2014 04:00:00 10.925 C 93.5000 % 9.92 C
1589 25-04-2014 05:00:00 11.03333 C 93.1667 % 9.97 C
1590 25-04-2014 06:00:00 10.54167 C 94.4167 % 9.68 C
1591 25-04-2014 07:00:00 10.70833 C 95.5000 % 10.02 C
1592 25-04-2014 08:00:00 11.95833 C 95.0833 % 11.2 C
1593 25-04-2014 09:00:00 13.86667 C 89.2500 % 12.13 C
1594 25-04-2014 10:00:00 16.21667 C 79.9167 % 12.75 C
1595 25-04-2014 11:00:00 18.75833 C 71.4167 % 13.48 C
1596 25-04-2014 12:00:00 21.04167 C 62.2500 % 13.55 C
1597 25-04-2014 13:00:00 22.96667 C 54.6667 % 13.35 C
1598 25-04-2014 14:00:00 23.475 C 52.6667 % 13.25 C
1599 25-04-2014 15:00:00 23.99167 C 48.8333 % 12.57 C
1600 25-04-2014 16:00:00 26.625 C 37.2500 % 10.84 C
Sensor: Nr:Datum:Temp:Feuchte:Taupunkt:
Aussen-T/F 1601 25-04-2014 17:00:00 26.08333 C 33.0833 % 8.6 C
1602 25-04-2014 18:00:00 21.55833 C 57.6667 % 12.86 C
1603 25-04-2014 19:00:00 19.58333 C 64.0833 % 12.61 C
1604 25-04-2014 20:00:00 18.575 C 66.0000 % 12.1 C
1605 25-04-2014 21:00:00 17.525 C 68.0000 % 11.56 C
1606 25-04-2014 22:00:00 15.98333 C 74.1667 % 11.39 C
1607 25-04-2014 23:00:00 14.7 C 77.4167 % 10.79 C
1608 26-04-2014 00:00:00 14.85833 C 78.1667 % 11.09 C
1609 26-04-2014 01:00:00 14.475 C 79.8333 % 11.04 C
1610 26-04-2014 02:00:00 14.45 C 80.2500 % 11.09 C
1611 26-04-2014 03:00:00 13.43333 C 83.9167 % 10.77 C
1612 26-04-2014 04:00:00 12.75833 C 86.3333 % 10.54 C
1613 26-04-2014 05:00:00 12.73333 C 86.0833 % 10.47 C
1614 26-04-2014 06:00:00 11.975 C 88.6667 % 10.16 C
1615 26-04-2014 07:00:00 12.23333 C 88.9167 % 10.46 C
1616 26-04-2014 08:00:00 12.96667 C 85.8333 % 10.65 C
1617 26-04-2014 09:00:00 13.95 C 82.4167 % 11.01 C
1618 26-04-2014 10:00:00 15.3 C 76.4167 % 11.18 C
1619 26-04-2014 11:00:00 16.625 C 69.7500 % 11.08 C
1620 26-04-2014 12:00:00 18.125 C 59.6667 % 10.16 C
1621 26-04-2014 13:00:00 19.63333 C 57.1667 % 10.93 C
1622 26-04-2014 14:00:00 20.16667 C 52.0833 % 10.03 C
1623 26-04-2014 15:00:00 20.61667 C 45.5000 % 8.44 C
1624 26-04-2014 16:00:00 18.64167 C 53.0000 % 8.88 C
1625 26-04-2014 17:00:00 17.625 C 64.4167 % 10.84 C
Sensor: Nr:Datum:Temp:Feuchte:Taupunkt:
Aussen-T/F 1626 26-04-2014 18:00:00 16.525 C 69.1667 % 10.86 C
1627 26-04-2014 19:00:00 16.025 C 64.1667 % 9.26 C
1628 26-04-2014 20:00:00 13.83333 C 79.9167 % 10.43 C
1629 26-04-2014 21:00:00 13.075 C 84.0833 % 10.45 C
1630 26-04-2014 22:00:00 12.40833 C 89.0833 % 10.66 C
1631 26-04-2014 23:00:00 12.36667 C 89.4167 % 10.68 C
1632 27-04-2014 00:00:00 12.78333 C 87.5000 % 10.76 C
1633 27-04-2014 01:00:00 12.79167 C 87.9167 % 10.84 C
1634 27-04-2014 02:00:00 12.51667 C 88.5833 % 10.68 C
1635 27-04-2014 03:00:00 12.3 C 90.6667 % 10.82 C
1636 27-04-2014 04:00:00 11.875 C 93.5833 % 10.87 C
1637 27-04-2014 05:00:00 11.46667 C 94.5833 % 10.63 C
1638 27-04-2014 06:00:00 11.15833 C 95.4167 % 10.45 C
1639 27-04-2014 07:00:00 11.01667 C 96.0000 % 10.4 C
1640 27-04-2014 08:00:00 10.93333 C 96.0000 % 10.32 C
1641 27-04-2014 09:00:00 11.23333 C 95.6667 % 10.57 C
1642 27-04-2014 10:00:00 11.95833 C 92.3333 % 10.75 C
1643 27-04-2014 11:00:00 12.88333 C 88.1667 % 10.97 C
1644 27-04-2014 12:00:00 14.19167 C 81.7500 % 11.12 C
1645 27-04-2014 13:00:00 15.43333 C 71.7500 % 10.36 C
1646 27-04-2014 14:00:00 16.23333 C 62.9167 % 9.17 C
1647 27-04-2014 15:00:00 15.70833 C 62.7500 % 8.63 C
1648 27-04-2014 16:00:00 15.35 C 63.1667 % 8.39 C
1649 27-04-2014 17:00:00 15.75833 C 61.2500 % 8.32 C
1650 27-04-2014 18:00:00 17.9 C 50.7500 % 7.56 C
Sensor: Nr:Datum:Temp:Feuchte:Taupunkt:
Aussen-T/F 1651 27-04-2014 19:00:00 16.90833 C 59.6667 % 9.02 C
1652 27-04-2014 20:00:00 13 C 80.7500 % 9.77 C
1653 27-04-2014 21:00:00 10.94167 C 85.6667 % 8.64 C
1654 27-04-2014 22:00:00 9.99167 C 87.0000 % 7.93 C
1655 27-04-2014 23:00:00 9.50833 C 89.3333 % 7.84 C
1656 28-04-2014 00:00:00 9.25 C 91.9167 % 8.01 C
1657 28-04-2014 01:00:00 9.36667 C 91.5833 % 8.07 C
1658 28-04-2014 02:00:00 9.15833 C 91.8333 % 7.9 C
1659 28-04-2014 03:00:00 8.68333 C 93.0000 % 7.62 C
1660 28-04-2014 04:00:00 8.38333 C 93.7500 % 7.44 C
1661 28-04-2014 05:00:00 8.39167 C 94.0000 % 7.48 C
1662 28-04-2014 06:00:00 8.375 C 94.7500 % 7.58 C
1663 28-04-2014 07:00:00 9.03333 C 93.4167 % 8.03 C
1664 28-04-2014 08:00:00 10.01667 C 90.6667 % 8.56 C
1665 28-04-2014 09:00:00 11.275 C 87.0000 % 9.19 C
1666 28-04-2014 10:00:00 12.95 C 79.5833 % 9.51 C
1667 28-04-2014 11:00:00 14.8 C 71.5833 % 9.72 C
1668 28-04-2014 12:00:00 16.15833 C 67.9167 % 10.24 C
1669 28-04-2014 13:00:00 17.10833 C 60.8333 % 9.49 C
1670 28-04-2014 14:00:00 17.01667 C 57.8333 % 8.66 C
1671 28-04-2014 15:00:00 16.89167 C 62.0000 % 9.57 C
1672 28-04-2014 16:00:00 16.95 C 61.4167 % 9.49 C
1673 28-04-2014 17:00:00 17.05833 C 60.5833 % 9.39 C
1674 28-04-2014 18:00:00 16.69167 C 62.8333 % 9.58 C
1675 28-04-2014 19:00:00 15.74167 C 71.2500 % 10.55 C
Sensor: Nr:Datum:Temp:Feuchte:Taupunkt:
Aussen-T/F 1676 28-04-2014 20:00:00 14.36667 C 78.6667 % 10.71 C
1677 28-04-2014 21:00:00 13.48333 C 84.3333 % 10.9 C
1678 28-04-2014 22:00:00 13.2 C 87.3333 % 11.14 C
1679 28-04-2014 23:00:00 12.90833 C 88.8333 % 11.11 C
1680 29-04-2014 00:00:00 12.89167 C 89.9167 % 11.28 C
1681 29-04-2014 01:00:00 12.825 C 90.4167 % 11.3 C
1682 29-04-2014 02:00:00 12.65 C 90.8333 % 11.19 C
1683 29-04-2014 03:00:00 12.46667 C 91.0000 % 11.04 C
1684 29-04-2014 04:00:00 12.34167 C 91.7500 % 11.04 C
1685 29-04-2014 05:00:00 12.275 C 91.2500 % 10.89 C
1686 29-04-2014 06:00:00 12.35833 C 90.4167 % 10.84 C
1687 29-04-2014 07:00:00 12.20833 C 92.3333 % 11 C
1688 29-04-2014 08:00:00 12.01667 C 95.0000 % 11.24 C
1689 29-04-2014 09:00:00 12.225 C 96.0000 % 11.61 C
1690 29-04-2014 10:00:00 12.625 C 95.3333 % 11.9 C
1691 29-04-2014 11:00:00 13.15 C 93.4167 % 12.11 C
1692 29-04-2014 12:00:00 14.06667 C 90.6667 % 12.56 C
1693 29-04-2014 13:00:00 14.71667 C 88.0833 % 12.77 C
1694 29-04-2014 14:00:00 15.38333 C 86.2500 % 13.1 C
1695 29-04-2014 15:00:00 16.35833 C 80.9167 % 13.08 C
1696 29-04-2014 16:00:00 17 C 77.8333 % 13.11 C
1697 29-04-2014 17:00:00 16.18333 C 77.7500 % 12.3 C
1698 29-04-2014 18:00:00 14.775 C 86.3333 % 12.52 C
1699 29-04-2014 19:00:00 13.58333 C 91.7500 % 12.27 C
1700 29-04-2014 20:00:00 13.08333 C 93.3333 % 12.03 C
Sensor: Nr:Datum:Temp:Feuchte:Taupunkt:
Aussen-T/F 1701 29-04-2014 21:00:00 12.58333 C 94.8333 % 11.78 C
1702 29-04-2014 22:00:00 12.45 C 95.9167 % 11.82 C
1703 29-04-2014 23:00:00 12.2 C 96.0000 % 11.58 C
1704 30-04-2014 00:00:00 11.54167 C 96.0000 % 10.93 C
1705 30-04-2014 01:00:00 10.74167 C 96.0833 % 10.14 C
1706 30-04-2014 02:00:00 10.49167 C 97.0000 % 10.04 C
1707 30-04-2014 03:00:00 11.06667 C 97.0000 % 10.61 C
1708 30-04-2014 04:00:00 11.15833 C 97.0000 % 10.7 C
1709 30-04-2014 05:00:00 11.20833 C 97.0000 % 10.75 C
1710 30-04-2014 06:00:00 11.28333 C 97.0000 % 10.82 C
1711 30-04-2014 07:00:00 11.13333 C 97.0000 % 10.68 C
1712 30-04-2014 08:00:00 11.43333 C 96.0000 % 10.82 C
1713 30-04-2014 09:00:00 11.94167 C 93.9167 % 10.99 C
1714 30-04-2014 10:00:00 13.09167 C 90.3333 % 11.55 C
1715 30-04-2014 11:00:00 14.075 C 86.8333 % 11.92 C
1716 30-04-2014 12:00:00 15.20833 C 82.6667 % 12.28 C
1717 30-04-2014 13:00:00 16.54167 C 79.1667 % 12.92 C
1718 30-04-2014 14:00:00 17.93333 C 74.2500 % 13.29 C
1719 30-04-2014 15:00:00 18.93333 C 69.0833 % 13.14 C
1720 30-04-2014 16:00:00 20.19167 C 65.2500 % 13.46 C
1721 30-04-2014 17:00:00 20.925 C 58.8333 % 12.57 C
1722 30-04-2014 18:00:00 20.50833 C 59.2500 % 12.29 C
1723 30-04-2014 19:00:00 19.425 C 64.0833 % 12.46 C
1724 30-04-2014 20:00:00 15.84167 C 81.7500 % 12.73 C
1725 30-04-2014 21:00:00 15.175 C 83.4167 % 12.39 C
Sensor: Nr:Datum:Temp:Feuchte:Taupunkt:
Aussen-T/F 1726 30-04-2014 22:00:00 14.58333 C 86.5000 % 12.36 C
1727 30-04-2014 23:00:00 14.40833 C 88.5833 % 12.55 C
1728 01-05-2014 00:00:00 13.65833 C 92.1667 % 12.41 C
1729 01-05-2014 01:00:00 13.13333 C 94.0000 % 12.19 C
1730 01-05-2014 02:00:00 13.26667 C 93.8333 % 12.3 C
1731 01-05-2014 03:00:00 13.23333 C 93.1667 % 12.15 C
1732 01-05-2014 04:00:00 13.225 C 93.4167 % 12.19 C
1733 01-05-2014 05:00:00 12.93333 C 94.0000 % 11.99 C
1734 01-05-2014 06:00:00 12.64167 C 94.7500 % 11.82 C
1735 01-05-2014 07:00:00 12.58333 C 95.0833 % 11.82 C
1736 01-05-2014 08:00:00 13.28333 C 93.7500 % 12.3 C
1737 01-05-2014 09:00:00 14.24167 C 84.5833 % 11.68 C
1738 01-05-2014 10:00:00 14.89167 C 72.7500 % 10.05 C
1739 01-05-2014 11:00:00 16.81667 C 66.3333 % 10.51 C
1740 01-05-2014 12:00:00 18.34167 C 59.1667 % 10.24 C
1741 01-05-2014 13:00:00 19.74167 C 53.5833 % 10.06 C
1742 01-05-2014 14:00:00 20.06667 C 51.4167 % 9.75 C
1743 01-05-2014 15:00:00 19.01667 C 56.2500 % 10.11 C
1744 01-05-2014 16:00:00 15.56667 C 77.8333 % 11.72 C
1745 01-05-2014 17:00:00 15.58333 C 76.9167 % 11.55 C
1746 01-05-2014 18:00:00 16.15833 C 74.2500 % 11.58 C
1747 01-05-2014 19:00:00 15.33333 C 79.3333 % 11.78 C
1748 01-05-2014 20:00:00 13.975 C 83.9167 % 11.3 C
1749 01-05-2014 21:00:00 12.45 C 88.9167 % 10.67 C
1750 01-05-2014 22:00:00 11.85 C 91.3333 % 10.48 C
Sensor: Nr:Datum:Temp:Feuchte:Taupunkt:
Aussen-T/F 1751 01-05-2014 23:00:00 11.675 C 91.9167 % 10.41 C
1752 02-05-2014 00:00:00 10.96667 C 92.7500 % 9.84 C
1753 02-05-2014 01:00:00 10.20833 C 93.4167 % 9.19 C
1754 02-05-2014 02:00:00 9.625 C 94.9167 % 8.85 C
1755 02-05-2014 03:00:00 9.4 C 95.5000 % 8.72 C
1756 02-05-2014 04:00:00 9.10833 C 95.9167 % 8.49 C
1757 02-05-2014 05:00:00 9.20833 C 96.7500 % 8.72 C
1758 02-05-2014 06:00:00 9.7 C 97.0000 % 9.25 C
1759 02-05-2014 07:00:00 10.16667 C 97.0000 % 9.71 C
1760 02-05-2014 08:00:00 11.05 C 96.0833 % 10.45 C
1761 02-05-2014 09:00:00 12.26667 C 92.5833 % 11.1 C
1762 02-05-2014 10:00:00 13.075 C 89.3333 % 11.36 C
1763 02-05-2014 11:00:00 13.84167 C 85.9167 % 11.53 C
1764 02-05-2014 12:00:00 14.39167 C 83.2500 % 11.59 C
1765 02-05-2014 13:00:00 13.85833 C 83.8333 % 11.17 C
1766 02-05-2014 14:00:00 14.18333 C 80.5000 % 10.88 C
1767 02-05-2014 15:00:00 14.39167 C 76.6667 % 10.35 C
1768 02-05-2014 16:00:00 14.96667 C 72.7500 % 10.12 C
1769 02-05-2014 17:00:00 14.825 C 72.3333 % 9.9 C
1770 02-05-2014 18:00:00 13.20833 C 76.6667 % 9.2 C
1771 02-05-2014 19:00:00 12.075 C 79.3333 % 8.61 C
1772 02-05-2014 20:00:00 11.15833 C 80.8333 % 7.99 C
1773 02-05-2014 21:00:00 10.36667 C 82.3333 % 7.49 C
1774 02-05-2014 22:00:00 9.78333 C 82.6667 % 6.98 C
1775 02-05-2014 23:00:00 9.29167 C 81.8333 % 6.35 C
Sensor: Nr:Datum:Temp:Feuchte:Taupunkt:
Aussen-T/F 1776 03-05-2014 00:00:00 8.875 C 85.3333 % 6.55 C
1777 03-05-2014 01:00:00 8.46667 C 88.0000 % 6.6 C
1778 03-05-2014 02:00:00 8.34167 C 86.0000 % 6.14 C
1779 03-05-2014 03:00:00 7.95 C 84.3333 % 5.47 C
1780 03-05-2014 04:00:00 7.825 C 79.6667 % 4.54 C
1781 03-05-2014 05:00:00 7.54167 C 79.8333 % 4.29 C
1782 03-05-2014 06:00:00 7.08333 C 80.8333 % 4.02 C
1783 03-05-2014 07:00:00 7.31667 C 80.0000 % 4.1 C
1784 03-05-2014 08:00:00 7.95 C 77.8333 % 4.33 C
1785 03-05-2014 09:00:00 8.93333 C 72.3333 % 4.23 C
1786 03-05-2014 10:00:00 10.11667 C 65.8333 % 4.03 C
1787 03-05-2014 11:00:00 11.65 C 56.0833 % 3.2 C
1788 03-05-2014 12:00:00 12.94167 C 48.5833 % 2.38 C
1789 03-05-2014 13:00:00 13.68333 C 43.5000 % 1.51 C
1790 03-05-2014 14:00:00 14.64167 C 40.6667 % 1.44 C
1791 03-05-2014 15:00:00 15.46667 C 38.0000 % 1.23 C
1792 03-05-2014 16:00:00 16.60833 C 34.9167 % 1.07 C
1793 03-05-2014 17:00:00 16.73333 C 32.9167 % 0.36 C
1794 03-05-2014 18:00:00 16.76667 C 31.7500 % -0.1 C
1795 03-05-2014 19:00:00 15.375 C 34.3333 % -0.25 C
1796 03-05-2014 20:00:00 13.21667 C 37.5000 % -0.95 C
1797 03-05-2014 21:00:00 9.76667 C 54.5833 % 1.07 C
1798 03-05-2014 22:00:00 7.875 C 63.4167 % 1.37 C
1799 03-05-2014 23:00:00 7.125 C 67.9167 % 1.61 C
1800 04-05-2014 00:00:00 6.45 C 72.5833 % 1.89 C
Sensor: Nr:Datum:Temp:Feuchte:Taupunkt:
Aussen-T/F 1801 04-05-2014 01:00:00 5.175 C 77.0000 % 1.48 C
1802 04-05-2014 02:00:00 4.20833 C 81.6667 % 1.36 C
1803 04-05-2014 03:00:00 3.55 C 85.4167 % 1.34 C
1804 04-05-2014 04:00:00 2.93333 C 88.0000 % 1.15 C
1805 04-05-2014 05:00:00 2.34167 C 90.1667 % 0.9 C
1806 04-05-2014 06:00:00 1.99167 C 91.8333 % 0.81 C
1807 04-05-2014 07:00:00 2.18333 C 92.6667 % 1.12 C
1808 04-05-2014 08:00:00 3.38333 C 91.6667 % 2.16 C
1809 04-05-2014 09:00:00 5.65 C 87.6667 % 3.77 C
1810 04-05-2014 10:00:00 8.4 C 76.8333 % 4.58 C
1811 04-05-2014 11:00:00 12.33333 C 61.9167 % 5.25 C
1812 04-05-2014 12:00:00 13.99167 C 52.3333 % 4.39 C
1813 04-05-2014 13:00:00 15.15833 C 47.5000 % 4.09 C
1814 04-05-2014 14:00:00 16.475 C 45.0833 % 4.54 C
1815 04-05-2014 15:00:00 17.34167 C 42.7500 % 4.57 C
1816 04-05-2014 16:00:00 17.45 C 41.0000 % 4.07 C
1817 04-05-2014 17:00:00 17.525 C 39.6667 % 3.67 C
1818 04-05-2014 18:00:00 17.45 C 40.0833 % 3.75 C
1819 04-05-2014 19:00:00 16.35 C 43.3333 % 3.87 C
1820 04-05-2014 20:00:00 11.9 C 65.6667 % 5.69 C
1821 04-05-2014 21:00:00 10.26667 C 69.5000 % 4.94 C
1822 04-05-2014 22:00:00 9.35 C 73.3333 % 4.83 C
1823 04-05-2014 23:00:00 8.79167 C 75.7500 % 4.75 C
1824 05-05-2014 00:00:00 8.10833 C 77.1667 % 4.36 C
1825 05-05-2014 01:00:00 7.25833 C 80.2500 % 4.09 C
Sensor: Nr:Datum:Temp:Feuchte:Taupunkt:
Aussen-T/F 1826 05-05-2014 02:00:00 6.48333 C 82.0833 % 3.65 C
1827 05-05-2014 03:00:00 5.58333 C 86.5833 % 3.53 C
1828 05-05-2014 04:00:00 5.1 C 89.2500 % 3.48 C
1829 05-05-2014 05:00:00 4.60833 C 90.8333 % 3.24 C
1830 05-05-2014 06:00:00 4.25 C 92.5000 % 3.15 C
1831 05-05-2014 07:00:00 4.80833 C 93.1667 % 3.8 C
1832 05-05-2014 08:00:00 6.175 C 91.0000 % 4.82 C
1833 05-05-2014 09:00:00 7.8 C 87.7500 % 5.9 C
1834 05-05-2014 10:00:00 10.05833 C 83.2500 % 7.35 C
1835 05-05-2014 11:00:00 14.70833 C 61.7500 % 7.45 C
1836 05-05-2014 12:00:00 17.18333 C 53.0833 % 7.55 C
1837 05-05-2014 13:00:00 18.93333 C 48.4167 % 7.82 C
1838 05-05-2014 14:00:00 20.18333 C 44.2500 % 7.64 C
1839 05-05-2014 15:00:00 20.975 C 42.0833 % 7.62 C
1840 05-05-2014 16:00:00 21.81667 C 38.1667 % 6.94 C
1841 05-05-2014 17:00:00 22.21667 C 35.8333 % 6.38 C
1842 05-05-2014 18:00:00 21.79167 C 37.8333 % 6.79 C
1843 05-05-2014 19:00:00 20.00833 C 43.2500 % 7.14 C
1844 05-05-2014 20:00:00 15.925 C 59.5833 % 8.07 C
1845 05-05-2014 21:00:00 13.4 C 66.5833 % 7.31 C
1846 05-05-2014 22:00:00 12.74167 C 68.2500 % 7.05 C
1847 05-05-2014 23:00:00 12.3 C 68.3333 % 6.64 C
1848 06-05-2014 00:00:00 11.73333 C 68.9167 % 6.22 C
1849 06-05-2014 01:00:00 10.05833 C 73.7500 % 5.59 C
1850 06-05-2014 02:00:00 8.775 C 80.1667 % 5.55 C
Sensor: Nr:Datum:Temp:Feuchte:Taupunkt:
Aussen-T/F 1851 06-05-2014 03:00:00 7.86667 C 83.3333 % 5.22 C
1852 06-05-2014 04:00:00 7.20833 C 86.5833 % 5.12 C
1853 06-05-2014 05:00:00 7 C 88.9167 % 5.3 C
1854 06-05-2014 06:00:00 6.7 C 91.0000 % 5.34 C
1855 06-05-2014 07:00:00 7.55 C 90.6667 % 6.12 C
1856 06-05-2014 08:00:00 9.56667 C 84.7500 % 7.13 C
1857 06-05-2014 09:00:00 12.09167 C 77.7500 % 8.33 C
1858 06-05-2014 10:00:00 13.95 C 72.9167 % 9.18 C
1859 06-05-2014 11:00:00 15.5 C 68.8333 % 9.81 C
1860 06-05-2014 12:00:00 16.83333 C 67.2500 % 10.73 C
1861 06-05-2014 13:00:00 17.4 C 63.1667 % 10.33 C
1862 06-05-2014 14:00:00 16.93333 C 72.4167 % 11.94 C
1863 06-05-2014 15:00:00 19.71667 C 60.6667 % 11.91 C
1864 06-05-2014 16:00:00 19.45833 C 58.8333 % 11.2 C
1865 06-05-2014 17:00:00 19.60833 C 60.1667 % 11.68 C
1866 06-05-2014 18:00:00 19.49167 C 59.9167 % 11.51 C
1867 06-05-2014 19:00:00 18.83333 C 63.6667 % 11.8 C
1868 06-05-2014 20:00:00 17.14167 C 71.1667 % 11.88 C
1869 06-05-2014 21:00:00 16.2 C 76.7500 % 12.12 C
1870 06-05-2014 22:00:00 14.45 C 83.7500 % 11.74 C
1871 06-05-2014 23:00:00 15.23333 C 77.3333 % 11.3 C
1872 07-05-2014 00:00:00 14.51667 C 79.4167 % 11 C
1873 07-05-2014 01:00:00 13.49167 C 85.6667 % 11.14 C
1874 07-05-2014 02:00:00 12.36667 C 91.0000 % 10.94 C
1875 07-05-2014 03:00:00 11.74167 C 93.0000 % 10.65 C
Sensor: Nr:Datum:Temp:Feuchte:Taupunkt:
Aussen-T/F 1876 07-05-2014 04:00:00 11.55833 C 93.7500 % 10.59 C
1877 07-05-2014 05:00:00 11.31667 C 94.4167 % 10.45 C
1878 07-05-2014 06:00:00 11.45 C 95.2500 % 10.72 C
1879 07-05-2014 07:00:00 11.81667 C 95.1667 % 11.07 C
1880 07-05-2014 08:00:00 12.25 C 91.5833 % 10.92 C
1881 07-05-2014 09:00:00 12.74167 C 83.8333 % 10.08 C
1882 07-05-2014 10:00:00 13.675 C 73.2500 % 8.98 C
1883 07-05-2014 11:00:00 14.81667 C 67.2500 % 8.81 C
1884 07-05-2014 12:00:00 15.05833 C 66.6667 % 8.91 C
1885 07-05-2014 13:00:00 15.29167 C 72.1667 % 10.31 C
1886 07-05-2014 14:00:00 15.125 C 76.5000 % 11.03 C
1887 07-05-2014 15:00:00 14.78333 C 83.0000 % 11.93 C
1888 07-05-2014 16:00:00 14.81667 C 81.6667 % 11.71 C
1889 07-05-2014 17:00:00 12.525 C 88.8333 % 10.73 C
1890 07-05-2014 18:00:00 14.93333 C 83.9167 % 12.24 C
1891 07-05-2014 19:00:00 14.325 C 82.5000 % 11.39 C
1892 07-05-2014 20:00:00 12.65833 C 86.6667 % 10.5 C
1893 07-05-2014 21:00:00 11.00833 C 90.0000 % 9.43 C
1894 07-05-2014 22:00:00 10.95 C 91.0000 % 9.54 C
1895 07-05-2014 23:00:00 10.16667 C 93.3333 % 9.14 C
1896 08-05-2014 00:00:00 10.48333 C 93.9167 % 9.55 C
1897 08-05-2014 01:00:00 9.825 C 94.5000 % 8.98 C
1898 08-05-2014 02:00:00 9.45833 C 95.7500 % 8.81 C
1899 08-05-2014 03:00:00 9.08333 C 95.9167 % 8.47 C
1900 08-05-2014 04:00:00 9.2 C 96.2500 % 8.63 C
Sensor: Nr:Datum:Temp:Feuchte:Taupunkt:
Aussen-T/F 1901 08-05-2014 05:00:00 9.94167 C 94.3333 % 9.07 C
1902 08-05-2014 06:00:00 10.36667 C 90.0833 % 8.81 C
1903 08-05-2014 07:00:00 11.075 C 86.1667 % 8.85 C
1904 08-05-2014 08:00:00 11.96667 C 82.8333 % 9.14 C
1905 08-05-2014 09:00:00 12.35833 C 80.0833 % 9.03 C
1906 08-05-2014 10:00:00 13.03333 C 77.4167 % 9.18 C
1907 08-05-2014 11:00:00 14.51667 C 70.7500 % 9.27 C
1908 08-05-2014 12:00:00 14.55833 C 71.0000 % 9.37 C
1909 08-05-2014 13:00:00 15.50833 C 66.8333 % 9.38 C
1910 08-05-2014 14:00:00 15.83333 C 63.0000 % 8.81 C
1911 08-05-2014 15:00:00 16.025 C 63.1667 % 9.03 C
1912 08-05-2014 16:00:00 14.8 C 73.5000 % 10.11 C
1913 08-05-2014 17:00:00 12.75833 C 87.2500 % 10.69 C
1914 08-05-2014 18:00:00 12.18333 C 93.5000 % 11.17 C
1915 08-05-2014 19:00:00 12.23333 C 93.0000 % 11.14 C
1916 08-05-2014 20:00:00 12.55 C 90.0833 % 10.97 C
1917 08-05-2014 21:00:00 12.38333 C 91.0000 % 10.96 C
1918 08-05-2014 22:00:00 12.74167 C 90.3333 % 11.2 C
1919 08-05-2014 23:00:00 13 C 90.0833 % 11.41 C
1920 09-05-2014 00:00:00 13.54167 C 88.0000 % 11.59 C
1921 09-05-2014 01:00:00 13.63333 C 88.0000 % 11.68 C
1922 09-05-2014 02:00:00 13.74167 C 87.9167 % 11.78 C
1923 09-05-2014 03:00:00 13.84167 C 88.9167 % 12.05 C
1924 09-05-2014 04:00:00 13.38333 C 91.1667 % 11.97 C
1925 09-05-2014 05:00:00 13.14167 C 91.6667 % 11.82 C
Sensor: Nr:Datum:Temp:Feuchte:Taupunkt:
Aussen-T/F 1926 09-05-2014 06:00:00 13.05 C 91.9167 % 11.77 C
1927 09-05-2014 07:00:00 13.84167 C 86.2500 % 11.59 C
1928 09-05-2014 08:00:00 14.85 C 83.5000 % 12.08 C
1929 09-05-2014 09:00:00 15.48333 C 77.2500 % 11.52 C
1930 09-05-2014 10:00:00 16.14167 C 69.2500 % 10.51 C
1931 09-05-2014 11:00:00 17.19167 C 59.6667 % 9.28 C
1932 09-05-2014 12:00:00 17.7 C 56.9167 % 9.06 C
1933 09-05-2014 13:00:00 18.29167 C 55.0833 % 9.13 C
1934 09-05-2014 14:00:00 17.65 C 51.3333 % 7.49 C
1935 09-05-2014 15:00:00 17.2 C 52.8333 % 7.5 C
1936 09-05-2014 16:00:00 17.60833 C 53.5000 % 8.06 C
1937 09-05-2014 17:00:00 18.3 C 50.0000 % 7.71 C
1938 09-05-2014 18:00:00 17.76667 C 50.6667 % 7.41 C
1939 09-05-2014 19:00:00 17.3 C 49.3333 % 6.59 C
1940 09-05-2014 20:00:00 15.33333 C 62.0000 % 8.1 C
1941 09-05-2014 21:00:00 13.33333 C 73.6667 % 8.73 C
1942 09-05-2014 22:00:00 12.825 C 76.0000 % 8.7 C
1943 09-05-2014 23:00:00 12.86667 C 71.1667 % 7.78 C
1944 10-05-2014 00:00:00 11.96667 C 73.0000 % 7.28 C
1945 10-05-2014 01:00:00 10.95 C 74.9167 % 6.68 C
1946 10-05-2014 02:00:00 10.275 C 76.4167 % 6.32 C
1947 10-05-2014 03:00:00 10.29167 C 76.5833 % 6.36 C
1948 10-05-2014 04:00:00 10.06667 C 79.5000 % 6.69 C
1949 10-05-2014 05:00:00 10.35833 C 80.3333 % 7.12 C
1950 10-05-2014 06:00:00 10.30833 C 82.2500 % 7.42 C
Sensor: Nr:Datum:Temp:Feuchte:Taupunkt:
Aussen-T/F 1951 10-05-2014 07:00:00 10.71667 C 82.4167 % 7.85 C
1952 10-05-2014 08:00:00 11.79167 C 79.1667 % 8.3 C
1953 10-05-2014 09:00:00 12.5 C 76.9167 % 8.57 C
1954 10-05-2014 10:00:00 12.85 C 83.8333 % 10.19 C
1955 10-05-2014 11:00:00 13.24167 C 87.0833 % 11.14 C
1956 10-05-2014 12:00:00 15.15833 C 78.6667 % 11.48 C
1957 10-05-2014 13:00:00 15.64167 C 69.8333 % 10.16 C
1958 10-05-2014 14:00:00 14.04167 C 77.8333 % 10.24 C
1959 10-05-2014 15:00:00 13.79167 C 84.6667 % 11.26 C
1960 10-05-2014 16:00:00 14.38333 C 80.6667 % 11.11 C
1961 10-05-2014 17:00:00 14.20833 C 81.2500 % 11.04 C
1962 10-05-2014 18:00:00 13.70833 C 81.8333 % 10.66 C
1963 10-05-2014 19:00:00 13.49167 C 86.0833 % 11.21 C
1964 10-05-2014 20:00:00 13.43333 C 90.0833 % 11.84 C
1965 10-05-2014 21:00:00 13.35833 C 90.3333 % 11.81 C
1966 10-05-2014 22:00:00 10.95833 C 91.4167 % 9.62 C
1967 10-05-2014 23:00:00 10.325 C 94.5833 % 9.49 C
1968 11-05-2014 00:00:00 10.34167 C 95.0000 % 9.58 C
1969 11-05-2014 01:00:00 9.76667 C 95.0833 % 9.02 C
1970 11-05-2014 02:00:00 9.38333 C 94.0833 % 8.48 C
1971 11-05-2014 03:00:00 8.475 C 93.5000 % 7.49 C
1972 11-05-2014 04:00:00 8.70833 C 91.7500 % 7.44 C
1973 11-05-2014 05:00:00 9.19167 C 84.6667 % 6.75 C
1974 11-05-2014 06:00:00 9.16667 C 85.1667 % 6.81 C
1975 11-05-2014 07:00:00 9.88333 C 82.0000 % 6.96 C
Sensor: Nr:Datum:Temp:Feuchte:Taupunkt:
Aussen-T/F 1976 11-05-2014 08:00:00 10.55833 C 79.7500 % 7.21 C
1977 11-05-2014 09:00:00 11.375 C 76.5833 % 7.41 C
1978 11-05-2014 10:00:00 12.53333 C 69.6667 % 7.15 C
1979 11-05-2014 11:00:00 12.325 C 75.5000 % 8.12 C
1980 11-05-2014 12:00:00 11.86667 C 85.3333 % 9.49 C
1981 11-05-2014 13:00:00 13.78333 C 72.5000 % 8.93 C
1982 11-05-2014 14:00:00 12.24167 C 80.4167 % 8.97 C
1983 11-05-2014 15:00:00 15.05 C 68.5833 % 9.32 C
1984 11-05-2014 16:00:00 14.075 C 72.6667 % 9.25 C
1985 11-05-2014 17:00:00 14.25833 C 71.2500 % 9.13 C
1986 11-05-2014 18:00:00 14.29167 C 64.2500 % 7.64 C
1987 11-05-2014 19:00:00 13.44167 C 68.5000 % 7.77 C
1988 11-05-2014 20:00:00 11.43333 C 79.1667 % 7.96 C
1989 11-05-2014 21:00:00 11.01667 C 81.8333 % 8.04 C
1990 11-05-2014 22:00:00 10.85 C 83.6667 % 8.2 C
1991 11-05-2014 23:00:00 10.96667 C 73.0833 % 6.34 C
1992 12-05-2014 00:00:00 10.84167 C 71.7500 % 5.95 C
1993 12-05-2014 01:00:00 9.975 C 77.0000 % 6.14 C
1994 12-05-2014 02:00:00 9.56667 C 77.8333 % 5.9 C
1995 12-05-2014 03:00:00 8.975 C 81.8333 % 6.04 C
1996 12-05-2014 04:00:00 8.49167 C 84.4167 % 6.02 C
1997 12-05-2014 05:00:00 8.525 C 83.0833 % 5.82 C
1998 12-05-2014 06:00:00 8.39167 C 83.5000 % 5.76 C
1999 12-05-2014 07:00:00 9.10833 C 81.1667 % 6.06 C
2000 12-05-2014 08:00:00 9.95833 C 78.6667 % 6.43 C
Sensor: Nr:Datum:Temp:Feuchte:Taupunkt:
Aussen-T/F 2001 12-05-2014 09:00:00 10.68333 C 76.1667 % 6.66 C
2002 12-05-2014 10:00:00 11.24167 C 76.6667 % 7.3 C
2003 12-05-2014 11:00:00 12.11667 C 71.7500 % 7.18 C
2004 12-05-2014 12:00:00 13.475 C 66.1667 % 7.29 C
2005 12-05-2014 13:00:00 13.43333 C 69.0833 % 7.88 C
2006 12-05-2014 14:00:00 13.48333 C 68.6667 % 7.84 C
2007 12-05-2014 15:00:00 14.31667 C 63.8333 % 7.57 C
2008 12-05-2014 16:00:00 15.29167 C 60.0833 % 7.6 C
2009 12-05-2014 17:00:00 13.66667 C 63.5833 % 6.89 C
2010 12-05-2014 18:00:00 11.925 C 71.2500 % 6.89 C
2011 12-05-2014 19:00:00 12.43333 C 72.4167 % 7.62 C
2012 12-05-2014 20:00:00 11.3 C 81.9167 % 8.33 C
2013 12-05-2014 21:00:00 11.11667 C 77.4167 % 7.32 C
2014 12-05-2014 22:00:00 10.675 C 77.2500 % 6.86 C
2015 12-05-2014 23:00:00 9.66667 C 82.5000 % 6.84 C
2016 13-05-2014 00:00:00 9.35833 C 83.8333 % 6.77 C
2017 13-05-2014 01:00:00 9.76667 C 81.2500 % 6.71 C
2018 13-05-2014 02:00:00 9.425 C 84.7500 % 6.99 C
2019 13-05-2014 03:00:00 8.9 C 88.7500 % 7.15 C
2020 13-05-2014 04:00:00 8.66667 C 88.4167 % 6.86 C
2021 13-05-2014 05:00:00 8.69167 C 87.3333 % 6.71 C
2022 13-05-2014 06:00:00 8.675 C 85.8333 % 6.44 C
2023 13-05-2014 07:00:00 8.4 C 87.2500 % 6.41 C
2024 13-05-2014 08:00:00 9.74167 C 84.2500 % 7.22 C
2025 13-05-2014 09:00:00 10.96667 C 79.1667 % 7.5 C
Sensor: Nr:Datum:Temp:Feuchte:Taupunkt:
Aussen-T/F 2026 13-05-2014 10:00:00 11.35833 C 77.3333 % 7.54 C
2027 13-05-2014 11:00:00 12.55833 C 74.0833 % 8.07 C
2028 13-05-2014 12:00:00 12.9 C 73.4167 % 8.27 C
2029 13-05-2014 13:00:00 11.40833 C 87.5833 % 9.42 C
2030 13-05-2014 14:00:00 11.53333 C 80.3333 % 8.27 C
2031 13-05-2014 15:00:00 10.825 C 88.4167 % 8.99 C
2032 13-05-2014 16:00:00 12.275 C 80.5000 % 9.02 C
2033 13-05-2014 17:00:00 10.575 C 90.6667 % 9.11 C
2034 13-05-2014 18:00:00 11.65 C 85.8333 % 9.36 C
2035 13-05-2014 19:00:00 11.64167 C 86.8333 % 9.52 C
2036 13-05-2014 20:00:00 10.575 C 88.9167 % 8.83 C
2037 13-05-2014 21:00:00 9.525 C 93.4167 % 8.52 C
2038 13-05-2014 22:00:00 9.09167 C 94.9167 % 8.32 C
2039 13-05-2014 23:00:00 8.86667 C 95.0000 % 8.11 C
2040 14-05-2014 00:00:00 8.5 C 94.6667 % 7.69 C
2041 14-05-2014 01:00:00 7.91667 C 94.0000 % 7.01 C
2042 14-05-2014 02:00:00 7.25 C 93.0000 % 6.2 C
2043 14-05-2014 03:00:00 6.30833 C 93.8333 % 5.39 C
2044 14-05-2014 04:00:00 5.30833 C 94.9167 % 4.56 C
2045 14-05-2014 05:00:00 4.775 C 95.8333 % 4.17 C
2046 14-05-2014 06:00:00 5.01667 C 96.0833 % 4.45 C
2047 14-05-2014 07:00:00 5.275 C 96.3333 % 4.74 C
2048 14-05-2014 08:00:00 6.84167 C 94.6667 % 6.05 C
2049 14-05-2014 09:00:00 8.90833 C 86.5833 % 6.8 C
2050 14-05-2014 10:00:00 10.875 C 76.5833 % 6.93 C
Sensor: Nr:Datum:Temp:Feuchte:Taupunkt:
Aussen-T/F 2051 14-05-2014 11:00:00 12.11667 C 68.4167 % 6.49 C
2052 14-05-2014 12:00:00 14.19167 C 59.5000 % 6.43 C
2053 14-05-2014 13:00:00 15.11667 C 56.4167 % 6.52 C
2054 14-05-2014 14:00:00 15.94167 C 51.3333 % 5.92 C
2055 14-05-2014 15:00:00 16.69167 C 48.5833 % 5.81 C
2056 14-05-2014 16:00:00 16.75 C 46.6667 % 5.29 C
2057 14-05-2014 17:00:00 17.25 C 45.7500 % 5.46 C
2058 14-05-2014 18:00:00 14.26667 C 63.7500 % 7.5 C
2059 14-05-2014 19:00:00 13.35833 C 67.4167 % 7.46 C
2060 14-05-2014 20:00:00 12.4 C 70.7500 % 7.24 C
2061 14-05-2014 21:00:00 10.85 C 79.8333 % 7.51 C
2062 14-05-2014 22:00:00 9.7 C 85.9167 % 7.46 C
2063 14-05-2014 23:00:00 9.64167 C 86.0000 % 7.42 C
2064 15-05-2014 00:00:00 9.175 C 87.5833 % 7.23 C
2065 15-05-2014 01:00:00 8.45 C 89.9167 % 6.89 C
2066 15-05-2014 02:00:00 8.23333 C 90.5000 % 6.77 C
2067 15-05-2014 03:00:00 7.65 C 91.2500 % 6.32 C
2068 15-05-2014 04:00:00 7.40833 C 89.2500 % 5.76 C
2069 15-05-2014 05:00:00 6.05833 C 92.0833 % 4.87 C
2070 15-05-2014 06:00:00 6.08333 C 94.0000 % 5.19 C
2071 15-05-2014 07:00:00 7.01667 C 91.6667 % 5.76 C
2072 15-05-2014 08:00:00 7.80833 C 87.0000 % 5.78 C
2073 15-05-2014 09:00:00 8.29167 C 83.3333 % 5.64 C
2074 15-05-2014 10:00:00 9.625 C 78.5000 % 6.08 C
2075 15-05-2014 11:00:00 10.525 C 73.1667 % 5.93 C
Sensor: Nr:Datum:Temp:Feuchte:Taupunkt:
Aussen-T/F 2076 15-05-2014 12:00:00 10.65 C 75.0833 % 6.42 C
2077 15-05-2014 13:00:00 11.49167 C 72.5000 % 6.73 C
2078 15-05-2014 14:00:00 12.6 C 69.2500 % 7.12 C
2079 15-05-2014 15:00:00 12.95833 C 68.0000 % 7.2 C
2080 15-05-2014 16:00:00 13.16667 C 68.5000 % 7.51 C
2081 15-05-2014 17:00:00 13.25833 C 66.8333 % 7.23 C
2082 15-05-2014 18:00:00 12.76667 C 70.5833 % 7.56 C
2083 15-05-2014 19:00:00 12.44167 C 71.8333 % 7.51 C
2084 15-05-2014 20:00:00 12.05 C 73.9167 % 7.55 C
2085 15-05-2014 21:00:00 11.325 C 79.0000 % 7.82 C
2086 15-05-2014 22:00:00 10.8 C 82.3333 % 7.91 C
2087 15-05-2014 23:00:00 10.25833 C 85.3333 % 7.91 C
2088 16-05-2014 00:00:00 9.525 C 88.2500 % 7.68 C
2089 16-05-2014 01:00:00 9.2 C 89.1667 % 7.51 C
2090 16-05-2014 02:00:00 8.50833 C 89.7500 % 6.92 C
2091 16-05-2014 03:00:00 7.85833 C 92.1667 % 6.67 C
2092 16-05-2014 04:00:00 7.85 C 91.9167 % 6.62 C
2093 16-05-2014 05:00:00 7.65833 C 92.2500 % 6.48 C
2094 16-05-2014 06:00:00 7.63333 C 92.0833 % 6.43 C
2095 16-05-2014 07:00:00 7.875 C 92.0833 % 6.67 C
2096 16-05-2014 08:00:00 9.15 C 89.6667 % 7.54 C
2097 16-05-2014 09:00:00 10.39167 C 85.0833 % 8 C
2098 16-05-2014 10:00:00 12.65 C 77.2500 % 8.78 C
2099 16-05-2014 11:00:00 15.675 C 67.0000 % 9.57 C
2100 16-05-2014 12:00:00 17.59167 C 56.3333 % 8.81 C
Sensor: Nr:Datum:Temp:Feuchte:Taupunkt:
Aussen-T/F 2101 16-05-2014 13:00:00 18.90833 C 50.4167 % 8.39 C
2102 16-05-2014 14:00:00 19.21667 C 48.2500 % 8.03 C
2103 16-05-2014 15:00:00 19.35 C 46.7500 % 7.68 C
2104 16-05-2014 16:00:00 19.8 C 44.1667 % 7.26 C
2105 16-05-2014 17:00:00 20.91667 C 42.5833 % 7.74 C
2106 16-05-2014 18:00:00 20.55833 C 43.5000 % 7.72 C
2107 16-05-2014 19:00:00 17.39167 C 61.5000 % 9.92 C
2108 16-05-2014 20:00:00 14.4 C 78.6667 % 10.74 C
2109 16-05-2014 21:00:00 13.4 C 76.2500 % 9.31 C
2110 16-05-2014 22:00:00 11.60833 C 79.0000 % 8.09 C
2111 16-05-2014 23:00:00 10.96667 C 80.9167 % 7.82 C
2112 17-05-2014 00:00:00 10.16667 C 83.3333 % 7.47 C
2113 17-05-2014 01:00:00 9.25 C 86.5000 % 7.12 C
2114 17-05-2014 02:00:00 8.325 C 89.3333 % 6.68 C
2115 17-05-2014 03:00:00 7.64167 C 91.3333 % 6.32 C
2116 17-05-2014 04:00:00 7.1 C 92.5000 % 5.97 C
2117 17-05-2014 05:00:00 6.64167 C 93.5833 % 5.68 C
2118 17-05-2014 06:00:00 6.5 C 94.0000 % 5.61 C
2119 17-05-2014 07:00:00 6.89167 C 94.6667 % 6.1 C
2120 17-05-2014 08:00:00 9.15 C 90.5000 % 7.68 C
2121 17-05-2014 09:00:00 10.75 C 86.2500 % 8.55 C
2122 17-05-2014 10:00:00 13.925 C 73.9167 % 9.35 C
2123 17-05-2014 11:00:00 17 C 61.0833 % 9.45 C
2124 17-05-2014 12:00:00 18.43333 C 54.7500 % 9.17 C
2125 17-05-2014 13:00:00 19.74167 C 52.2500 % 9.69 C
Sensor: Nr:Datum:Temp:Feuchte:Taupunkt:
Aussen-T/F 2126 17-05-2014 14:00:00 19.61667 C 51.1667 % 9.26 C
2127 17-05-2014 15:00:00 20.39167 C 49.6667 % 9.53 C
2128 17-05-2014 16:00:00 22.03333 C 47.0000 % 10.21 C
2129 17-05-2014 17:00:00 21.19167 C 49.4167 % 10.19 C
2130 17-05-2014 18:00:00 20.46667 C 52.7500 % 10.5 C
2131 17-05-2014 19:00:00 20.01667 C 55.5833 % 10.87 C
2132 17-05-2014 20:00:00 19.31667 C 57.5000 % 10.72 C
2133 17-05-2014 21:00:00 17.65833 C 63.7500 % 10.71 C
2134 17-05-2014 22:00:00 15.58333 C 72.8333 % 10.73 C
2135 17-05-2014 23:00:00 13.55833 C 78.3333 % 9.86 C
2136 18-05-2014 00:00:00 12.31667 C 81.6667 % 9.27 C
2137 18-05-2014 01:00:00 11.25833 C 84.8333 % 8.8 C
2138 18-05-2014 02:00:00 10.56667 C 88.8333 % 8.8 C
2139 18-05-2014 03:00:00 10.4 C 90.0000 % 8.83 C
2140 18-05-2014 04:00:00 9.5 C 91.8333 % 8.24 C
2141 18-05-2014 05:00:00 8.73333 C 93.6667 % 7.77 C
2142 18-05-2014 06:00:00 8.51667 C 94.6667 % 7.71 C
2143 18-05-2014 07:00:00 8.99167 C 95.0000 % 8.23 C
2144 18-05-2014 08:00:00 11.325 C 90.3333 % 9.8 C
2145 18-05-2014 09:00:00 12.55 C 87.9167 % 10.6 C
2146 18-05-2014 10:00:00 16.025 C 76.7500 % 11.95 C
2147 18-05-2014 11:00:00 18.725 C 65.0000 % 12.02 C
2148 18-05-2014 12:00:00 19.975 C 57.8333 % 11.42 C
2149 18-05-2014 13:00:00 21.475 C 53.9167 % 11.76 C
2150 18-05-2014 14:00:00 22.1 C 49.7500 % 11.12 C
Sensor: Nr:Datum:Temp:Feuchte:Taupunkt:
Aussen-T/F 2151 18-05-2014 15:00:00 22.5 C 47.0833 % 10.66 C
2152 18-05-2014 16:00:00 22.06667 C 48.9167 % 10.84 C
2153 18-05-2014 17:00:00 21.51667 C 52.6667 % 11.44 C
2154 18-05-2014 18:00:00 20.65833 C 59.9167 % 12.6 C
2155 18-05-2014 19:00:00 20.34167 C 62.5833 % 12.97 C
2156 18-05-2014 20:00:00 18 C 72.8333 % 13.06 C
2157 18-05-2014 21:00:00 15.90833 C 77.1667 % 11.92 C
2158 18-05-2014 22:00:00 14.475 C 78.4167 % 10.77 C
2159 18-05-2014 23:00:00 13.61667 C 81.6667 % 10.54 C
2160 19-05-2014 00:00:00 12.725 C 84.8333 % 10.24 C
2161 19-05-2014 01:00:00 12.51667 C 86.5833 % 10.34 C
2162 19-05-2014 02:00:00 11.70833 C 89.0833 % 9.97 C
2163 19-05-2014 03:00:00 11.08333 C 91.0000 % 9.67 C
2164 19-05-2014 04:00:00 10.46667 C 92.2500 % 9.26 C
2165 19-05-2014 05:00:00 9.85833 C 93.5000 % 8.86 C
2166 19-05-2014 06:00:00 9.525 C 94.6667 % 8.71 C
2167 19-05-2014 07:00:00 9.875 C 95.0833 % 9.13 C
2168 19-05-2014 08:00:00 12.1 C 91.1667 % 10.7 C
2169 19-05-2014 09:00:00 13.45833 C 89.1667 % 11.71 C
2170 19-05-2014 10:00:00 16.75833 C 81.0000 % 13.48 C
2171 19-05-2014 11:00:00 21.55 C 60.3333 % 13.54 C
2172 19-05-2014 12:00:00 23.2 C 53.7500 % 13.31 C
2173 19-05-2014 13:00:00 22.89167 C 56.0000 % 13.65 C
2174 19-05-2014 14:00:00 23.06667 C 55.9167 % 13.79 C
2175 19-05-2014 15:00:00 23.99167 C 50.9167 % 13.21 C
Sensor: Nr:Datum:Temp:Feuchte:Taupunkt:
Aussen-T/F 2176 19-05-2014 16:00:00 26.175 C 40.0833 % 11.55 C
2177 19-05-2014 17:00:00 27.46667 C 32.5000 % 9.54 C
2178 19-05-2014 18:00:00 27.44167 C 33.5000 % 9.97 C
2179 19-05-2014 19:00:00 25.81667 C 38.1667 % 10.49 C
2180 19-05-2014 20:00:00 21.14167 C 59.3333 % 12.9 C
2181 19-05-2014 21:00:00 17.7 C 72.3333 % 12.66 C
2182 19-05-2014 22:00:00 16.20833 C 74.5000 % 11.67 C
2183 19-05-2014 23:00:00 15 C 81.0000 % 11.77 C
2184 20-05-2014 00:00:00 13.925 C 85.5833 % 11.55 C
2185 20-05-2014 01:00:00 12.89167 C 88.6667 % 11.07 C
2186 20-05-2014 02:00:00 12.88333 C 90.5000 % 11.37 C
2187 20-05-2014 03:00:00 12.55833 C 91.0000 % 11.13 C
2188 20-05-2014 04:00:00 11.875 C 92.2500 % 10.66 C
2189 20-05-2014 05:00:00 11.69167 C 93.5000 % 10.68 C
2190 20-05-2014 06:00:00 12.15 C 93.6667 % 11.16 C
2191 20-05-2014 07:00:00 13.25833 C 90.5000 % 11.74 C
2192 20-05-2014 08:00:00 14.85833 C 85.5833 % 12.47 C
2193 20-05-2014 09:00:00 16.98333 C 78.1667 % 13.16 C
2194 20-05-2014 10:00:00 20.11667 C 69.4167 % 14.35 C
2195 20-05-2014 11:00:00 22.71667 C 56.5000 % 13.63 C
2196 20-05-2014 12:00:00 24.49167 C 48.6667 % 12.98 C
2197 20-05-2014 13:00:00 26 C 43.1667 % 12.52 C
2198 20-05-2014 14:00:00 27.75 C 39.6667 % 12.79 C
2199 20-05-2014 15:00:00 28.93333 C 31.7500 % 10.47 C
2200 20-05-2014 16:00:00 29.26667 C 33.0000 % 11.34 C
Sensor: Nr:Datum:Temp:Feuchte:Taupunkt:
Aussen-T/F 2201 20-05-2014 17:00:00 28.43333 C 36.8333 % 12.27 C
2202 20-05-2014 18:00:00 27.13333 C 44.5833 % 14.03 C
2203 20-05-2014 19:00:00 23.18333 C 60.0833 % 15.01 C
2204 20-05-2014 20:00:00 20.575 C 62.2500 % 13.11 C
2205 20-05-2014 21:00:00 19.03333 C 65.4167 % 12.4 C
2206 20-05-2014 22:00:00 18.375 C 67.2500 % 12.2 C
2207 20-05-2014 23:00:00 18.09167 C 68.8333 % 12.28 C
2208 21-05-2014 00:00:00 17.25833 C 71.8333 % 12.13 C
2209 21-05-2014 01:00:00 16.9 C 74.5000 % 12.34 C
2210 21-05-2014 02:00:00 15.375 C 80.0833 % 11.96 C
2211 21-05-2014 03:00:00 14.775 C 84.2500 % 12.15 C
2212 21-05-2014 04:00:00 14 C 87.0000 % 11.87 C
2213 21-05-2014 05:00:00 13.71667 C 87.8333 % 11.74 C
2214 21-05-2014 06:00:00 14.31667 C 87.5833 % 12.28 C
2215 21-05-2014 07:00:00 15.25833 C 86.3333 % 12.99 C
2216 21-05-2014 08:00:00 16.8 C 81.3333 % 13.59 C
2217 21-05-2014 09:00:00 18.10833 C 79.6667 % 14.54 C
2218 21-05-2014 10:00:00 20.74167 C 72.1667 % 15.55 C
2219 21-05-2014 11:00:00 21.95 C 63.7500 % 14.77 C
2220 21-05-2014 12:00:00 24.23333 C 52.4167 % 13.88 C
2221 21-05-2014 13:00:00 25.46667 C 47.1667 % 13.39 C
2222 21-05-2014 14:00:00 26.53333 C 44.4167 % 13.43 C
2223 21-05-2014 15:00:00 27.74167 C 44.3333 % 14.49 C
2224 21-05-2014 16:00:00 27.31667 C 45.0000 % 14.34 C
2225 21-05-2014 17:00:00 24.29167 C 63.5000 % 16.92 C
Sensor: Nr:Datum:Temp:Feuchte:Taupunkt:
Aussen-T/F 2226 21-05-2014 18:00:00 23.30833 C 68.2500 % 17.13 C
2227 21-05-2014 19:00:00 25.425 C 53.3333 % 15.25 C
2228 21-05-2014 20:00:00 23.79167 C 58.7500 % 15.23 C
2229 21-05-2014 21:00:00 20.45 C 65.9167 % 13.87 C
2230 21-05-2014 22:00:00 19.8 C 68.5833 % 13.86 C
2231 21-05-2014 23:00:00 19.59167 C 66.8333 % 13.26 C
2232 22-05-2014 00:00:00 19.39167 C 66.7500 % 13.05 C
2233 22-05-2014 01:00:00 19.01667 C 66.5833 % 12.66 C
2234 22-05-2014 02:00:00 21.13333 C 60.0000 % 13.07 C
2235 22-05-2014 03:00:00 20.43333 C 65.5000 % 13.75 C
2236 22-05-2014 04:00:00 19.21667 C 73.7500 % 14.42 C
2237 22-05-2014 05:00:00 17.43333 C 79.8333 % 13.92 C
2238 22-05-2014 06:00:00 16.69167 C 82.0000 % 13.61 C
2239 22-05-2014 07:00:00 17.25 C 79.9167 % 13.75 C
2240 22-05-2014 08:00:00 17.38333 C 79.0833 % 13.72 C
2241 22-05-2014 09:00:00 19.31667 C 60.0000 % 11.36 C
2242 22-05-2014 10:00:00 21.26667 C 50.4167 % 10.56 C
2243 22-05-2014 11:00:00 23.16667 C 44.5000 % 10.42 C
2244 22-05-2014 12:00:00 24.825 C 40.0833 % 10.34 C
2245 22-05-2014 13:00:00 26.1 C 43.0000 % 12.55 C
2246 22-05-2014 14:00:00 26.76667 C 40.6667 % 12.3 C
2247 22-05-2014 15:00:00 27.25833 C 39.0833 % 12.13 C
2248 22-05-2014 16:00:00 27.74167 C 38.0000 % 12.13 C
2249 22-05-2014 17:00:00 25.16667 C 44.8333 % 12.34 C
2250 22-05-2014 18:00:00 21.95833 C 58.4167 % 13.43 C
Sensor: Nr:Datum:Temp:Feuchte:Taupunkt:
Aussen-T/F 2251 22-05-2014 19:00:00 16.46667 C 85.8333 % 14.09 C
2252 22-05-2014 20:00:00 14.86667 C 93.3333 % 13.8 C
2253 22-05-2014 21:00:00 14.55833 C 94.9167 % 13.75 C
2254 22-05-2014 22:00:00 14.075 C 95.4167 % 13.35 C
2255 22-05-2014 23:00:00 13.75 C 96.0000 % 13.12 C
2256 23-05-2014 00:00:00 13.6 C 96.3333 % 13.03 C
2257 23-05-2014 01:00:00 13.45 C 96.6667 % 12.93 C
2258 23-05-2014 02:00:00 13.30833 C 97.0000 % 12.84 C
2259 23-05-2014 03:00:00 13.23333 C 97.0000 % 12.77 C
2260 23-05-2014 04:00:00 12.95833 C 97.0000 % 12.49 C
2261 23-05-2014 05:00:00 12.73333 C 97.0833 % 12.28 C
2262 23-05-2014 06:00:00 13.09167 C 97.1667 % 12.65 C
2263 23-05-2014 07:00:00 13.4 C 97.7500 % 13.05 C
2264 23-05-2014 08:00:00 13.89167 C 98.0000 % 13.58 C
2265 23-05-2014 09:00:00 13.96667 C 98.0000 % 13.66 C
2266 23-05-2014 10:00:00 14.5 C 97.1667 % 14.06 C
2267 23-05-2014 11:00:00 15.2 C 94.6667 % 14.35 C
2268 23-05-2014 12:00:00 16.175 C 89.3333 % 14.42 C
2269 23-05-2014 13:00:00 17.21667 C 82.9167 % 14.29 C
2270 23-05-2014 14:00:00 16.70833 C 87.5833 % 14.64 C
2271 23-05-2014 15:00:00 19.01667 C 79.8333 % 15.46 C
2272 23-05-2014 16:00:00 20.2 C 72.8333 % 15.17 C
2273 23-05-2014 17:00:00 19.23333 C 79.8333 % 15.67 C
2274 23-05-2014 18:00:00 19.7 C 72.5833 % 14.64 C
2275 23-05-2014 19:00:00 20.34167 C 67.5000 % 14.13 C
Sensor: Nr:Datum:Temp:Feuchte:Taupunkt:
Aussen-T/F 2276 23-05-2014 20:00:00 18.15833 C 81.2500 % 14.89 C
2277 23-05-2014 21:00:00 15.175 C 89.4167 % 13.45 C
2278 23-05-2014 22:00:00 14 C 92.0000 % 12.72 C
2279 23-05-2014 23:00:00 13.375 C 93.0833 % 12.28 C
2280 24-05-2014 00:00:00 12.85 C 94.4167 % 11.98 C
2281 24-05-2014 01:00:00 12.31667 C 95.0000 % 11.54 C
2282 24-05-2014 02:00:00 11.89167 C 95.8333 % 11.25 C
2283 24-05-2014 03:00:00 13.75 C 87.5833 % 11.73 C
2284 24-05-2014 04:00:00 14.01667 C 82.0833 % 11.01 C
2285 24-05-2014 05:00:00 13.39167 C 84.3333 % 10.81 C
2286 24-05-2014 06:00:00 12.2 C 94.2500 % 11.3 C
2287 24-05-2014 07:00:00 12.175 C 95.4167 % 11.46 C
2288 24-05-2014 08:00:00 12.69167 C 95.0833 % 11.93 C
2289 24-05-2014 09:00:00 13.61667 C 95.6667 % 12.94 C
2290 24-05-2014 10:00:00 14.61667 C 91.6667 % 13.28 C
2291 24-05-2014 11:00:00 14.59167 C 85.6667 % 12.22 C
2292 24-05-2014 12:00:00 15.18333 C 79.9167 % 11.74 C
2293 24-05-2014 13:00:00 17.00833 C 73.3333 % 12.21 C
2294 24-05-2014 14:00:00 17.85833 C 66.4167 % 11.52 C
2295 24-05-2014 15:00:00 19.05 C 59.5833 % 11.01 C
2296 24-05-2014 16:00:00 18.66667 C 59.2500 % 10.56 C
2297 24-05-2014 17:00:00 19.575 C 53.4167 % 9.86 C
2298 24-05-2014 18:00:00 18.70833 C 54.5833 % 9.38 C
2299 24-05-2014 19:00:00 16.25833 C 71.4167 % 11.08 C
2300 24-05-2014 20:00:00 15.70833 C 77.2500 % 11.74 C
Sensor: Nr:Datum:Temp:Feuchte:Taupunkt:
Aussen-T/F 2301 24-05-2014 21:00:00 13.43333 C 83.4167 % 10.68 C
2302 24-05-2014 22:00:00 11.9125 C 86.1250 % 9.67 C
2303 24-05-2014 23:00:00 11.10833 C 87.5833 % 9.13 C
2304 25-05-2014 00:00:00 10.23333 C 89.5000 % 8.59 C
2305 25-05-2014 01:00:00 9.43333 C 91.6667 % 8.15 C
2306 25-05-2014 02:00:00 8.86667 C 92.9167 % 7.79 C
2307 25-05-2014 03:00:00 8.34167 C 94.0833 % 7.45 C
2308 25-05-2014 04:00:00 7.89167 C 95.0000 % 7.14 C
2309 25-05-2014 05:00:00 7.55 C 95.5000 % 6.88 C
2310 25-05-2014 06:00:00 7.49167 C 96.0000 % 6.9 C
2311 25-05-2014 07:00:00 8.04167 C 96.4167 % 7.51 C
2312 25-05-2014 08:00:00 10.2 C 92.8333 % 9.09 C
2313 25-05-2014 09:00:00 11.85 C 90.6667 % 10.37 C
2314 25-05-2014 10:00:00 15.38333 C 83.2500 % 12.56 C
2315 25-05-2014 11:00:00 18.48333 C 67.9167 % 12.45 C
2316 25-05-2014 12:00:00 21.11667 C 50.5833 % 10.47 C
2317 25-05-2014 13:00:00 22.225 C 44.6667 % 9.62 C
2318 25-05-2014 14:00:00 23.11667 C 45.8333 % 10.82 C
2319 25-05-2014 15:00:00 23.48333 C 43.6667 % 10.42 C
2320 25-05-2014 16:00:00 23.70833 C 44.5000 % 10.91 C
2321 25-05-2014 17:00:00 24.55 C 40.1667 % 10.13 C
2322 25-05-2014 18:00:00 23.80833 C 44.2500 % 10.91 C
2323 25-05-2014 19:00:00 19.99167 C 68.8333 % 14.1 C
2324 25-05-2014 20:00:00 17.58333 C 76.4167 % 13.39 C
2325 25-05-2014 21:00:00 16.525 C 77.0833 % 12.5 C
Sensor: Nr:Datum:Temp:Feuchte:Taupunkt:
Aussen-T/F 2326 25-05-2014 22:00:00 15.69167 C 78.9167 % 12.05 C
2327 25-05-2014 23:00:00 15.1 C 79.9167 % 11.66 C
2328 26-05-2014 00:00:00 14.21667 C 82.4167 % 11.27 C
2329 26-05-2014 01:00:00 13.825 C 83.0000 % 10.99 C
2330 26-05-2014 02:00:00 13.29167 C 85.4167 % 10.9 C
2331 26-05-2014 03:00:00 12.96667 C 86.7500 % 10.81 C
2332 26-05-2014 04:00:00 12.78333 C 88.1667 % 10.88 C
2333 26-05-2014 05:00:00 13.04167 C 88.0000 % 11.1 C
2334 26-05-2014 06:00:00 13.225 C 88.9167 % 11.44 C
2335 26-05-2014 07:00:00 13.53333 C 90.0833 % 11.94 C
2336 26-05-2014 08:00:00 14.68333 C 88.3333 % 12.78 C
2337 26-05-2014 09:00:00 15.65 C 84.6667 % 13.08 C
2338 26-05-2014 10:00:00 16.44167 C 80.7500 % 13.13 C
2339 26-05-2014 11:00:00 17.85833 C 74.7500 % 13.32 C
2340 26-05-2014 12:00:00 18.15833 C 75.8333 % 13.83 C
2341 26-05-2014 13:00:00 19.66667 C 72.1667 % 14.52 C
2342 26-05-2014 14:00:00 20.41667 C 68.8333 % 14.5 C
2343 26-05-2014 15:00:00 21.19167 C 65.4167 % 14.45 C
2344 26-05-2014 16:00:00 21.86667 C 63.6667 % 14.67 C
2345 26-05-2014 17:00:00 21.60833 C 65.6667 % 14.91 C
2346 26-05-2014 18:00:00 20.75833 C 72.1667 % 15.56 C
2347 26-05-2014 19:00:00 19.8 C 76.9167 % 15.64 C
2348 26-05-2014 20:00:00 18.575 C 81.0000 % 15.25 C
2349 26-05-2014 21:00:00 17.38333 C 85.0000 % 14.84 C
2350 26-05-2014 22:00:00 17.29167 C 86.6667 % 15.05 C
Sensor: Nr:Datum:Temp:Feuchte:Taupunkt:
Aussen-T/F 2351 26-05-2014 23:00:00 16.46667 C 92.7500 % 15.29 C
2352 27-05-2014 00:00:00 15.84 C 94.8000 % 15.01 C
2353 27-05-2014 01:00:00 15.31667 C 95.7500 % 14.64 C
2354 27-05-2014 02:00:00 14.81667 C 96.4167 % 14.25 C
2355 27-05-2014 03:00:00 14.74167 C 96.8333 % 14.24 C
2356 27-05-2014 04:00:00 14.68333 C 97.0000 % 14.21 C
2357 27-05-2014 05:00:00 14.43333 C 97.0000 % 13.96 C
2358 27-05-2014 06:00:00 14.46667 C 97.0833 % 14.01 C
2359 27-05-2014 07:00:00 14.875 C 98.0000 % 14.56 C
2360 27-05-2014 08:00:00 14.95833 C 97.1667 % 14.51 C
2361 27-05-2014 09:00:00 14.75833 C 96.3333 % 14.18 C
2362 27-05-2014 10:00:00 14.9 C 95.0833 % 14.12 C
2363 27-05-2014 11:00:00 15.36667 C 94.0833 % 14.42 C
2364 27-05-2014 12:00:00 15.575 C 92.2500 % 14.32 C
2365 27-05-2014 13:00:00 17.35 C 86.9000 % 15.15 C
2366 27-05-2014 14:00:00 18.4 C 100.0000 % 18.4 C
2367 27-05-2014 15:00:00 16.36667 C 84.0000 % 13.66 C
2368 27-05-2014 16:00:00 16.2 C 84.8000 % 13.64 C
2369 27-05-2014 17:00:00 15.31429 C 94.0000 % 14.35 C
2370 27-05-2014 18:00:00 16.4 C 100.0000 % 16.4 C
2371 27-05-2014 19:00:00 15.38 C 96.8000 % 14.87 C
2372 27-05-2014 20:00:00 15.09167 C 94.5833 % 14.23 C
2373 27-05-2014 21:00:00 14.52727 C 91.3636 % 13.14 C
2374 28-05-2014 10:00:00 15.6 C 100.0000 % 15.6 C
2375 28-05-2014 11:00:00 15.6 C 100.0000 % 15.6 C
Sensor: Nr:Datum:Temp:Feuchte:Taupunkt:
Aussen-T/F 2376 28-05-2014 17:00:00 16.35 C 81.1667 % 13.12 C
2377 28-05-2014 18:00:00 16.81667 C 81.0000 % 13.54 C
2378 28-05-2014 19:00:00 16.15833 C 84.0000 % 13.45 C
2379 28-05-2014 20:00:00 15.28333 C 87.0833 % 13.15 C
2380 28-05-2014 21:00:00 13.46667 C 89.9167 % 11.85 C
2381 28-05-2014 22:00:00 12.54167 C 92.1667 % 11.31 C
2382 28-05-2014 23:00:00 11.74167 C 93.0833 % 10.66 C
2383 29-05-2014 00:00:00 11.16667 C 94.5833 % 10.33 C
2384 29-05-2014 01:00:00 10.63333 C 95.1667 % 9.89 C
2385 29-05-2014 02:00:00 10.14167 C 96.0000 % 9.53 C
2386 29-05-2014 03:00:00 9.84167 C 96.0000 % 9.23 C
2387 29-05-2014 04:00:00 9.73333 C 96.6667 % 9.23 C
2388 29-05-2014 05:00:00 9.51667 C 96.5000 % 8.99 C
2389 29-05-2014 06:00:00 9.525 C 97.0000 % 9.07 C
2390 29-05-2014 07:00:00 9.725 C 97.0000 % 9.27 C
2391 29-05-2014 08:00:00 10.43333 C 96.8333 % 9.95 C
2392 29-05-2014 09:00:00 11.81667 C 94.5833 % 10.98 C
2393 29-05-2014 10:00:00 13.975 C 90.1667 % 12.39 C
2394 29-05-2014 11:00:00 15.875 C 83.6667 % 13.12 C
2395 29-05-2014 12:00:00 17.50833 C 76.5833 % 13.35 C
2396 29-05-2014 13:00:00 18.86667 C 70.0000 % 13.28 C
2397 29-05-2014 14:00:00 18.81667 C 69.0833 % 13.03 C
2398 29-05-2014 15:00:00 17.90833 C 71.5833 % 12.7 C
2399 29-05-2014 16:00:00 16.875 C 74.3333 % 12.28 C
2400 29-05-2014 17:00:00 16.40833 C 76.3333 % 12.24 C
Sensor: Nr:Datum:Temp:Feuchte:Taupunkt:
Aussen-T/F 2401 29-05-2014 18:00:00 15.65 C 80.0833 % 12.23 C
2402 29-05-2014 19:00:00 14.85 C 85.1667 % 12.38 C
2403 29-05-2014 20:00:00 14.375 C 87.5000 % 12.33 C
2404 29-05-2014 21:00:00 13.68333 C 92.1667 % 12.44 C
2405 29-05-2014 22:00:00 13.05 C 87.5833 % 11.04 C
2406 29-05-2014 23:00:00 12.34167 C 85.9167 % 10.05 C
2407 30-05-2014 00:00:00 11.85833 C 85.2500 % 9.46 C
2408 30-05-2014 01:00:00 11.325 C 84.5000 % 8.81 C
2409 30-05-2014 02:00:00 11.1 C 84.1667 % 8.53 C
2410 30-05-2014 03:00:00 10.9 C 83.4167 % 8.2 C
2411 30-05-2014 04:00:00 10.68333 C 82.5833 % 7.84 C
2412 30-05-2014 05:00:00 10.45 C 83.2500 % 7.73 C
2413 30-05-2014 06:00:00 10.35833 C 81.9167 % 7.41 C
2414 30-05-2014 07:00:00 10.69167 C 78.4167 % 7.1 C
2415 30-05-2014 08:00:00 11.86667 C 72.3333 % 7.05 C
2416 30-05-2014 09:00:00 12.55 C 66.5833 % 6.5 C
2417 30-05-2014 10:00:00 14.34167 C 63.9167 % 7.61 C
2418 30-05-2014 11:00:00 14.68333 C 63.0000 % 7.72 C
2419 30-05-2014 12:00:00 15.8 C 58.0833 % 7.58 C
2420 30-05-2014 13:00:00 17.11667 C 56.8333 % 8.49 C
2421 30-05-2014 14:00:00 17.38333 C 53.8333 % 7.94 C
2422 30-05-2014 15:00:00 16.83333 C 55.4167 % 7.86 C
2423 30-05-2014 16:00:00 17.09167 C 56.0000 % 8.25 C
2424 30-05-2014 17:00:00 16.16667 C 58.1667 % 7.95 C
2425 30-05-2014 18:00:00 16.51667 C 56.6667 % 7.89 C
Sensor: Nr:Datum:Temp:Feuchte:Taupunkt:
Aussen-T/F 2426 30-05-2014 19:00:00 15.29167 C 59.4167 % 7.44 C
2427 30-05-2014 20:00:00 14.26667 C 62.8333 % 7.29 C
2428 30-05-2014 21:00:00 11.56667 C 76.5000 % 7.58 C
2429 30-05-2014 22:00:00 9.91667 C 81.4167 % 6.89 C
2430 30-05-2014 23:00:00 8.8 C 85.5000 % 6.51 C
2431 31-05-2014 00:00:00 7.99167 C 87.6667 % 6.07 C
2432 31-05-2014 01:00:00 7.425 C 90.2500 % 5.93 C
2433 31-05-2014 02:00:00 6.925 C 92.2500 % 5.76 C
2434 31-05-2014 03:00:00 6.44167 C 93.5833 % 5.48 C
2435 31-05-2014 04:00:00 5.99167 C 94.5000 % 5.18 C
2436 31-05-2014 05:00:00 5.53333 C 95.0000 % 4.8 C
2437 31-05-2014 06:00:00 5.53333 C 95.6667 % 4.9 C
2438 31-05-2014 07:00:00 6.20833 C 96.0000 % 5.62 C
2439 31-05-2014 08:00:00 8.59167 C 91.8333 % 7.34 C
2440 31-05-2014 09:00:00 10.38333 C 88.5000 % 8.57 C
2441 31-05-2014 10:00:00 13.88333 C 80.0833 % 10.51 C
2442 31-05-2014 11:00:00 17.58333 C 66.1667 % 11.2 C
2443 31-05-2014 12:00:00 19.075 C 54.5000 % 9.7 C
2444 31-05-2014 13:00:00 20.08333 C 50.9167 % 9.62 C
2445 31-05-2014 14:00:00 19.80833 C 48.5833 % 8.67 C
2446 31-05-2014 15:00:00 20.48333 C 49.1667 % 9.46 C
2447 31-05-2014 16:00:00 19.4 C 55.6667 % 10.31 C
2448 31-05-2014 17:00:00 20.05833 C 53.1667 % 10.24 C
2449 31-05-2014 18:00:00 21 C 47.1667 % 9.32 C
2450 31-05-2014 19:00:00 21.05 C 44.6667 % 8.56 C
Sensor: Nr:Datum:Temp:Feuchte:Taupunkt:
Aussen-T/F 2451 31-05-2014 20:00:00 17.11667 C 69.8333 % 11.57 C
2452 31-05-2014 21:00:00 14.45833 C 77.2500 % 10.53 C
2453 31-05-2014 22:00:00 13.525 C 79.5833 % 10.07 C
2454 31-05-2014 23:00:00 13.14167 C 80.3333 % 9.83 C
2455 01-06-2014 00:00:00 12.4 C 82.3333 % 9.48 C
2456 01-06-2014 01:00:00 12.20833 C 83.0000 % 9.41 C
2457 01-06-2014 02:00:00 11.46667 C 84.6667 % 8.98 C
2458 01-06-2014 03:00:00 10.46667 C 87.1667 % 8.43 C
2459 01-06-2014 04:00:00 10.24167 C 89.2500 % 8.55 C
2460 01-06-2014 05:00:00 10.43333 C 90.0833 % 8.88 C
2461 01-06-2014 06:00:00 11.49167 C 85.8333 % 9.21 C
2462 01-06-2014 07:00:00 12.125 C 83.1667 % 9.36 C
2463 01-06-2014 08:00:00 13.00833 C 80.9167 % 9.81 C
2464 01-06-2014 09:00:00 14.00833 C 78.8333 % 10.4 C
2465 01-06-2014 10:00:00 16.35833 C 69.6667 % 10.81 C
2466 01-06-2014 11:00:00 18.25 C 61.2500 % 10.67 C
2467 01-06-2014 12:00:00 19.86667 C 55.6667 % 10.75 C
2468 01-06-2014 13:00:00 20.75833 C 51.7500 % 10.48 C
2469 01-06-2014 14:00:00 20.36 C 49.8000 % 9.54 C
2470 01-06-2014 15:00:00 21.95556 C 45.7778 % 9.74 C
2471 01-06-2014 16:00:00 20.96667 C 48.1111 % 9.58 C
2472 01-06-2014 17:00:00 20.24167 C 48.5000 % 9.04 C
2473 01-06-2014 18:00:00 19.425 C 48.7500 % 8.37 C
2474 01-06-2014 19:00:00 19.1 C 49.5000 % 8.29 C
2475 01-06-2014 20:00:00 17.80833 C 56.4167 % 9.03 C
Sensor: Nr:Datum:Temp:Feuchte:Taupunkt:
Aussen-T/F 2476 01-06-2014 21:00:00 15.69167 C 70.7500 % 10.4 C
2477 01-06-2014 22:00:00 15.03333 C 72.7500 % 10.19 C
2478 01-06-2014 23:00:00 13.98333 C 74.8333 % 9.59 C
2479 02-06-2014 00:00:00 13.45 C 77.2500 % 9.55 C
2480 02-06-2014 01:00:00 13.025 C 77.4167 % 9.17 C
2481 02-06-2014 02:00:00 11.6 C 80.5833 % 8.38 C
2482 02-06-2014 03:00:00 10.28333 C 85.2500 % 7.92 C
2483 02-06-2014 04:00:00 9.375 C 88.7500 % 7.62 C
2484 02-06-2014 05:00:00 8.79167 C 91.1667 % 7.43 C
2485 02-06-2014 06:00:00 8.79167 C 92.4167 % 7.63 C
2486 02-06-2014 07:00:00 9.70833 C 90.5833 % 8.24 C
2487 02-06-2014 08:00:00 11.5 C 86.7778 % 9.38 C
2488 02-06-2014 09:00:00 14.41111 C 79.3333 % 10.88 C
2489 02-06-2014 10:00:00 15.7 C 72.3333 % 10.74 C
2490 02-06-2014 12:00:00 20.8 C 50.0000 % 10 C
2491 02-06-2014 13:00:00 21.07143 C 47.8571 % 9.6 C
2492 02-06-2014 14:00:00 21.85 C 47.1667 % 10.09 C
2493 02-06-2014 15:00:00 22.56667 C 43.3333 % 9.48 C
2494 02-06-2014 16:00:00 22.925 C 41.9167 % 9.31 C
2495 02-06-2014 17:00:00 23.75455 C 39.8182 % 9.29 C
2496 02-06-2014 18:00:00 23.61667 C 40.0000 % 9.23 C
2497 02-06-2014 19:00:00 22.45833 C 41.2500 % 8.65 C
2498 02-06-2014 20:00:00 20.15 C 52.1667 % 10.04 C
2499 02-06-2014 21:00:00 16.88333 C 68.5000 % 11.06 C
2500 02-06-2014 22:00:00 16.00833 C 69.6667 % 10.47 C
Sensor: Nr:Datum:Temp:Feuchte:Taupunkt:
Aussen-T/F 2501 02-06-2014 23:00:00 15.58333 C 70.2500 % 10.19 C
2502 03-06-2014 00:00:00 14.56667 C 74.1667 % 10.02 C
2503 03-06-2014 01:00:00 13.43333 C 78.5000 % 9.77 C
2504 03-06-2014 02:00:00 12.24167 C 82.0833 % 9.28 C
2505 03-06-2014 03:00:00 11.125 C 85.7500 % 8.83 C
2506 03-06-2014 04:00:00 10.31667 C 88.6667 % 8.53 C
2507 03-06-2014 05:00:00 9.83333 C 91.4167 % 8.5 C
2508 03-06-2014 06:00:00 10.15833 C 92.0833 % 8.93 C
2509 03-06-2014 07:00:00 11.38333 C 89.2500 % 9.68 C
2510 03-06-2014 08:00:00 13.01667 C 83.5833 % 10.3 C
2511 03-06-2014 09:00:00 14.48333 C 80.1667 % 11.11 C
2512 03-06-2014 10:00:00 17.89167 C 70.5833 % 12.47 C
2513 03-06-2014 11:00:00 19.46667 C 66.0000 % 12.95 C
2514 03-06-2014 12:00:00 18.825 C 70.5000 % 13.35 C
2515 03-06-2014 13:00:00 22.68333 C 44.0833 % 9.84 C
2516 03-06-2014 14:00:00 20.8625 C 56.3750 % 11.87 C
2517 03-06-2014 15:00:00 19.96667 C 56.2500 % 11 C
2518 03-06-2014 16:00:00 19.85833 C 62.6667 % 12.53 C
2519 03-06-2014 17:00:00 19 C 71.8333 % 13.8 C
2520 03-06-2014 18:00:00 20.64167 C 59.7500 % 12.54 C
2521 03-06-2014 19:00:00 19.35 C 69.8333 % 13.71 C
2522 03-06-2014 20:00:00 17.025 C 77.0000 % 12.97 C
2523 03-06-2014 21:00:00 16.15833 C 78.0000 % 12.32 C
2524 03-06-2014 22:00:00 14.65 C 79.1667 % 11.08 C
2525 03-06-2014 23:00:00 13.63333 C 82.8333 % 10.77 C
Sensor: Nr:Datum:Temp:Feuchte:Taupunkt:
Aussen-T/F 2526 04-06-2014 00:00:00 12.96667 C 86.2500 % 10.73 C
2527 04-06-2014 01:00:00 12.23333 C 88.3333 % 10.36 C
2528 04-06-2014 02:00:00 11.59167 C 90.8333 % 10.15 C
2529 04-06-2014 03:00:00 11 C 92.5833 % 9.85 C
2530 04-06-2014 04:00:00 10.65833 C 93.9167 % 9.72 C
2531 04-06-2014 05:00:00 10.85 C 94.2500 % 9.96 C
2532 04-06-2014 06:00:00 11.60833 C 92.9167 % 10.5 C
2533 04-06-2014 07:00:00 12.94167 C 88.9167 % 11.16 C
2534 04-06-2014 08:00:00 15.65 C 82.4167 % 12.67 C
2535 04-06-2014 09:00:00 17.95 C 72.5833 % 12.96 C
2536 04-06-2014 11:00:00 20.675 C 66.7500 % 14.27 C
2537 04-06-2014 12:00:00 20.16667 C 65.5833 % 13.52 C
2538 04-06-2014 13:00:00 17.975 C 73.5833 % 13.19 C
2539 04-06-2014 14:00:00 16.95 C 84.1667 % 14.26 C
2540 04-06-2014 15:00:00 17.44167 C 87.9167 % 15.42 C
2541 04-06-2014 16:00:00 17.09167 C 91.4167 % 15.68 C
2542 04-06-2014 17:00:00 16.60833 C 94.0833 % 15.65 C
2543 04-06-2014 18:00:00 16.76667 C 92.6667 % 15.57 C
2544 04-06-2014 19:00:00 17.9 C 88.2500 % 15.93 C
2545 04-06-2014 21:00:00 14.53333 C 94.3333 % 13.63 C
2546 05-06-2014 00:00:00 13.24 C 89.8000 % 11.6 C
2547 05-06-2014 01:00:00 12.54167 C 88.8333 % 10.75 C
2548 05-06-2014 02:00:00 12.03333 C 88.2500 % 10.15 C
2549 05-06-2014 03:00:00 10.96667 C 80.0833 % 7.67 C
2550 05-06-2014 04:00:00 8.83333 C 91.4167 % 7.51 C
Sensor: Nr:Datum:Temp:Feuchte:Taupunkt:
Aussen-T/F 2551 05-06-2014 05:00:00 8.74167 C 91.5833 % 7.45 C
2552 05-06-2014 06:00:00 8.65833 C 94.8333 % 7.88 C
2553 05-06-2014 07:00:00 9.61667 C 92.9167 % 8.53 C
2554 05-06-2014 08:00:00 11.96667 C 82.6667 % 9.11 C
2555 05-06-2014 09:00:00 13.39167 C 73.7500 % 8.81 C
2556 05-06-2014 10:00:00 14.75833 C 65.5000 % 8.36 C
2557 05-06-2014 11:00:00 15.88333 C 60.6667 % 8.3 C
2558 05-06-2014 12:00:00 16.85 C 55.3333 % 7.85 C
2559 05-06-2014 13:00:00 17.69167 C 51.5000 % 7.58 C
2560 05-06-2014 14:00:00 17.98333 C 49.5833 % 7.29 C
2561 05-06-2014 15:00:00 18.54167 C 47.8333 % 7.28 C
2562 05-06-2014 16:00:00 19.675 C 43.6667 % 6.98 C
2563 05-06-2014 17:00:00 19.10833 C 45.0000 % 6.91 C
2564 05-06-2014 18:00:00 20.725 C 39.9167 % 6.62 C
2565 05-06-2014 19:00:00 19.84167 C 39.9167 % 5.83 C
2566 05-06-2014 20:00:00 18.48333 C 48.1667 % 7.33 C
2567 05-06-2014 21:00:00 15.09167 C 66.5000 % 8.91 C
2568 05-06-2014 22:00:00 12.8 C 74.0000 % 8.29 C
2569 05-06-2014 23:00:00 11.19167 C 77.5833 % 7.43 C
2570 06-06-2014 00:00:00 10.025 C 82.0833 % 7.11 C
2571 06-06-2014 01:00:00 9.14167 C 85.5000 % 6.84 C
2572 06-06-2014 02:00:00 8.51667 C 86.9167 % 6.47 C
2573 06-06-2014 03:00:00 7.95 C 89.0000 % 6.25 C
2574 06-06-2014 04:00:00 7.30833 C 91.2500 % 5.98 C
2575 06-06-2014 05:00:00 6.90833 C 92.8333 % 5.83 C
Sensor: Nr:Datum:Temp:Feuchte:Taupunkt:
Aussen-T/F 2576 06-06-2014 06:00:00 6.89167 C 94.0000 % 5.99 C
2577 06-06-2014 07:00:00 7.76667 C 93.9167 % 6.85 C
2578 06-06-2014 08:00:00 10.88333 C 86.3333 % 8.69 C
2579 06-06-2014 09:00:00 13.575 C 78.2500 % 9.86 C
2580 06-06-2014 10:00:00 16.58333 C 71.8333 % 11.48 C
2581 06-06-2014 11:00:00 19.63333 C 64.0000 % 12.64 C
2582 06-06-2014 12:00:00 23.175 C 47.1667 % 11.3 C
2583 06-06-2014 13:00:00 24.70833 C 41.7500 % 10.85 C
2584 06-06-2014 14:00:00 25.96667 C 40.6667 % 11.58 C
2585 06-06-2014 15:00:00 26.93333 C 38.1667 % 11.48 C
2586 06-06-2014 16:00:00 27.50833 C 37.2500 % 11.62 C
2587 06-06-2014 17:00:00 27.23333 C 40.5000 % 12.65 C
2588 06-06-2014 18:00:00 28.075 C 38.5833 % 12.66 C
2589 06-06-2014 19:00:00 26.5 C 45.0000 % 13.6 C
2590 06-06-2014 20:00:00 22.40833 C 63.5833 % 15.16 C
2591 06-06-2014 21:00:00 19.74167 C 69.9167 % 14.1 C
2592 06-06-2014 22:00:00 18.18333 C 73.0000 % 13.27 C
2593 06-06-2014 23:00:00 17.25833 C 75.1667 % 12.82 C
2594 07-06-2014 00:00:00 15.95833 C 77.4167 % 12.01 C
2595 07-06-2014 01:00:00 14.71667 C 81.6667 % 11.62 C
2596 07-06-2014 02:00:00 13.9 C 83.5000 % 11.15 C
2597 07-06-2014 03:00:00 13.11667 C 86.1667 % 10.86 C
2598 07-06-2014 04:00:00 12.44167 C 88.5000 % 10.6 C
2599 07-06-2014 05:00:00 12.09167 C 90.5000 % 10.59 C
2600 07-06-2014 06:00:00 12.21667 C 91.5000 % 10.87 C
Sensor: Nr:Datum:Temp:Feuchte:Taupunkt:
Aussen-T/F 2601 07-06-2014 07:00:00 13.21667 C 90.5000 % 11.7 C
2602 07-06-2014 08:00:00 15.825 C 83.8333 % 13.1 C
2603 07-06-2014 09:00:00 17.45833 C 81.1667 % 14.2 C
2604 07-06-2014 10:00:00 20.30833 C 77.0000 % 16.14 C
2605 07-06-2014 11:00:00 24.58333 C 63.2500 % 17.14 C
2606 07-06-2014 12:00:00 28.63333 C 47.9167 % 16.52 C
2607 07-06-2014 13:00:00 29.825 C 44.0833 % 16.29 C
2608 07-06-2014 14:00:00 30.60833 C 40.6667 % 15.72 C
2609 07-06-2014 15:00:00 30.89167 C 40.8333 % 16.04 C
2610 07-06-2014 16:00:00 27.85 C 59.7500 % 19.3 C
2611 07-06-2014 17:00:00 25.48333 C 69.1667 % 19.41 C
2612 07-06-2014 18:00:00 26.41667 C 69.5833 % 20.4 C
2613 07-06-2014 19:00:00 24.9 C 71.6667 % 19.43 C
2614 07-06-2014 20:00:00 24.28333 C 70.3333 % 18.54 C
2615 07-06-2014 21:00:00 22.44167 C 73.5000 % 17.47 C
2616 07-06-2014 22:00:00 21.15833 C 76.0833 % 16.78 C
2617 07-06-2014 23:00:00 20.21667 C 78.4167 % 16.34 C
2618 08-06-2014 00:00:00 18.96667 C 82.2500 % 15.87 C
2619 08-06-2014 01:00:00 18.09167 C 85.0000 % 15.53 C
2620 08-06-2014 02:00:00 17.25 C 87.3333 % 15.13 C
2621 08-06-2014 03:00:00 16.54167 C 89.3333 % 14.78 C
2622 08-06-2014 04:00:00 16.18333 C 91.0833 % 14.73 C
2623 08-06-2014 05:00:00 15.71667 C 92.2500 % 14.46 C
2624 08-06-2014 06:00:00 16.05833 C 93.3333 % 14.98 C
2625 08-06-2014 07:00:00 17.19167 C 90.3333 % 15.6 C
Sensor: Nr:Datum:Temp:Feuchte:Taupunkt:
Aussen-T/F 2626 08-06-2014 08:00:00 19.275 C 85.1667 % 16.72 C
2627 08-06-2014 09:00:00 20.525 C 82.8333 % 17.51 C
2628 08-06-2014 10:00:00 22.7 C 79.3333 % 18.94 C
2629 08-06-2014 11:00:00 24.90833 C 71.0000 % 19.29 C
2630 08-06-2014 12:00:00 28.7 C 54.8333 % 18.71 C
2631 08-06-2014 13:00:00 31.1 C 46.8333 % 18.4 C
2632 08-06-2014 14:00:00 32.425 C 44.5000 % 18.78 C
2633 08-06-2014 15:00:00 32.46667 C 44.0000 % 18.63 C
2634 08-06-2014 16:00:00 31.99167 C 48.2500 % 19.68 C
2635 08-06-2014 17:00:00 33.625 C 44.0833 % 19.71 C
2636 08-06-2014 18:00:00 33.43333 C 44.0833 % 19.54 C
2637 08-06-2014 19:00:00 31.475 C 50.1667 % 19.84 C
2638 08-06-2014 20:00:00 29.25833 C 55.8333 % 19.52 C
2639 08-06-2014 21:00:00 25.08333 C 72.5833 % 19.81 C
2640 08-06-2014 22:00:00 23.15833 C 80.1667 % 19.55 C
2641 08-06-2014 23:00:00 22.15833 C 83.2500 % 19.18 C
2642 09-06-2014 00:00:00 21.23333 C 85.9167 % 18.78 C
2643 09-06-2014 01:00:00 20.31667 C 88.1667 % 18.29 C
2644 09-06-2014 02:00:00 19.73333 C 90.3333 % 18.1 C
2645 09-06-2014 03:00:00 19.45833 C 91.8333 % 18.1 C
2646 09-06-2014 04:00:00 19.53333 C 91.0000 % 18.02 C
2647 09-06-2014 05:00:00 19.05 C 90.7500 % 17.5 C
2648 09-06-2014 06:00:00 18.625 C 92.5000 % 17.38 C
2649 09-06-2014 07:00:00 19.09167 C 93.0000 % 17.93 C
2650 09-06-2014 08:00:00 21.175 C 87.9167 % 19.09 C
Sensor: Nr:Datum:Temp:Feuchte:Taupunkt:
Aussen-T/F 2651 09-06-2014 09:00:00 23.63333 C 79.4167 % 19.86 C
2652 09-06-2014 10:00:00 26.5 C 67.5000 % 19.99 C
2653 09-06-2014 11:00:00 28.45833 C 62.5000 % 20.6 C
2654 09-06-2014 12:00:00 30.35833 C 57.9167 % 21.14 C
2655 09-06-2014 13:00:00 32.3 C 51.5000 % 21.02 C
2656 09-06-2014 14:00:00 33.675 C 47.5000 % 20.96 C
2657 09-06-2014 15:00:00 34.35833 C 44.0833 % 20.37 C
2658 09-06-2014 16:00:00 34.85833 C 40.8333 % 19.58 C
2659 09-06-2014 17:00:00 35.125 C 42.9167 % 20.62 C
2660 09-06-2014 18:00:00 34.83333 C 43.0000 % 20.39 C
2661 09-06-2014 19:00:00 31.85 C 55.1667 % 21.73 C
2662 09-06-2014 20:00:00 26.225 C 71.9167 % 20.75 C
2663 09-06-2014 21:00:00 25.65 C 63.0000 % 18.08 C
2664 09-06-2014 22:00:00 21.975 C 65.2500 % 15.16 C
2665 09-06-2014 23:00:00 19.88333 C 75.0833 % 15.34 C
2666 10-06-2014 00:00:00 18.46667 C 81.3333 % 15.21 C
2667 10-06-2014 01:00:00 17.75 C 83.9167 % 15 C
2668 10-06-2014 02:00:00 17.14167 C 86.5833 % 14.89 C
2669 10-06-2014 03:00:00 16.625 C 88.7500 % 14.76 C
2670 10-06-2014 04:00:00 16.35 C 89.1667 % 14.56 C
2671 10-06-2014 05:00:00 16.025 C 90.6667 % 14.5 C
2672 10-06-2014 06:00:00 16.65833 C 89.7500 % 14.97 C
2673 10-06-2014 07:00:00 17.99167 C 87.4167 % 15.87 C
2674 10-06-2014 08:00:00 19.94167 C 82.9167 % 16.95 C
2675 10-06-2014 09:00:00 21.28333 C 77.9167 % 17.27 C
Sensor: Nr:Datum:Temp:Feuchte:Taupunkt:
Aussen-T/F 2676 10-06-2014 10:00:00 23.79167 C 67.9167 % 17.51 C
2677 10-06-2014 11:00:00 25.16667 C 65.8333 % 18.32 C
2678 10-06-2014 12:00:00 27.34167 C 61.6667 % 19.33 C
2679 10-06-2014 13:00:00 30.275 C 53.3333 % 19.73 C
2680 10-06-2014 14:00:00 31.79167 C 49.0000 % 19.75 C
2681 10-06-2014 15:00:00 33.29167 C 42.3333 % 18.76 C
2682 10-06-2014 16:00:00 34.025 C 38.7500 % 18 C
2683 10-06-2014 17:00:00 32.4 C 43.0833 % 18.24 C
2684 10-06-2014 18:00:00 29.80833 C 52.4167 % 19.02 C
2685 10-06-2014 19:00:00 27.84167 C 57.7500 % 18.75 C
2686 10-06-2014 20:00:00 26.36667 C 63.5833 % 18.9 C
2687 10-06-2014 21:00:00 23.825 C 76.8333 % 19.51 C
2688 10-06-2014 22:00:00 22.36667 C 80.9167 % 18.93 C
2689 10-06-2014 23:00:00 21.46667 C 83.5000 % 18.55 C
2690 11-06-2014 00:00:00 20.35833 C 87.9167 % 18.29 C
2691 11-06-2014 01:00:00 19.68333 C 90.8333 % 18.14 C
2692 11-06-2014 02:00:00 20.21667 C 87.6667 % 18.1 C
2693 11-06-2014 03:00:00 20.225 C 83.8333 % 17.4 C
2694 11-06-2014 04:00:00 20.02 C 85.2000 % 17.46 C
2695 11-06-2014 05:00:00 18.85 C 91.0000 % 17.35 C
2696 11-06-2014 06:00:00 17.99167 C 94.0833 % 17.03 C
2697 11-06-2014 07:00:00 17.83333 C 95.7778 % 17.15 C
2698 11-06-2014 08:00:00 18.28333 C 96.7500 % 17.76 C
2699 11-06-2014 09:00:00 19.25 C 94.0000 % 18.26 C
2700 11-06-2014 10:00:00 18.43333 C 89.8333 % 16.73 C
Sensor: Nr:Datum:Temp:Feuchte:Taupunkt:
Aussen-T/F 2701 11-06-2014 11:00:00 17.75833 C 89.1667 % 15.95 C
2702 11-06-2014 12:00:00 18.625 C 86.0000 % 16.24 C
2703 11-06-2014 13:00:00 19.525 C 82.3333 % 16.43 C
2704 11-06-2014 14:00:00 20.7 C 79.5833 % 17.04 C
2705 11-06-2014 15:00:00 21.85 C 74.3333 % 17.08 C
2706 11-06-2014 16:00:00 23.3 C 69.4167 % 17.39 C
2707 11-06-2014 17:00:00 24.225 C 63.8333 % 16.94 C
2708 11-06-2014 18:00:00 24.40833 C 59.3333 % 15.97 C
2709 11-06-2014 19:00:00 24.06667 C 56.0833 % 14.77 C
2710 11-06-2014 20:00:00 22.24167 C 58.1667 % 13.63 C
2711 11-06-2014 21:00:00 19.74167 C 73.9167 % 14.96 C
2712 11-06-2014 22:00:00 17.39167 C 84.3333 % 14.72 C
2713 11-06-2014 23:00:00 16.575 C 87.3333 % 14.46 C
2714 12-06-2014 00:00:00 16.15833 C 87.7500 % 14.13 C
2715 12-06-2014 01:00:00 15.65833 C 89.3333 % 13.91 C
2716 12-06-2014 02:00:00 15.24167 C 89.4167 % 13.51 C
2717 12-06-2014 03:00:00 14.73333 C 89.9167 % 13.1 C
2718 12-06-2014 04:00:00 14.84167 C 87.0000 % 12.7 C
2719 12-06-2014 05:00:00 14.375 C 88.0000 % 12.41 C
2720 12-06-2014 06:00:00 14.2 C 89.3333 % 12.47 C
2721 12-06-2014 07:00:00 14.74167 C 88.5833 % 12.88 C
2722 12-06-2014 08:00:00 16.61667 C 80.8333 % 13.31 C
2723 12-06-2014 09:00:00 17.96667 C 76.8333 % 13.84 C
2724 12-06-2014 10:00:00 20.20833 C 71.2500 % 14.84 C
2725 12-06-2014 11:00:00 22.18333 C 61.7500 % 14.5 C
Sensor: Nr:Datum:Temp:Feuchte:Taupunkt:
Aussen-T/F 2726 12-06-2014 12:00:00 23.525 C 54.7500 % 13.89 C
2727 12-06-2014 13:00:00 24.575 C 51.5833 % 13.95 C
2728 12-06-2014 14:00:00 25.54167 C 47.0000 % 13.4 C
2729 12-06-2014 15:00:00 26.15 C 41.0833 % 11.9 C
2730 12-06-2014 16:00:00 26.78333 C 36.8333 % 10.81 C
2731 12-06-2014 17:00:00 26.65833 C 39.0000 % 11.56 C
2732 12-06-2014 18:00:00 26.275 C 39.5833 % 11.45 C
2733 12-06-2014 19:00:00 24.93333 C 40.9167 % 10.75 C
2734 12-06-2014 20:00:00 23.275 C 44.2500 % 10.43 C
2735 12-06-2014 21:00:00 20.59167 C 57.5833 % 11.93 C
2736 12-06-2014 22:00:00 17.75833 C 68.2500 % 11.84 C
2737 12-06-2014 23:00:00 16.39167 C 74.1667 % 11.78 C
2738 13-06-2014 00:00:00 15.48333 C 77.0000 % 11.47 C
2739 13-06-2014 01:00:00 14.675 C 80.5000 % 11.36 C
2740 13-06-2014 02:00:00 13.475 C 84.7500 % 10.96 C
2741 13-06-2014 03:00:00 12.50833 C 88.0000 % 10.58 C
2742 13-06-2014 04:00:00 11.86667 C 90.3333 % 10.34 C
2743 13-06-2014 05:00:00 11.375 C 91.9167 % 10.11 C
2744 13-06-2014 06:00:00 11.4 C 93.0000 % 10.31 C
2745 13-06-2014 07:00:00 12.175 C 92.9167 % 11.06 C
2746 13-06-2014 08:00:00 15 C 85.9167 % 12.66 C
2747 13-06-2014 09:00:00 16.99167 C 79.6667 % 13.45 C
2748 13-06-2014 10:00:00 20.25833 C 67.3333 % 14.01 C
2749 13-06-2014 11:00:00 21.96667 C 54.0000 % 12.24 C
2750 13-06-2014 12:00:00 22.55 C 51.2500 % 11.98 C
Sensor: Nr:Datum:Temp:Feuchte:Taupunkt:
Aussen-T/F 2751 13-06-2014 13:00:00 23.04167 C 50.1667 % 12.11 C
2752 13-06-2014 14:00:00 23.63333 C 48.3333 % 12.09 C
2753 13-06-2014 15:00:00 24.21667 C 45.8333 % 11.81 C
2754 13-06-2014 16:00:00 25.03333 C 43.0833 % 11.62 C
2755 13-06-2014 17:00:00 24.74167 C 44.2500 % 11.76 C
2756 13-06-2014 18:00:00 23.90833 C 45.3333 % 11.37 C
2757 13-06-2014 19:00:00 22.61667 C 49.8333 % 11.62 C
2758 13-06-2014 20:00:00 20.94167 C 55.4167 % 11.68 C
2759 13-06-2014 21:00:00 19.09167 C 64.7500 % 12.3 C
2760 13-06-2014 22:00:00 17.00833 C 75.0000 % 12.55 C
2761 13-06-2014 23:00:00 16.925 C 77.2500 % 12.92 C
2762 14-06-2014 00:00:00 16.775 C 78.7500 % 13.07 C
2763 14-06-2014 01:00:00 16.51667 C 80.0000 % 13.06 C
2764 14-06-2014 02:00:00 16.15833 C 80.5000 % 12.8 C
2765 14-06-2014 03:00:00 15.85833 C 81.8333 % 12.76 C
2766 14-06-2014 04:00:00 16.29167 C 79.0833 % 12.66 C
2767 14-06-2014 05:00:00 16.16667 C 79.1667 % 12.56 C
2768 14-06-2014 06:00:00 15.86667 C 79.1667 % 12.26 C
2769 14-06-2014 07:00:00 15.48333 C 78.1667 % 11.7 C
2770 14-06-2014 08:00:00 15.575 C 70.7500 % 10.29 C
2771 14-06-2014 09:00:00 15.64167 C 65.5833 % 9.22 C
2772 14-06-2014 10:00:00 16.40833 C 59.8333 % 8.59 C
2773 14-06-2014 11:00:00 17.825 C 56.5000 % 9.07 C
2774 14-06-2014 12:00:00 18.625 C 55.4167 % 9.53 C
2775 14-06-2014 13:00:00 18.875 C 53.9167 % 9.35 C
Sensor: Nr:Datum:Temp:Feuchte:Taupunkt:
Aussen-T/F 2776 14-06-2014 14:00:00 19.15833 C 51.5833 % 8.96 C
2777 14-06-2014 15:00:00 19.725 C 49.1667 % 8.77 C
2778 14-06-2014 16:00:00 19.40833 C 49.8333 % 8.68 C
2779 14-06-2014 17:00:00 19.725 C 50.5833 % 9.19 C
2780 14-06-2014 18:00:00 19.375 C 52.8333 % 9.51 C
2781 14-06-2014 19:00:00 19.03333 C 55.1667 % 9.84 C
2782 14-06-2014 20:00:00 18.53333 C 57.7500 % 10.05 C
2783 14-06-2014 21:00:00 17.4 C 61.7500 % 9.99 C
2784 14-06-2014 22:00:00 15.80833 C 69.0833 % 10.16 C
2785 14-06-2014 23:00:00 14.35833 C 75.8333 % 10.15 C
2786 15-06-2014 00:00:00 13.6 C 79.2500 % 10.08 C
2787 15-06-2014 01:00:00 12.74167 C 83.1667 % 9.96 C
2788 15-06-2014 02:00:00 11.69167 C 86.7500 % 9.56 C
2789 15-06-2014 03:00:00 11.05833 C 89.6667 % 9.43 C
2790 15-06-2014 04:00:00 11.275 C 91.1667 % 9.89 C
2791 15-06-2014 05:00:00 11.71667 C 90.5833 % 10.23 C
2792 15-06-2014 06:00:00 12.21667 C 90.6667 % 10.74 C
2793 15-06-2014 07:00:00 13.7 C 87.7500 % 11.71 C
2794 15-06-2014 08:00:00 15.79167 C 78.3333 % 12.03 C
2795 15-06-2014 09:00:00 16.43333 C 76.0000 % 12.19 C
2796 15-06-2014 10:00:00 17.55833 C 71.5833 % 12.37 C
2797 15-06-2014 11:00:00 18.86667 C 65.9167 % 12.36 C
2798 15-06-2014 12:00:00 19.21667 C 62.7500 % 11.95 C
2799 15-06-2014 13:00:00 20.05 C 58.0000 % 11.54 C
2800 15-06-2014 14:00:00 20.21667 C 54.2500 % 10.69 C
Sensor: Nr:Datum:Temp:Feuchte:Taupunkt:
Aussen-T/F 2801 15-06-2014 15:00:00 20.875 C 49.0833 % 9.8 C
2802 15-06-2014 16:00:00 21.94167 C 45.0000 % 9.48 C
2803 15-06-2014 17:00:00 21.84167 C 41.5833 % 8.22 C
2804 15-06-2014 18:00:00 22.2 C 40.9167 % 8.3 C
2805 15-06-2014 19:00:00 22.1 C 39.0000 % 7.51 C
2806 15-06-2014 20:00:00 21.1 C 40.7500 % 7.26 C
2807 15-06-2014 21:00:00 18.63333 C 52.6667 % 8.78 C
2808 15-06-2014 22:00:00 15.475 C 65.9167 % 9.14 C
2809 15-06-2014 23:00:00 14.56667 C 71.7500 % 9.53 C
2810 16-06-2014 00:00:00 14.225 C 75.7500 % 10.01 C
2811 16-06-2014 01:00:00 12.83333 C 80.8333 % 9.63 C
2812 16-06-2014 02:00:00 11.89167 C 84.8333 % 9.42 C
2813 16-06-2014 03:00:00 11.675 C 87.2500 % 9.63 C
2814 16-06-2014 04:00:00 12.1 C 87.6667 % 10.12 C
2815 16-06-2014 05:00:00 12.7 C 88.0000 % 10.77 C
2816 16-06-2014 06:00:00 13.24167 C 88.8333 % 11.44 C
2817 16-06-2014 07:00:00 14.05833 C 86.3333 % 11.81 C
2818 16-06-2014 08:00:00 14.24167 C 84.4167 % 11.65 C
2819 16-06-2014 09:00:00 14.84167 C 81.7500 % 11.75 C
2820 16-06-2014 10:00:00 15.45833 C 79.1667 % 11.87 C
2821 16-06-2014 11:00:00 16.39167 C 73.4167 % 11.63 C
2822 16-06-2014 12:00:00 16.61667 C 70.4167 % 11.22 C
2823 16-06-2014 13:00:00 17.84167 C 63.8333 % 10.9 C
2824 16-06-2014 14:00:00 18.50833 C 60.3333 % 10.69 C
2825 16-06-2014 15:00:00 19.93333 C 54.2500 % 10.42 C
Sensor: Nr:Datum:Temp:Feuchte:Taupunkt:
Aussen-T/F 2826 16-06-2014 16:00:00 19.68333 C 54.8333 % 10.35 C
2827 16-06-2014 17:00:00 18.34167 C 59.7500 % 10.38 C
2828 16-06-2014 18:00:00 17.41667 C 65.6667 % 10.93 C
2829 16-06-2014 19:00:00 17.225 C 69.1667 % 11.53 C
2830 16-06-2014 20:00:00 17.20833 C 69.4167 % 11.57 C
2831 16-06-2014 21:00:00 16.75833 C 72.2500 % 11.74 C
2832 16-06-2014 22:00:00 16.08333 C 76.8333 % 12.02 C
2833 16-06-2014 23:00:00 15.59167 C 78.7500 % 11.92 C
2834 17-06-2014 00:00:00 15.58333 C 76.7500 % 11.52 C
2835 17-06-2014 01:00:00 15.575 C 76.9167 % 11.55 C
2836 17-06-2014 02:00:00 15.38333 C 75.5000 % 11.08 C
2837 17-06-2014 03:00:00 14.975 C 75.4167 % 10.67 C
2838 17-06-2014 04:00:00 14.33333 C 77.3333 % 10.42 C
2839 17-06-2014 05:00:00 14.00833 C 78.8333 % 10.4 C
2840 17-06-2014 06:00:00 13.95 C 79.2500 % 10.42 C
2841 17-06-2014 07:00:00 13.975 C 78.5000 % 10.3 C
2842 17-06-2014 08:00:00 14.88333 C 74.0833 % 10.31 C
2843 17-06-2014 09:00:00 16.33333 C 66.7500 % 10.14 C
2844 17-06-2014 10:00:00 16.60833 C 65.5833 % 10.14 C
2845 17-06-2014 11:00:00 18.14167 C 61.7500 % 10.69 C
2846 17-06-2014 12:00:00 19.8 C 55.5833 % 10.66 C
2847 17-06-2014 13:00:00 19.75833 C 57.8333 % 11.22 C
2848 17-06-2014 14:00:00 20.55833 C 57.1667 % 11.79 C
2849 17-06-2014 15:00:00 20.41667 C 58.3333 % 11.97 C
2850 17-06-2014 16:00:00 20.98333 C 57.6667 % 12.32 C
Sensor: Nr:Datum:Temp:Feuchte:Taupunkt:
Aussen-T/F 2851 17-06-2014 17:00:00 21.58333 C 55.4167 % 12.28 C
2852 17-06-2014 18:00:00 21.94167 C 52.1667 % 11.69 C
2853 17-06-2014 19:00:00 20.73333 C 51.5833 % 10.41 C
2854 17-06-2014 20:00:00 19.93333 C 53.1667 % 10.12 C
2855 17-06-2014 21:00:00 17.30833 C 64.9167 % 10.65 C
2856 17-06-2014 22:00:00 15.78333 C 74.6667 % 11.3 C
2857 17-06-2014 23:00:00 15.375 C 80.0000 % 11.95 C
2858 18-06-2014 00:00:00 14.49167 C 84.2500 % 11.87 C
2859 18-06-2014 01:00:00 13.575 C 86.4167 % 11.35 C
2860 18-06-2014 02:00:00 12.9 C 88.8333 % 11.1 C
2861 18-06-2014 03:00:00 12.325 C 91.6667 % 11.01 C
2862 18-06-2014 04:00:00 11.925 C 93.3333 % 10.88 C
2863 18-06-2014 05:00:00 12.09167 C 94.7500 % 11.28 C
2864 18-06-2014 06:00:00 13.33333 C 94.0000 % 12.39 C
2865 18-06-2014 07:00:00 14.475 C 89.9167 % 12.84 C
2866 18-06-2014 08:00:00 15.175 C 86.3333 % 12.91 C
2867 18-06-2014 09:00:00 15.83333 C 83.0000 % 12.95 C
2868 18-06-2014 10:00:00 16.46667 C 80.7500 % 13.15 C
2869 18-06-2014 11:00:00 17.525 C 76.8333 % 13.42 C
2870 18-06-2014 12:00:00 19.23333 C 71.4167 % 13.94 C
2871 18-06-2014 13:00:00 21.29167 C 63.8333 % 14.17 C
2872 18-06-2014 14:00:00 23.38333 C 54.0833 % 13.57 C
2873 18-06-2014 15:00:00 24.38333 C 45.1667 % 11.74 C
2874 18-06-2014 16:00:00 23.71667 C 43.8333 % 10.69 C
2875 18-06-2014 17:00:00 24.76667 C 39.5000 % 10.07 C
Sensor: Nr:Datum:Temp:Feuchte:Taupunkt:
Aussen-T/F 2876 18-06-2014 18:00:00 24.375 C 41.1667 % 10.34 C
2877 18-06-2014 19:00:00 23.00833 C 46.4167 % 10.91 C
2878 18-06-2014 20:00:00 21.025 C 54.0833 % 11.39 C
2879 18-06-2014 21:00:00 19.13333 C 60.6667 % 11.36 C
2880 18-06-2014 22:00:00 16.48333 C 70.6667 % 11.14 C
2881 18-06-2014 23:00:00 15.4 C 74.9167 % 10.98 C
2882 19-06-2014 00:00:00 14.64167 C 78.0833 % 10.87 C
2883 19-06-2014 01:00:00 13.625 C 82.7500 % 10.75 C
2884 19-06-2014 02:00:00 12.525 C 87.0833 % 10.44 C
2885 19-06-2014 03:00:00 11.61667 C 90.2500 % 10.08 C
2886 19-06-2014 04:00:00 11.175 C 92.2500 % 9.97 C
2887 19-06-2014 05:00:00 11.54167 C 92.4167 % 10.36 C
2888 19-06-2014 06:00:00 11.675 C 92.4167 % 10.49 C
2889 19-06-2014 07:00:00 12.94167 C 89.5833 % 11.27 C
2890 19-06-2014 08:00:00 14.28333 C 86.4167 % 12.05 C
2891 19-06-2014 09:00:00 14.93333 C 81.9167 % 11.87 C
2892 19-06-2014 10:00:00 15.775 C 73.4167 % 11.04 C
2893 19-06-2014 11:00:00 16.075 C 70.0000 % 10.61 C
2894 19-06-2014 12:00:00 17.16667 C 66.9167 % 10.97 C
2895 19-06-2014 13:00:00 18.225 C 61.9167 % 10.81 C
2896 19-06-2014 14:00:00 19.04167 C 57.9167 % 10.57 C
2897 19-06-2014 15:00:00 19.39167 C 58.0000 % 10.92 C
2898 19-06-2014 16:00:00 20.78333 C 54.0833 % 11.17 C
2899 19-06-2014 17:00:00 20.78333 C 53.7500 % 11.07 C
2900 19-06-2014 18:00:00 19.53333 C 58.2500 % 11.12 C
Sensor: Nr:Datum:Temp:Feuchte:Taupunkt:
Aussen-T/F 2901 19-06-2014 19:00:00 18.5 C 62.1667 % 11.13 C
2902 19-06-2014 20:00:00 17.4 C 69.5000 % 11.77 C
2903 19-06-2014 21:00:00 15.31667 C 85.3333 % 12.87 C
2904 19-06-2014 22:00:00 14.52222 C 90.8889 % 13.05 C
2905 19-06-2014 23:00:00 14.54 C 89.0000 % 12.75 C
2906 20-06-2014 06:00:00 13.1 C 87.0000 % 10.99 C
2907 20-06-2014 07:00:00 13.25 C 86.0833 % 10.98 C
2908 20-06-2014 08:00:00 13.43333 C 85.2500 % 11.01 C
2909 20-06-2014 09:00:00 13.64167 C 85.8333 % 11.32 C
2910 20-06-2014 10:00:00 15.275 C 76.0833 % 11.09 C
2911 20-06-2014 11:00:00 14.9 C 75.9167 % 10.69 C
2912 20-06-2014 12:00:00 15.61667 C 74.5000 % 11.1 C
2913 20-06-2014 13:00:00 15.625 C 71.5833 % 10.51 C
2914 20-06-2014 14:00:00 15.78333 C 71.0000 % 10.54 C
2915 20-06-2014 15:00:00 16.33333 C 68.4167 % 10.51 C
2916 20-06-2014 16:00:00 17.775 C 62.2500 % 10.46 C
2917 20-06-2014 17:00:00 17.69167 C 59.4167 % 9.69 C
2918 20-06-2014 18:00:00 16.9 C 61.7500 % 9.52 C
2919 20-06-2014 19:00:00 17.29167 C 60.4167 % 9.56 C
2920 20-06-2014 20:00:00 16.875 C 61.0000 % 9.31 C
2921 20-06-2014 21:00:00 15.65833 C 66.6667 % 9.48 C
2922 20-06-2014 22:00:00 15.85 C 65.8333 % 9.48 C
2923 20-06-2014 23:00:00 15.275 C 69.9167 % 9.82 C
2924 21-06-2014 00:00:00 14.65 C 74.3333 % 10.14 C
2925 21-06-2014 01:00:00 14.06667 C 77.4167 % 10.18 C
Sensor: Nr:Datum:Temp:Feuchte:Taupunkt:
Aussen-T/F 2926 21-06-2014 02:00:00 14.00833 C 77.5000 % 10.14 C
2927 21-06-2014 03:00:00 13.725 C 78.6667 % 10.09 C
2928 21-06-2014 04:00:00 13.525 C 80.0000 % 10.15 C
2929 21-06-2014 05:00:00 12.51667 C 84.5833 % 9.99 C
2930 21-06-2014 06:00:00 12.71667 C 84.3333 % 10.14 C
2931 21-06-2014 07:00:00 13.20833 C 82.5833 % 10.31 C
2932 21-06-2014 08:00:00 13.825 C 80.4167 % 10.52 C
2933 21-06-2014 09:00:00 14.69167 C 75.0833 % 10.33 C
2934 21-06-2014 10:00:00 15.86667 C 69.5000 % 10.3 C
2935 21-06-2014 11:00:00 17.04167 C 62.5833 % 9.85 C
2936 21-06-2014 12:00:00 17.75833 C 57.5833 % 9.29 C
2937 21-06-2014 13:00:00 19.25 C 52.9167 % 9.42 C
2938 21-06-2014 14:00:00 20.025 C 49.4167 % 9.12 C
2939 21-06-2014 15:00:00 20.8 C 48.0000 % 9.4 C
2940 21-06-2014 16:00:00 21.43333 C 46.5000 % 9.5 C
2941 21-06-2014 17:00:00 21.36667 C 45.3333 % 9.06 C
2942 21-06-2014 18:00:00 21.39167 C 44.5000 % 8.81 C
2943 21-06-2014 19:00:00 21.26667 C 44.5000 % 8.7 C
2944 21-06-2014 20:00:00 20.05 C 48.9167 % 8.99 C
2945 21-06-2014 21:00:00 17.18333 C 63.4167 % 10.18 C
2946 21-06-2014 22:00:00 15.00833 C 70.0000 % 9.59 C
2947 21-06-2014 23:00:00 13.53333 C 76.0833 % 9.41 C
2948 22-06-2014 00:00:00 12.40833 C 80.6667 % 9.18 C
2949 22-06-2014 01:00:00 11.59167 C 83.5000 % 8.9 C
2950 22-06-2014 02:00:00 10.76667 C 86.3333 % 8.58 C
Sensor: Nr:Datum:Temp:Feuchte:Taupunkt:
Aussen-T/F 2951 22-06-2014 03:00:00 10.08333 C 88.5000 % 8.27 C
2952 22-06-2014 04:00:00 9.61667 C 90.3333 % 8.11 C
2953 22-06-2014 05:00:00 9.91667 C 90.1667 % 8.38 C
2954 22-06-2014 06:00:00 10.14167 C 89.5000 % 8.5 C
2955 22-06-2014 07:00:00 11.01667 C 86.5833 % 8.87 C
2956 22-06-2014 08:00:00 12.925 C 83.0000 % 10.11 C
2957 22-06-2014 09:00:00 16.475 C 77.0000 % 12.43 C
2958 22-06-2014 10:00:00 18.10833 C 71.0000 % 12.77 C
2959 22-06-2014 11:00:00 19.56667 C 61.0833 % 11.87 C
2960 22-06-2014 12:00:00 20.65833 C 55.2500 % 11.37 C
2961 22-06-2014 13:00:00 21.7125 C 48.1250 % 10.27 C
2962 22-06-2014 14:00:00 22.56667 C 41.9167 % 8.99 C
2963 22-06-2014 15:00:00 22.99167 C 40.2500 % 8.77 C
2964 22-06-2014 16:00:00 23.65833 C 37.9167 % 8.48 C
2965 22-06-2014 17:00:00 23.46667 C 39.2500 % 8.82 C
2966 22-06-2014 18:00:00 22.24167 C 43.1667 % 9.13 C
2967 22-06-2014 19:00:00 21.64167 C 44.8333 % 9.15 C
2968 22-06-2014 20:00:00 20.18333 C 49.7500 % 9.36 C
2969 22-06-2014 21:00:00 17.93333 C 58.7500 % 9.75 C
2970 22-06-2014 22:00:00 15.83333 C 68.1667 % 9.98 C
2971 22-06-2014 23:00:00 15.25833 C 71.0833 % 10.06 C
2972 23-06-2014 00:00:00 14.09167 C 75.6667 % 9.86 C
2973 23-06-2014 01:00:00 13.09167 C 79.2500 % 9.58 C
2974 23-06-2014 02:00:00 11.79167 C 84.5833 % 9.28 C
2975 23-06-2014 03:00:00 10.9 C 87.7500 % 8.95 C
Sensor: Nr:Datum:Temp:Feuchte:Taupunkt:
Aussen-T/F 2976 23-06-2014 04:00:00 10.19167 C 90.1667 % 8.65 C
2977 23-06-2014 05:00:00 9.81667 C 91.7500 % 8.54 C
2978 23-06-2014 06:00:00 9.94167 C 91.5000 % 8.62 C
2979 23-06-2014 07:00:00 10.51667 C 92.0833 % 9.29 C
2980 23-06-2014 08:00:00 13.175 C 84.4167 % 10.61 C
2981 23-06-2014 09:00:00 15.41667 C 74.5000 % 10.91 C
2982 23-06-2014 10:00:00 17.74167 C 63.5833 % 10.75 C
2983 23-06-2014 11:00:00 19.175 C 57.2500 % 10.52 C
2984 23-06-2014 12:00:00 20.40833 C 52.2500 % 10.3 C
2985 23-06-2014 13:00:00 21.45 C 49.0000 % 10.3 C
2986 23-06-2014 14:00:00 22.35833 C 46.1667 % 10.24 C
2987 23-06-2014 15:00:00 23.7 C 41.5000 % 9.86 C
2988 23-06-2014 16:00:00 24.18333 C 39.7500 % 9.65 C
2989 23-06-2014 17:00:00 24.175 C 40.7500 % 10.01 C
2990 23-06-2014 18:00:00 23.43333 C 42.0000 % 9.8 C
2991 23-06-2014 19:00:00 22.44167 C 44.3333 % 9.71 C
2992 23-06-2014 20:00:00 21.25833 C 47.7500 % 9.74 C
2993 23-06-2014 21:00:00 19.95833 C 52.7500 % 10.03 C
2994 23-06-2014 22:00:00 16.83333 C 65.3333 % 10.3 C
2995 23-06-2014 23:00:00 15.5 C 70.5000 % 10.16 C
2996 24-06-2014 00:00:00 14.69167 C 74.2500 % 10.16 C
2997 24-06-2014 01:00:00 13.59167 C 78.5833 % 9.94 C
2998 24-06-2014 02:00:00 12.5 C 82.6667 % 9.63 C
2999 24-06-2014 03:00:00 11.575 C 86.1667 % 9.34 C
3000 24-06-2014 04:00:00 10.83333 C 89.0833 % 9.11 C
Sensor: Nr:Datum:Temp:Feuchte:Taupunkt:
Aussen-T/F 3001 24-06-2014 05:00:00 10.35 C 91.4167 % 9.01 C
3002 24-06-2014 06:00:00 10.30833 C 92.2500 % 9.11 C
3003 24-06-2014 07:00:00 11.25833 C 91.2500 % 9.89 C
3004 24-06-2014 08:00:00 13.95 C 82.5833 % 11.04 C
3005 24-06-2014 09:00:00 16.775 C 74.0000 % 12.12 C
3006 24-06-2014 10:00:00 19.95833 C 61.6667 % 12.38 C
3007 24-06-2014 11:00:00 21.475 C 51.1667 % 10.97 C
3008 24-06-2014 12:00:00 23.075 C 45.6667 % 10.72 C
3009 24-06-2014 13:00:00 23.16667 C 44.0000 % 10.25 C
3010 24-06-2014 14:00:00 23.09167 C 44.5833 % 10.38 C
3011 24-06-2014 15:00:00 23.8 C 44.0833 % 10.85 C
3012 24-06-2014 16:00:00 22.93333 C 47.1667 % 11.08 C
3013 24-06-2014 17:00:00 17.88333 C 83.2500 % 15 C
3014 24-06-2014 18:00:00 16.7 C 86.5000 % 14.44 C
3015 24-06-2014 19:00:00 15.2 C 94.0000 % 14.24 C
3016 24-06-2014 22:00:00 13.5 C 100.0000 % 13.5 C
3017 25-06-2014 08:00:00 14.2 C 89.2500 % 12.46 C
3018 25-06-2014 09:00:00 14.75 C 73.9167 % 10.15 C
3019 25-06-2014 10:00:00 15.61667 C 63.9167 % 8.82 C
3020 25-06-2014 11:00:00 17.05 C 56.5000 % 8.35 C
3021 25-06-2014 12:00:00 17.78333 C 51.2500 % 7.59 C
3022 25-06-2014 13:00:00 17.86667 C 51.5833 % 7.77 C
3023 25-06-2014 14:00:00 18.48333 C 49.5833 % 7.75 C
3024 25-06-2014 15:00:00 18.41667 C 49.4167 % 7.64 C
3025 25-06-2014 16:00:00 19.74167 C 43.6667 % 7.04 C
Sensor: Nr:Datum:Temp:Feuchte:Taupunkt:
Aussen-T/F 3026 25-06-2014 17:00:00 19.66667 C 44.0000 % 7.09 C
3027 25-06-2014 18:00:00 20.75 C 42.0000 % 7.38 C
3028 25-06-2014 19:00:00 19.78333 C 44.4167 % 7.33 C
3029 25-06-2014 20:00:00 18.74167 C 49.0833 % 7.84 C
3030 25-06-2014 21:00:00 16.46667 C 58.9167 % 8.42 C
3031 25-06-2014 22:00:00 13.725 C 71.8333 % 8.74 C
3032 25-06-2014 23:00:00 12.58333 C 76.2500 % 8.52 C
3033 26-06-2014 00:00:00 11.16667 C 81.2500 % 8.08 C
3034 26-06-2014 01:00:00 10.275 C 84.9167 % 7.85 C
3035 26-06-2014 02:00:00 9.45 C 87.7500 % 7.52 C
3036 26-06-2014 03:00:00 8.9 C 89.2500 % 7.23 C
3037 26-06-2014 04:00:00 8.58333 C 90.7500 % 7.16 C
3038 26-06-2014 05:00:00 8.53333 C 91.7500 % 7.27 C
3039 26-06-2014 06:00:00 8.525 C 91.7500 % 7.26 C
3040 26-06-2014 07:00:00 9.325 C 90.2500 % 7.81 C
3041 26-06-2014 08:00:00 11.28333 C 84.0833 % 8.7 C
3042 26-06-2014 09:00:00 13.70833 C 77.8333 % 9.91 C
3043 26-06-2014 10:00:00 16.88333 C 66.9167 % 10.7 C
3044 26-06-2014 11:00:00 18.96667 C 54.8333 % 9.69 C
3045 26-06-2014 12:00:00 20.20833 C 50.4167 % 9.58 C
3046 26-06-2014 13:00:00 21.68333 C 46.2500 % 9.65 C
3047 26-06-2014 14:00:00 22.30833 C 42.5000 % 8.96 C
3048 26-06-2014 15:00:00 23.05833 C 39.3333 % 8.49 C
3049 26-06-2014 16:00:00 23.74167 C 35.6667 % 7.66 C
3050 26-06-2014 17:00:00 23.69167 C 35.5000 % 7.54 C
Sensor: Nr:Datum:Temp:Feuchte:Taupunkt:
Aussen-T/F 3051 26-06-2014 18:00:00 24.40833 C 33.7500 % 7.43 C
3052 26-06-2014 19:00:00 23.54167 C 33.4167 % 6.53 C
3053 26-06-2014 20:00:00 21.55 C 43.5000 % 8.62 C
3054 26-06-2014 21:00:00 17.84167 C 57.7500 % 9.41 C
3055 26-06-2014 22:00:00 16.01667 C 62.0833 % 8.77 C
3056 26-06-2014 23:00:00 14.9 C 66.3333 % 8.69 C
3057 27-06-2014 00:00:00 13.68333 C 72.0000 % 8.73 C
3058 27-06-2014 01:00:00 12.68333 C 77.0833 % 8.78 C
3059 27-06-2014 02:00:00 11.75 C 80.3333 % 8.48 C
3060 27-06-2014 03:00:00 11.15833 C 82.6667 % 8.32 C
3061 27-06-2014 04:00:00 10.43333 C 85.3333 % 8.08 C
3062 27-06-2014 05:00:00 10.1 C 87.3333 % 8.09 C
3063 27-06-2014 06:00:00 10.26667 C 87.7500 % 8.33 C
3064 27-06-2014 07:00:00 11.4 C 85.6667 % 9.09 C
3065 27-06-2014 08:00:00 14.14167 C 75.8333 % 9.95 C
3066 27-06-2014 09:00:00 16.15 C 71.4167 % 10.98 C
3067 27-06-2014 10:00:00 18.03333 C 64.0833 % 11.15 C
3068 27-06-2014 11:00:00 20.20833 C 54.9167 % 10.86 C
3069 27-06-2014 12:00:00 21.75 C 46.4167 % 9.76 C
3070 27-06-2014 13:00:00 23.825 C 40.0000 % 9.42 C
3071 27-06-2014 14:00:00 25.50833 C 38.2500 % 10.25 C
3072 27-06-2014 15:00:00 25.63333 C 38.0000 % 10.26 C
3073 27-06-2014 16:00:00 26.79167 C 35.5000 % 10.27 C
3074 27-06-2014 17:00:00 23.91667 C 45.1667 % 11.32 C
3075 27-06-2014 18:00:00 22.175 C 54.0000 % 12.43 C
Sensor: Nr:Datum:Temp:Feuchte:Taupunkt:
Aussen-T/F 3076 27-06-2014 19:00:00 20.675 C 66.5833 % 14.23 C
3077 27-06-2014 20:00:00 19.93333 C 71.7500 % 14.68 C
3078 27-06-2014 21:00:00 18.43333 C 78.1667 % 14.56 C
3079 27-06-2014 22:00:00 16.525 C 87.2500 % 14.4 C
3080 27-06-2014 23:00:00 15.825 C 88.7500 % 13.97 C
3081 28-06-2014 00:00:00 16.36667 C 85.9167 % 14.01 C
3082 28-06-2014 01:00:00 15.19167 C 88.2500 % 13.26 C
3083 28-06-2014 02:00:00 14.325 C 90.6667 % 12.82 C
3084 28-06-2014 03:00:00 14.15 C 91.4167 % 12.77 C
3085 28-06-2014 04:00:00 13.65 C 92.0000 % 12.38 C
3086 28-06-2014 05:00:00 13.15833 C 92.8333 % 12.03 C
3087 28-06-2014 06:00:00 13.46667 C 92.4167 % 12.26 C
3088 28-06-2014 07:00:00 14.45 C 89.9167 % 12.82 C
3089 28-06-2014 08:00:00 16.025 C 85.4167 % 13.58 C
3090 28-06-2014 09:00:00 17.55833 C 78.6667 % 13.81 C
3091 28-06-2014 10:00:00 19.23333 C 71.5833 % 13.97 C
3092 28-06-2014 11:00:00 20.88333 C 65.3333 % 14.14 C
3093 28-06-2014 12:00:00 22.03333 C 59.9167 % 13.89 C
3094 28-06-2014 13:00:00 20.275 C 75.0833 % 15.72 C
3095 28-06-2014 14:00:00 18.69167 C 89.4167 % 16.92 C
3096 28-06-2014 15:00:00 18 C 90.5000 % 16.42 C
3097 28-06-2014 16:00:00 16.78182 C 93.6364 % 15.75 C
3098 28-06-2014 17:00:00 16.55 C 94.3750 % 15.64 C
3099 28-06-2014 18:00:00 15.9 C 94.5833 % 15.03 C
3100 28-06-2014 19:00:00 15.45833 C 95.3333 % 14.72 C
Sensor: Nr:Datum:Temp:Feuchte:Taupunkt:
Aussen-T/F 3101 28-06-2014 20:00:00 14.91667 C 95.3333 % 14.18 C
3102 28-06-2014 21:00:00 14.73333 C 96.0000 % 14.1 C
3103 28-06-2014 22:00:00 14.43333 C 96.3333 % 13.86 C
3104 28-06-2014 23:00:00 14.3 C 97.0000 % 13.83 C
3105 29-06-2014 00:00:00 14.45 C 97.0000 % 13.98 C
3106 29-06-2014 01:00:00 14.4 C 97.0000 % 13.93 C
3107 29-06-2014 04:00:00 14.13333 C 97.3333 % 13.72 C
3108 29-06-2014 05:00:00 13.80833 C 97.0000 % 13.34 C
3109 29-06-2014 06:00:00 13.55833 C 96.7500 % 13.05 C
3110 29-06-2014 07:00:00 13.275 C 96.0000 % 12.65 C
3111 29-06-2014 08:00:00 13.26667 C 96.0000 % 12.64 C
3112 29-06-2014 09:00:00 13.30833 C 97.0000 % 12.84 C
3113 29-06-2014 10:00:00 13.65833 C 97.0000 % 13.19 C
3114 29-06-2014 11:00:00 13.84167 C 96.8333 % 13.35 C
3115 29-06-2014 12:00:00 14.45 C 96.0000 % 13.82 C
3116 29-06-2014 13:00:00 16.725 C 84.9167 % 14.18 C
3117 29-06-2014 14:00:00 18.7 C 77.5000 % 14.69 C
3118 29-06-2014 15:00:00 17.65 C 85.0833 % 15.11 C
3119 29-06-2014 16:00:00 15.58333 C 93.3333 % 14.51 C
3120 29-06-2014 17:00:00 16.23333 C 84.5833 % 13.63 C
3121 29-06-2014 18:00:00 15.89167 C 87.0000 % 13.73 C
3122 29-06-2014 19:00:00 14.59167 C 93.5000 % 13.56 C
3123 29-06-2014 20:00:00 14.21667 C 95.5000 % 13.51 C
3124 29-06-2014 21:00:00 13.8 C 95.0000 % 13.01 C
3125 30-06-2014 01:00:00 12.3 C 100.0000 % 12.3 C
Sensor: Nr:Datum:Temp:Feuchte:Taupunkt:
Aussen-T/F 3126 30-06-2014 02:00:00 12.8 C 97.4286 % 12.4 C
3127 30-06-2014 03:00:00 12.75 C 97.0000 % 12.29 C
3128 30-06-2014 04:00:00 12.53333 C 97.5833 % 12.16 C
3129 30-06-2014 05:00:00 11.975 C 97.1667 % 11.54 C
3130 30-06-2014 06:00:00 11.95833 C 97.7500 % 11.61 C
3131 30-06-2014 07:00:00 12.525 C 97.7500 % 12.18 C
3132 30-06-2014 08:00:00 14 C 93.2500 % 12.93 C
3133 30-06-2014 09:00:00 14.76667 C 90.0000 % 13.14 C
3134 30-06-2014 10:00:00 16.6 C 75.7500 % 12.3 C
3135 30-06-2014 11:00:00 17.19167 C 71.9167 % 12.09 C
3136 30-06-2014 12:00:00 17.76667 C 70.0000 % 12.23 C
3137 30-06-2014 13:00:00 20.13333 C 54.8333 % 10.77 C
3138 30-06-2014 14:00:00 20.525 C 48.7500 % 9.37 C
3139 30-06-2014 15:00:00 21.2 C 49.3333 % 10.17 C
3140 30-06-2014 16:00:00 19.96667 C 55.0000 % 10.66 C
3141 30-06-2014 17:00:00 19.45833 C 51.5833 % 9.23 C
3142 30-06-2014 18:00:00 19.725 C 50.1667 % 9.07 C
3143 30-06-2014 19:00:00 18.65833 C 55.7500 % 9.65 C
3144 30-06-2014 20:00:00 17.55833 C 59.9167 % 9.69 C
3145 30-06-2014 21:00:00 15.35 C 76.6667 % 11.28 C
3146 30-06-2014 22:00:00 13.38333 C 82.6667 % 10.5 C
3147 30-06-2014 23:00:00 12.225 C 85.5000 % 9.87 C
3148 01-07-2014 00:00:00 11.15 C 88.6667 % 9.35 C
3149 01-07-2014 01:00:00 10.30833 C 90.5833 % 8.84 C
3150 01-07-2014 02:00:00 9.825 C 92.0000 % 8.59 C
Sensor: Nr:Datum:Temp:Feuchte:Taupunkt:
Aussen-T/F 3151 01-07-2014 03:00:00 9.35833 C 93.0000 % 8.29 C
3152 01-07-2014 04:00:00 8.95833 C 94.0000 % 8.05 C
3153 01-07-2014 05:00:00 8.74167 C 94.9167 % 7.97 C
3154 01-07-2014 06:00:00 8.84167 C 95.1667 % 8.11 C
3155 01-07-2014 07:00:00 9.84167 C 95.5000 % 9.16 C
3156 01-07-2014 08:00:00 12.05 C 90.5833 % 10.56 C
3157 01-07-2014 09:00:00 14.43333 C 81.5000 % 11.31 C
3158 01-07-2014 10:00:00 16.875 C 70.4167 % 11.46 C
3159 01-07-2014 11:00:00 18.9 C 63.3333 % 11.79 C
3160 01-07-2014 12:00:00 20.2 C 57.5000 % 11.55 C
3161 01-07-2014 13:00:00 20.95833 C 53.0833 % 11.05 C
3162 01-07-2014 14:00:00 21.45833 C 48.8333 % 10.25 C
3163 01-07-2014 15:00:00 22.36667 C 42.8333 % 9.13 C
3164 01-07-2014 16:00:00 21.31667 C 44.9167 % 8.88 C
3165 01-07-2014 17:00:00 20.8 C 45.9167 % 8.74 C
3166 01-07-2014 18:00:00 20.75833 C 47.0000 % 9.05 C
3167 01-07-2014 19:00:00 21.55833 C 44.4167 % 8.94 C
3168 01-07-2014 20:00:00 20.54167 C 45.7500 % 8.45 C
3169 01-07-2014 21:00:00 18.025 C 57.8333 % 9.6 C
3170 01-07-2014 22:00:00 14.73333 C 73.0000 % 9.95 C
3171 01-07-2014 23:00:00 13.60833 C 76.2500 % 9.51 C
3172 02-07-2014 00:00:00 12.49167 C 79.5833 % 9.06 C
3173 02-07-2014 01:00:00 11.05 C 83.8333 % 8.42 C
3174 02-07-2014 02:00:00 10.30833 C 86.0000 % 8.07 C
3175 02-07-2014 03:00:00 9.59167 C 88.8333 % 7.84 C
Sensor: Nr:Datum:Temp:Feuchte:Taupunkt:
Aussen-T/F 3176 02-07-2014 04:00:00 9.075 C 91.0833 % 7.7 C
3177 02-07-2014 05:00:00 8.675 C 92.5000 % 7.53 C
3178 02-07-2014 06:00:00 8.68333 C 93.6667 % 7.72 C
3179 02-07-2014 07:00:00 9.45 C 93.6667 % 8.48 C
3180 02-07-2014 08:00:00 12.26667 C 87.8333 % 10.31 C
3181 02-07-2014 09:00:00 14.49167 C 79.5000 % 10.99 C
3182 02-07-2014 10:00:00 17.625 C 67.0000 % 11.43 C
3183 02-07-2014 11:00:00 20.30833 C 55.6667 % 11.16 C
3184 02-07-2014 12:00:00 21.58333 C 50.4167 % 10.85 C
3185 02-07-2014 13:00:00 22.55833 C 46.6667 % 10.58 C
3186 02-07-2014 14:00:00 23.24167 C 45.5000 % 10.82 C
3187 02-07-2014 15:00:00 23.81667 C 41.4167 % 9.93 C
3188 02-07-2014 16:00:00 24.79167 C 36.6667 % 8.99 C
3189 02-07-2014 17:00:00 25.075 C 35.1667 % 8.62 C
3190 02-07-2014 18:00:00 24.95833 C 33.7500 % 7.91 C
3191 02-07-2014 19:00:00 23.875 C 35.6667 % 7.77 C
3192 02-07-2014 20:00:00 22.43333 C 40.5000 % 8.36 C
3193 02-07-2014 21:00:00 17.93333 C 61.6667 % 10.47 C
3194 02-07-2014 22:00:00 15.70833 C 70.7500 % 10.42 C
3195 02-07-2014 23:00:00 14.68333 C 75.4167 % 10.39 C
3196 03-07-2014 00:00:00 13.44167 C 78.8333 % 9.85 C
3197 03-07-2014 01:00:00 12.61667 C 80.6667 % 9.38 C
3198 03-07-2014 02:00:00 11.75833 C 83.8333 % 9.12 C
3199 03-07-2014 03:00:00 11.18333 C 86.0833 % 8.95 C
3200 03-07-2014 04:00:00 10.44167 C 88.4167 % 8.61 C
Sensor: Nr:Datum:Temp:Feuchte:Taupunkt:
Aussen-T/F 3201 03-07-2014 05:00:00 9.86667 C 90.7500 % 8.43 C
3202 03-07-2014 06:00:00 9.85 C 92.0000 % 8.61 C
3203 03-07-2014 07:00:00 10.49167 C 92.0000 % 9.25 C
3204 03-07-2014 08:00:00 13.18333 C 84.3333 % 10.6 C
3205 03-07-2014 09:00:00 14.98333 C 81.0000 % 11.75 C
3206 03-07-2014 10:00:00 17.64167 C 77.5000 % 13.66 C
3207 03-07-2014 11:00:00 21.6 C 59.5000 % 13.38 C
3208 03-07-2014 12:00:00 25.525 C 37.4167 % 9.94 C
3209 03-07-2014 13:00:00 27.04167 C 34.2500 % 9.95 C
3210 03-07-2014 14:00:00 28.125 C 32.4167 % 10.08 C
3211 03-07-2014 15:00:00 29.16667 C 28.2500 % 8.93 C
3212 03-07-2014 16:00:00 29.96667 C 25.8333 % 8.29 C
3213 03-07-2014 17:00:00 30.475 C 25.5000 % 8.53 C
3214 03-07-2014 18:00:00 30.68333 C 22.5000 % 6.87 C
3215 03-07-2014 19:00:00 29.55833 C 24.8333 % 7.36 C
3216 03-07-2014 20:00:00 26.875 C 34.1667 % 9.77 C
3217 03-07-2014 21:00:00 22.16667 C 50.5833 % 11.43 C
3218 03-07-2014 22:00:00 19.95833 C 57.3333 % 11.28 C
3219 03-07-2014 23:00:00 18.33333 C 63.5833 % 11.31 C
3220 04-07-2014 00:00:00 16.86667 C 68.4167 % 11.02 C
3221 04-07-2014 01:00:00 15.7 C 72.8333 % 10.84 C
3222 04-07-2014 02:00:00 14.58333 C 76.7500 % 10.55 C
3223 04-07-2014 03:00:00 13.775 C 80.5833 % 10.5 C
3224 04-07-2014 04:00:00 13.25 C 83.0833 % 10.44 C
3225 04-07-2014 05:00:00 12.575 C 86.0000 % 10.3 C
Sensor: Nr:Datum:Temp:Feuchte:Taupunkt:
Aussen-T/F 3226 04-07-2014 06:00:00 12.30833 C 88.2500 % 10.42 C
3227 04-07-2014 07:00:00 13 C 88.5000 % 11.15 C
3228 04-07-2014 08:00:00 15.95833 C 80.3333 % 12.58 C
3229 04-07-2014 09:00:00 17.91667 C 75.7500 % 13.58 C
3230 04-07-2014 10:00:00 20.55 C 73.0000 % 15.54 C
3231 04-07-2014 11:00:00 23.8 C 64.5833 % 16.72 C
3232 04-07-2014 12:00:00 28.85 C 43.5000 % 15.2 C
3233 04-07-2014 13:00:00 30.25833 C 34.5000 % 12.88 C
3234 04-07-2014 14:00:00 29.64167 C 35.0000 % 12.56 C
3235 04-07-2014 15:00:00 28.525 C 41.7500 % 14.27 C
3236 04-07-2014 16:00:00 23.86667 C 61.4167 % 16 C
3237 04-07-2014 17:00:00 26.775 C 50.4167 % 15.61 C
3238 04-07-2014 18:00:00 26.975 C 51.7500 % 16.21 C
3239 04-07-2014 19:00:00 22.33333 C 70.8333 % 16.78 C
3240 04-07-2014 20:00:00 21.84167 C 65.5833 % 15.11 C
3241 04-07-2014 21:00:00 20.08333 C 75.6667 % 15.65 C
3242 04-07-2014 22:00:00 19.51667 C 77.0833 % 15.39 C
3243 04-07-2014 23:00:00 19.70833 C 75.3333 % 15.22 C
3244 05-07-2014 00:00:00 19.76667 C 74.9167 % 15.19 C
3245 05-07-2014 01:00:00 19.58333 C 75.6667 % 15.17 C
3246 05-07-2014 02:00:00 18.84167 C 78.0833 % 14.94 C
3247 05-07-2014 03:00:00 18.675 C 78.2500 % 14.81 C
3248 05-07-2014 04:00:00 18.44167 C 77.8333 % 14.5 C
3249 05-07-2014 05:00:00 18.21667 C 78.7500 % 14.47 C
3250 05-07-2014 06:00:00 18.03333 C 80.2500 % 14.58 C
Sensor: Nr:Datum:Temp:Feuchte:Taupunkt:
Aussen-T/F 3251 05-07-2014 07:00:00 18.56667 C 80.8333 % 15.21 C
3252 05-07-2014 08:00:00 20.28333 C 76.5833 % 16.04 C
3253 05-07-2014 09:00:00 20.68333 C 77.2500 % 16.56 C
3254 05-07-2014 10:00:00 22.49167 C 69.0000 % 16.52 C
3255 05-07-2014 11:00:00 22.825 C 63.0000 % 15.41 C
3256 05-07-2014 12:00:00 21.25833 C 74.5000 % 16.54 C
3257 05-07-2014 13:00:00 20.57273 C 81.8182 % 17.36 C
3258 05-07-2014 14:00:00 20.57 C 84.3000 % 17.83 C
3259 05-07-2014 15:00:00 21.23333 C 79.5000 % 17.54 C
3260 05-07-2014 16:00:00 21.825 C 75.7500 % 17.35 C
3261 05-07-2014 17:00:00 22.45 C 72.9167 % 17.35 C
3262 05-07-2014 18:00:00 22.26667 C 73.5000 % 17.3 C
3263 05-07-2014 19:00:00 21.43333 C 77.5833 % 17.35 C
3264 05-07-2014 20:00:00 21.075 C 79.5000 % 17.39 C
3265 05-07-2014 21:00:00 20.55 C 81.0833 % 17.19 C
3266 05-07-2014 22:00:00 20.25 C 81.9167 % 17.06 C
3267 05-07-2014 23:00:00 19.75 C 85.0000 % 17.16 C
3268 06-07-2014 00:00:00 18.96667 C 88.1667 % 16.96 C
3269 06-07-2014 01:00:00 18.24167 C 90.5833 % 16.68 C
3270 06-07-2014 02:00:00 18.1 C 91.5000 % 16.69 C
3271 06-07-2014 03:00:00 18.125 C 91.5000 % 16.72 C
3272 06-07-2014 04:00:00 18.05 C 91.5000 % 16.64 C
3273 06-07-2014 05:00:00 18 C 93.1667 % 16.88 C
3274 06-07-2014 06:00:00 17.93333 C 94.0833 % 16.97 C
3275 06-07-2014 07:00:00 19.43333 C 89.7500 % 17.71 C
Sensor: Nr:Datum:Temp:Feuchte:Taupunkt:
Aussen-T/F 3276 06-07-2014 08:00:00 21.675 C 81.4167 % 18.35 C
3277 06-07-2014 09:00:00 22.96667 C 74.1667 % 18.12 C
3278 06-07-2014 10:00:00 24.625 C 67.3333 % 18.17 C
3279 06-07-2014 11:00:00 26.3 C 59.5833 % 17.8 C
3280 06-07-2014 12:00:00 27.11667 C 54.5833 % 17.18 C
3281 06-07-2014 13:00:00 28.09167 C 49.8333 % 16.64 C
3282 06-07-2014 14:00:00 28.66667 C 47.5000 % 16.41 C
3283 06-07-2014 15:00:00 29.2 C 44.5000 % 15.87 C
3284 06-07-2014 16:00:00 30.04167 C 45.5833 % 17.01 C
3285 06-07-2014 17:00:00 31.19167 C 41.1667 % 16.44 C
3286 06-07-2014 18:00:00 30.70833 C 41.1667 % 16.01 C
3287 06-07-2014 19:00:00 29.45 C 46.0833 % 16.64 C
3288 06-07-2014 20:00:00 25.05833 C 56.0000 % 15.67 C
3289 06-07-2014 21:00:00 19.975 C 75.7500 % 15.57 C
3290 06-07-2014 22:00:00 17.76364 C 91.9091 % 16.43 C
3291 07-07-2014 01:00:00 17.825 C 92.5000 % 16.59 C
3292 07-07-2014 02:00:00 17.24286 C 91.1429 % 15.78 C
3293 07-07-2014 03:00:00 16.55833 C 90.0000 % 14.91 C
3294 07-07-2014 04:00:00 15.61667 C 91.8333 % 14.29 C
3295 07-07-2014 05:00:00 14.58333 C 93.3333 % 13.52 C
3296 07-07-2014 06:00:00 14.36667 C 94.5000 % 13.5 C
3297 07-07-2014 07:00:00 15.375 C 90.0000 % 13.74 C
3298 07-07-2014 08:00:00 15.86667 C 87.0000 % 13.71 C
3299 07-07-2014 09:00:00 16.78333 C 70.4167 % 11.38 C
3300 07-07-2014 10:00:00 18.09167 C 65.2500 % 11.47 C
Sensor: Nr:Datum:Temp:Feuchte:Taupunkt:
Aussen-T/F 3301 07-07-2014 11:00:00 19.5 C 56.3333 % 10.59 C
3302 07-07-2014 12:00:00 21.10833 C 51.5833 % 10.75 C
3303 07-07-2014 13:00:00 21.78333 C 50.5833 % 11.08 C
3304 07-07-2014 14:00:00 22.98333 C 46.5833 % 10.94 C
3305 07-07-2014 15:00:00 23.94167 C 41.6667 % 10.13 C
3306 07-07-2014 16:00:00 24.24167 C 39.3333 % 9.54 C
3307 07-07-2014 17:00:00 25.38333 C 39.0000 % 10.43 C
3308 07-07-2014 18:00:00 26.05 C 38.2500 % 10.73 C
3309 07-07-2014 19:00:00 24.98333 C 41.0833 % 10.85 C
3310 07-07-2014 20:00:00 23.23333 C 47.7500 % 11.54 C
3311 07-07-2014 21:00:00 20.96667 C 59.5833 % 12.81 C
3312 07-07-2014 22:00:00 19.325 C 66.4167 % 12.91 C
3313 07-07-2014 23:00:00 19.28333 C 66.9167 % 12.99 C
3314 08-07-2014 00:00:00 18.8 C 68.5000 % 12.88 C
3315 08-07-2014 01:00:00 18.25833 C 71.5000 % 13.02 C
3316 08-07-2014 02:00:00 17.88333 C 74.8333 % 13.36 C
3317 08-07-2014 03:00:00 17.1 C 82.8750 % 14.17 C
3318 08-07-2014 04:00:00 15.13333 C 95.0000 % 14.34 C
3319 08-07-2014 05:00:00 15 C 94.0000 % 14.04 C
3320 08-07-2014 07:00:00 14.81429 C 96.4286 % 14.25 C
3321 08-07-2014 08:00:00 15.04167 C 95.3333 % 14.3 C
3322 08-07-2014 09:00:00 15.35 C 95.1667 % 14.58 C
3323 08-07-2014 10:00:00 15.50833 C 94.4167 % 14.62 C
3324 08-07-2014 11:00:00 15.49167 C 95.0000 % 14.69 C
3325 08-07-2014 12:00:00 15.575 C 95.0833 % 14.79 C
Sensor: Nr:Datum:Temp:Feuchte:Taupunkt:
Aussen-T/F 3326 08-07-2014 13:00:00 15.71667 C 95.0000 % 14.92 C
3327 08-07-2014 14:00:00 15.84167 C 94.0000 % 14.88 C
3328 08-07-2014 15:00:00 15.76667 C 93.1667 % 14.67 C
3329 08-07-2014 16:00:00 15.70909 C 93.0000 % 14.58 C
3330 08-07-2014 17:00:00 15.76667 C 90.3333 % 14.19 C
3331 08-07-2014 18:00:00 15.50833 C 89.5000 % 13.79 C
3332 08-07-2014 19:00:00 15.05 C 89.6667 % 13.37 C
3333 08-07-2014 20:00:00 14.48333 C 90.5000 % 12.95 C
3334 08-07-2014 21:00:00 13.63333 C 91.8333 % 12.33 C
3335 08-07-2014 22:00:00 13.30833 C 94.0000 % 12.36 C
3336 08-07-2014 23:00:00 13.15833 C 94.8333 % 12.35 C
3337 09-07-2014 00:00:00 12.975 C 94.3333 % 12.09 C
3338 09-07-2014 01:00:00 12.64167 C 93.9167 % 11.69 C
3339 09-07-2014 02:00:00 12.15833 C 94.0000 % 11.22 C
3340 09-07-2014 03:00:00 11.74167 C 94.1667 % 10.84 C
3341 09-07-2014 04:00:00 11.71667 C 95.0000 % 10.94 C
3342 09-07-2014 05:00:00 11.86667 C 95.0000 % 11.09 C
3343 09-07-2014 06:00:00 11.94167 C 94.8333 % 11.14 C
3344 09-07-2014 07:00:00 11.825 C 94.5000 % 10.97 C
3345 09-07-2014 08:00:00 11.83333 C 95.5000 % 11.14 C
3346 09-07-2014 09:00:00 12.125 C 95.3333 % 11.4 C
3347 09-07-2014 10:00:00 12.33333 C 95.5833 % 11.65 C
3348 09-07-2014 11:00:00 12.66667 C 95.9167 % 12.03 C
3349 09-07-2014 12:00:00 13.125 C 95.0000 % 12.34 C
3350 09-07-2014 13:00:00 13.35833 C 94.9167 % 12.56 C
Sensor: Nr:Datum:Temp:Feuchte:Taupunkt:
Aussen-T/F 3351 09-07-2014 14:00:00 13.775 C 94.5000 % 12.91 C
3352 09-07-2014 15:00:00 13.98333 C 94.7500 % 13.16 C
3353 09-07-2014 16:00:00 14.00833 C 95.0000 % 13.22 C
3354 09-07-2014 17:00:00 13.95 C 95.0000 % 13.16 C
3355 09-07-2014 18:00:00 13.96667 C 95.0000 % 13.18 C
3356 09-07-2014 19:00:00 13.9 C 95.4167 % 13.18 C
3357 09-07-2014 20:00:00 13.975 C 96.0000 % 13.35 C
3358 09-07-2014 21:00:00 13.9 C 96.3333 % 13.33 C
3359 09-07-2014 22:00:00 13.8 C 97.0000 % 13.33 C
3360 09-07-2014 23:00:00 13.73333 C 97.0000 % 13.27 C
3361 10-07-2014 00:00:00 13.71667 C 97.0000 % 13.25 C
3362 10-07-2014 01:00:00 13.7 C 97.9167 % 13.38 C
3363 10-07-2014 02:00:00 13.70833 C 98.0000 % 13.4 C
3364 10-07-2014 03:00:00 13.8 C 98.0000 % 13.49 C
3365 10-07-2014 04:00:00 13.8 C 98.0000 % 13.49 C
3366 10-07-2014 05:00:00 13.69167 C 98.0000 % 13.38 C
3367 10-07-2014 06:00:00 13.75833 C 98.0000 % 13.45 C
3368 10-07-2014 07:00:00 14.24167 C 98.0000 % 13.93 C
3369 10-07-2014 08:00:00 14.4 C 98.0000 % 14.09 C
3370 10-07-2014 11:00:00 17.86667 C 86.5000 % 15.58 C
3371 10-07-2014 12:00:00 18.49167 C 86.1667 % 16.14 C
3372 10-07-2014 13:00:00 20.06667 C 82.0833 % 16.91 C
3373 10-07-2014 14:00:00 22.025 C 75.7500 % 17.55 C
3374 10-07-2014 15:00:00 23.625 C 72.2500 % 18.33 C
3375 10-07-2014 16:00:00 23.575 C 73.5000 % 18.56 C
Sensor: Nr:Datum:Temp:Feuchte:Taupunkt:
Aussen-T/F 3376 10-07-2014 17:00:00 23.61667 C 75.8333 % 19.1 C
3377 10-07-2014 18:00:00 21.15 C 90.4167 % 19.52 C
3378 10-07-2014 19:00:00 21.33636 C 95.6364 % 20.61 C
3379 10-07-2014 20:00:00 21.71667 C 87.6667 % 19.58 C
3380 10-07-2014 21:00:00 19.7 C 85.4167 % 17.18 C
3381 10-07-2014 22:00:00 16.68333 C 93.8333 % 15.69 C
3382 10-07-2014 23:00:00 16.3 C 95.5000 % 15.58 C
3383 11-07-2014 00:00:00 15.89167 C 95.5833 % 15.19 C
3384 11-07-2014 01:00:00 15.23333 C 96.1667 % 14.63 C
3385 11-07-2014 02:00:00 14.75 C 97.0000 % 14.28 C
3386 11-07-2014 03:00:00 14.35833 C 97.0000 % 13.89 C
3387 11-07-2014 04:00:00 14.15833 C 97.0000 % 13.69 C
3388 11-07-2014 05:00:00 14.41667 C 98.0000 % 14.1 C
3389 11-07-2014 06:00:00 15.28333 C 98.0000 % 14.97 C
3390 11-07-2014 07:00:00 15.54167 C 98.0000 % 15.23 C
3391 11-07-2014 08:00:00 16.4 C 98.0000 % 16.08 C
3392 11-07-2014 09:00:00 16.85 C 98.0000 % 16.53 C
3393 11-07-2014 10:00:00 17.28571 C 98.0000 % 16.97 C
3394 11-07-2014 11:00:00 18.6 C 92.0000 % 17.27 C
3395 11-07-2014 12:00:00 19.40833 C 89.3333 % 17.61 C
3396 11-07-2014 13:00:00 20.775 C 84.0833 % 17.99 C
3397 11-07-2014 14:00:00 21.68333 C 78.8333 % 17.85 C
3398 11-07-2014 15:00:00 22.6 C 75.0000 % 17.94 C
3399 11-07-2014 16:00:00 24.025 C 73.2500 % 18.94 C
3400 11-07-2014 18:00:00 23.9 C 71.1667 % 18.36 C
Sensor: Nr:Datum:Temp:Feuchte:Taupunkt:
Aussen-T/F 3401 11-07-2014 19:00:00 23.70833 C 70.9167 % 18.12 C
3402 11-07-2014 20:00:00 22.8 C 76.1250 % 18.37 C
3403 11-07-2014 21:00:00 21.75833 C 79.0000 % 17.95 C
3404 11-07-2014 22:00:00 20.63333 C 81.6667 % 17.39 C
3405 11-07-2014 23:00:00 19.55 C 84.7500 % 16.91 C
3406 12-07-2014 00:00:00 18.675 C 89.7500 % 16.96 C
3407 12-07-2014 01:00:00 18.09167 C 92.1667 % 16.8 C
3408 12-07-2014 02:00:00 17.73333 C 93.0833 % 16.6 C
3409 12-07-2014 03:00:00 18.175 C 88.9167 % 16.32 C
3410 12-07-2014 04:00:00 18.16667 C 89.0000 % 16.32 C
3411 12-07-2014 05:00:00 18.13333 C 88.5833 % 16.22 C
3412 12-07-2014 06:00:00 18.03333 C 89.6667 % 16.31 C
3413 12-07-2014 07:00:00 17.84167 C 91.0000 % 16.35 C
3414 12-07-2014 08:00:00 17.75 C 91.3333 % 16.32 C
3415 12-07-2014 09:00:00 17.86364 C 89.9091 % 16.18 C
3416 12-07-2014 12:00:00 18.4 C 92.0000 % 17.08 C
3417 12-07-2014 13:00:00 19.09167 C 88.5000 % 17.15 C
3418 12-07-2014 14:00:00 19.34167 C 86.2500 % 16.99 C
3419 12-07-2014 15:00:00 20.36667 C 81.6667 % 17.13 C
3420 12-07-2014 16:00:00 19.10833 C 88.2500 % 17.12 C
3421 12-07-2014 18:00:00 21.82857 C 76.7143 % 17.56 C
3422 12-07-2014 19:00:00 21.15 C 77.8333 % 17.13 C
3423 12-07-2014 20:00:00 19.93333 C 83.3333 % 17.02 C
3424 12-07-2014 21:00:00 19.275 C 84.1667 % 16.54 C
3425 12-07-2014 22:00:00 18.375 C 88.3333 % 16.41 C
Sensor: Nr:Datum:Temp:Feuchte:Taupunkt:
Aussen-T/F 3426 12-07-2014 23:00:00 17.65833 C 91.9167 % 16.33 C
3427 13-07-2014 00:00:00 17.2 C 93.5000 % 16.14 C
3428 13-07-2014 01:00:00 16.8 C 94.1667 % 15.86 C
3429 13-07-2014 02:00:00 16.775 C 95.0000 % 15.97 C
3430 13-07-2014 03:00:00 16.8 C 95.0000 % 15.99 C
3431 13-07-2014 04:00:00 16.63333 C 95.0000 % 15.83 C
3432 13-07-2014 05:00:00 16.55833 C 94.7500 % 15.71 C
3433 13-07-2014 06:00:00 16.9 C 91.6667 % 15.54 C
3434 13-07-2014 07:00:00 16.4 C 94.0000 % 15.43 C
3435 13-07-2014 09:00:00 17.525 C 92.5000 % 16.3 C
3436 13-07-2014 10:00:00 17.70833 C 91.0833 % 16.23 C
3437 13-07-2014 11:00:00 18.64167 C 88.8333 % 16.76 C
3438 13-07-2014 12:00:00 20.41667 C 80.5833 % 16.96 C
3439 13-07-2014 13:00:00 21.10833 C 77.1667 % 16.95 C
3440 13-07-2014 14:00:00 22.51667 C 71.1667 % 17.03 C
3441 13-07-2014 15:00:00 22.43333 C 69.6667 % 16.62 C
3442 13-07-2014 16:00:00 21.25833 C 80.5000 % 17.77 C
3443 13-07-2014 17:00:00 22 C 77.7778 % 17.94 C
3444 13-07-2014 18:00:00 22.50833 C 72.5000 % 17.32 C
3445 13-07-2014 19:00:00 20.63333 C 79.5000 % 16.96 C
3446 13-07-2014 20:00:00 19.71667 C 82.7500 % 16.7 C
3447 13-07-2014 21:00:00 19.16667 C 85.1111 % 16.6 C
3448 13-07-2014 22:00:00 18.57273 C 86.5455 % 16.28 C
3449 13-07-2014 23:00:00 18.675 C 86.6667 % 16.41 C
3450 14-07-2014 00:00:00 18.30833 C 88.0000 % 16.29 C
Sensor: Nr:Datum:Temp:Feuchte:Taupunkt:
Aussen-T/F 3451 14-07-2014 01:00:00 17.4 C 92.0000 % 16.09 C
3452 14-07-2014 02:00:00 17.625 C 91.7500 % 16.27 C
3453 14-07-2014 03:00:00 17.73333 C 91.8333 % 16.39 C
3454 14-07-2014 04:00:00 17.67143 C 90.0000 % 16.01 C
3455 14-07-2014 06:00:00 15 C 91.5000 % 13.63 C
3456 14-07-2014 07:00:00 15.54167 C 92.1667 % 14.28 C
3457 14-07-2014 08:00:00 17.5 C 82.6667 % 14.52 C
3458 14-07-2014 09:00:00 18.41667 C 77.0833 % 14.33 C
3459 14-07-2014 10:00:00 20.11667 C 72.2500 % 14.97 C
3460 14-07-2014 11:00:00 20.73333 C 71.5000 % 15.4 C
3461 14-07-2014 12:00:00 22.125 C 66.2500 % 15.53 C
3462 14-07-2014 13:00:00 22.7 C 65.1667 % 15.82 C
3463 14-07-2014 14:00:00 22.18333 C 70.4167 % 16.55 C
3464 14-07-2014 15:00:00 21.90833 C 72.5000 % 16.74 C
3465 14-07-2014 16:00:00 20.76667 C 76.7500 % 16.54 C
3466 14-07-2014 17:00:00 21.45833 C 73.0000 % 16.42 C
3467 14-07-2014 18:00:00 21.66667 C 72.5000 % 16.51 C
3468 14-07-2014 19:00:00 22.35833 C 69.0833 % 16.41 C
3469 14-07-2014 20:00:00 19.80833 C 83.4167 % 16.92 C
3470 14-07-2014 21:00:00 18.175 C 88.8333 % 16.3 C
3471 14-07-2014 22:00:00 17.3 C 91.0000 % 15.82 C
3472 14-07-2014 23:00:00 16.7625 C 92.0000 % 15.46 C
3473 15-07-2014 06:00:00 13.77778 C 96.4444 % 13.22 C
3474 15-07-2014 07:00:00 14.43333 C 97.0000 % 13.96 C
3475 15-07-2014 08:00:00 16.28333 C 92.7500 % 15.11 C
Sensor: Nr:Datum:Temp:Feuchte:Taupunkt:
Aussen-T/F 3476 15-07-2014 09:00:00 18.46667 C 85.5833 % 16.01 C
3477 15-07-2014 10:00:00 20.975 C 73.0833 % 15.97 C
3478 15-07-2014 11:00:00 22.04167 C 72.1667 % 16.8 C
3479 15-07-2014 12:00:00 23.425 C 58.9167 % 14.94 C
3480 15-07-2014 13:00:00 23.825 C 58.7500 % 15.27 C
3481 15-07-2014 14:00:00 24.50833 C 53.5833 % 14.47 C
3482 15-07-2014 15:00:00 25.09167 C 51.6667 % 14.45 C
3483 15-07-2014 16:00:00 25.275 C 51.7500 % 14.64 C
3484 15-07-2014 17:00:00 25.24167 C 53.1667 % 15.03 C
3485 15-07-2014 18:00:00 24.625 C 55.6667 % 15.17 C
3486 15-07-2014 19:00:00 23.4 C 62.0833 % 15.73 C
3487 15-07-2014 20:00:00 22.50833 C 65.6667 % 15.76 C
3488 15-07-2014 21:00:00 20.7 C 77.0000 % 16.52 C
3489 15-07-2014 22:00:00 18.71667 C 85.6667 % 16.27 C
3490 15-07-2014 23:00:00 18.60833 C 87.9167 % 16.57 C
3491 16-07-2014 00:00:00 18.30833 C 89.4167 % 16.54 C
3492 16-07-2014 01:00:00 18.125 C 90.2500 % 16.5 C
3493 16-07-2014 02:00:00 17.825 C 90.9167 % 16.32 C
3494 16-07-2014 03:00:00 17.625 C 91.2500 % 16.18 C
3495 16-07-2014 04:00:00 17.5 C 91.5833 % 16.11 C
3496 16-07-2014 05:00:00 17.41667 C 92.0000 % 16.1 C
3497 16-07-2014 06:00:00 17.4 C 92.7500 % 16.21 C
3498 16-07-2014 07:00:00 17.6 C 93.0000 % 16.45 C
3499 16-07-2014 09:00:00 20.66 C 95.8000 % 19.97 C
3500 16-07-2014 10:00:00 21.8 C 77.2500 % 17.64 C
Sensor: Nr:Datum:Temp:Feuchte:Taupunkt:
Aussen-T/F 3501 16-07-2014 11:00:00 24.9 C 74.3333 % 20.02 C
3502 16-07-2014 12:00:00 24.85 C 63.3333 % 17.41 C
3503 16-07-2014 13:00:00 25.9 C 55.8333 % 16.4 C
3504 16-07-2014 14:00:00 26.475 C 57.0000 % 17.26 C
3505 16-07-2014 15:00:00 27.4 C 52.0000 % 16.67 C
3506 16-07-2014 16:00:00 29.04445 C 45.2222 % 15.98 C
3507 16-07-2014 17:00:00 29.85 C 42.5000 % 15.74 C
3508 16-07-2014 18:00:00 29.38333 C 41.2500 % 14.85 C
3509 16-07-2014 19:00:00 27.20833 C 53.2500 % 16.87 C
3510 16-07-2014 20:00:00 23.025 C 71.7500 % 17.65 C
3511 16-07-2014 21:00:00 21.73333 C 76.0000 % 17.32 C
3512 16-07-2014 22:00:00 19.44444 C 81.2222 % 16.14 C
3513 16-07-2014 23:00:00 18.9 C 83.0000 % 15.95 C
3514 17-07-2014 07:00:00 14.84545 C 95.0000 % 14.05 C
3515 17-07-2014 08:00:00 17.05833 C 90.2500 % 15.45 C
3516 17-07-2014 09:00:00 18.71667 C 86.7500 % 16.46 C
3517 17-07-2014 10:00:00 20.45 C 82.5000 % 17.37 C
3518 17-07-2014 16:00:00 31.44444 C 44.7778 % 17.99 C
3519 17-07-2014 17:00:00 31.85833 C 40.2500 % 16.68 C
3520 17-07-2014 18:00:00 31.28333 C 44.5000 % 17.75 C
3521 17-07-2014 19:00:00 27.70833 C 62.6667 % 19.93 C
3522 17-07-2014 20:00:00 24.48333 C 71.3333 % 18.95 C
3523 17-07-2014 21:00:00 22.35 C 76.5833 % 18.03 C
3524 17-07-2014 22:00:00 21.31667 C 78.7500 % 17.48 C
3525 17-07-2014 23:00:00 20.8 C 80.7500 % 17.37 C
Sensor: Nr:Datum:Temp:Feuchte:Taupunkt:
Aussen-T/F 3526 18-07-2014 02:00:00 17.3 C 89.2500 % 15.51 C
3527 18-07-2014 03:00:00 16.875 C 90.5000 % 15.31 C
3528 18-07-2014 04:00:00 16.6 C 91.0000 % 15.13 C
3529 18-07-2014 06:00:00 15.975 C 95.0000 % 15.17 C
3530 18-07-2014 07:00:00 16.35833 C 94.3333 % 15.45 C
3531 18-07-2014 08:00:00 18.46667 C 90.0833 % 16.81 C
3532 18-07-2014 09:00:00 20.21667 C 85.9167 % 17.78 C
3533 18-07-2014 10:00:00 21.02 C 85.6000 % 18.51 C
3534 18-07-2014 13:00:00 30.61667 C 42.6667 % 16.48 C
3535 18-07-2014 14:00:00 32.06667 C 39.0833 % 16.4 C
3536 18-07-2014 15:00:00 32.3 C 38.0000 % 16.17 C
3537 18-07-2014 16:00:00 33.53636 C 36.0909 % 16.45 C
3538 18-07-2014 17:00:00 33.875 C 34.0000 % 15.81 C
3539 18-07-2014 18:00:00 31.7 C 45.8333 % 18.6 C
3540 18-07-2014 19:00:00 28.38333 C 58.2500 % 19.39 C
3541 18-07-2014 20:00:00 26.65 C 61.0000 % 18.51 C
3542 18-07-2014 22:00:00 22.58333 C 69.3333 % 16.68 C
3543 18-07-2014 23:00:00 22.12222 C 66.5556 % 15.6 C
3544 19-07-2014 07:00:00 16.9 C 90.0000 % 15.25 C
3545 19-07-2014 08:00:00 18.89167 C 84.7500 % 16.27 C
3546 19-07-2014 09:00:00 20.88 C 82.4000 % 17.77 C
3547 19-07-2014 10:00:00 22.875 C 78.5000 % 18.94 C
3548 19-07-2014 11:00:00 26.73333 C 64.2500 % 19.42 C
3549 19-07-2014 12:00:00 30.74167 C 44.5833 % 17.29 C
3550 19-07-2014 13:00:00 32.54167 C 36.4167 % 15.71 C
Sensor: Nr:Datum:Temp:Feuchte:Taupunkt:
Aussen-T/F 3551 19-07-2014 14:00:00 33.23333 C 35.4167 % 15.88 C
3552 19-07-2014 15:00:00 34.48333 C 35.2500 % 16.9 C
3553 19-07-2014 16:00:00 34.24167 C 36.5833 % 17.28 C
3554 19-07-2014 17:00:00 31.00833 C 53.9167 % 20.58 C
3555 19-07-2014 18:00:00 29.91667 C 59.1667 % 21.07 C
3556 19-07-2014 19:00:00 28.51667 C 60.2500 % 20.06 C
3557 19-07-2014 20:00:00 25.775 C 66.3333 % 19.02 C
3558 19-07-2014 21:00:00 24.66667 C 67.5833 % 18.27 C
3559 19-07-2014 22:00:00 23.85 C 68.5000 % 17.7 C
3560 19-07-2014 23:00:00 22.85 C 72.0000 % 17.54 C
3561 20-07-2014 00:00:00 21.78333 C 75.7500 % 17.31 C
3562 20-07-2014 01:00:00 21.15 C 77.4167 % 17.04 C
3563 20-07-2014 02:00:00 21 C 78.2500 % 17.07 C
3564 20-07-2014 03:00:00 20.29167 C 80.7500 % 16.88 C
3565 20-07-2014 04:00:00 20.2 C 81.1667 % 16.87 C
3566 20-07-2014 05:00:00 20.41667 C 82.1667 % 17.27 C
3567 20-07-2014 06:00:00 19.19167 C 91.0000 % 17.69 C
3568 20-07-2014 07:00:00 19.04167 C 93.9167 % 18.04 C
3569 20-07-2014 08:00:00 19.80833 C 94.1667 % 18.84 C
3570 20-07-2014 09:00:00 20.96667 C 93.5000 % 19.88 C
3571 20-07-2014 10:00:00 22.35 C 89.5000 % 20.54 C
3572 20-07-2014 11:00:00 23.54167 C 85.6667 % 21 C
3573 20-07-2014 12:00:00 25.7 C 72.7500 % 20.44 C
3574 20-07-2014 13:00:00 27.93333 C 66.5833 % 21.13 C
3575 20-07-2014 14:00:00 28.7 C 57.4167 % 19.45 C
Sensor: Nr:Datum:Temp:Feuchte:Taupunkt:
Aussen-T/F 3576 20-07-2014 15:00:00 26.15833 C 71.0833 % 20.5 C
3577 20-07-2014 16:00:00 24.54167 C 76.6667 % 20.17 C
3578 20-07-2014 17:00:00 24.30833 C 80.9167 % 20.82 C
3579 20-07-2014 18:00:00 25.15833 C 77.6667 % 20.98 C
3580 20-07-2014 19:00:00 23.89167 C 79.3333 % 20.09 C
3581 20-07-2014 20:00:00 24.05 C 71.4167 % 18.56 C
3582 20-07-2014 21:00:00 22.76667 C 79.3333 % 19 C
3583 20-07-2014 22:00:00 20.91667 C 89.4167 % 19.11 C
3584 20-07-2014 23:00:00 20.625 C 90.5833 % 19.03 C
3585 21-07-2014 00:00:00 20.58333 C 89.8333 % 18.86 C
3586 21-07-2014 01:00:00 20.40833 C 88.9167 % 18.52 C
3587 21-07-2014 02:00:00 20.3 C 89.6667 % 18.55 C
3588 21-07-2014 03:00:00 20.11667 C 90.1667 % 18.45 C
3589 21-07-2014 04:00:00 19.78333 C 91.2500 % 18.31 C
3590 21-07-2014 05:00:00 19.56667 C 92.0000 % 18.23 C
3591 21-07-2014 06:00:00 19.59167 C 91.9167 % 18.24 C
3592 21-07-2014 07:00:00 19.73333 C 91.6667 % 18.34 C
3593 21-07-2014 08:00:00 19.13333 C 95.5000 % 18.4 C
3594 21-07-2014 09:00:00 19.23333 C 96.7500 % 18.7 C
3595 21-07-2014 10:00:00 19.73333 C 96.6667 % 19.19 C
3596 21-07-2014 11:00:00 19.975 C 95.7500 % 19.28 C
3597 21-07-2014 12:00:00 19.64167 C 95.5833 % 18.92 C
3598 21-07-2014 13:00:00 20.34167 C 95.7500 % 19.64 C
3599 21-07-2014 14:00:00 21.04167 C 91.0833 % 19.53 C
3600 21-07-2014 15:00:00 21.84167 C 88.0000 % 19.76 C
Sensor: Nr:Datum:Temp:Feuchte:Taupunkt:
Aussen-T/F 3601 21-07-2014 16:00:00 22.05833 C 84.5833 % 19.34 C
3602 21-07-2014 17:00:00 22.35 C 82.6667 % 19.26 C
3603 21-07-2014 18:00:00 21.14167 C 84.0833 % 18.35 C
3604 21-07-2014 19:00:00 20.83333 C 86.0000 % 18.4 C
3605 21-07-2014 20:00:00 20.61667 C 87.9167 % 18.54 C
3606 21-07-2014 21:00:00 20.11667 C 91.0833 % 18.62 C
3607 21-07-2014 22:00:00 19.6 C 93.7500 % 18.56 C
3608 21-07-2014 23:00:00 19.45 C 95.0000 % 18.63 C
3609 22-07-2014 00:00:00 19.63333 C 95.2500 % 18.85 C
3610 22-07-2014 01:00:00 19.825 C 94.8333 % 18.97 C
3611 22-07-2014 02:00:00 20.00833 C 94.0000 % 19.01 C
3612 22-07-2014 03:00:00 19.94167 C 94.0000 % 18.95 C
3613 22-07-2014 04:00:00 19.87 C 94.0000 % 18.88 C
3614 22-07-2014 08:00:00 20.38 C 95.6000 % 19.65 C
3615 22-07-2014 09:00:00 21.20833 C 92.7500 % 19.99 C
3616 22-07-2014 10:00:00 22.11667 C 89.3333 % 20.28 C
3617 22-07-2014 11:00:00 22.95 C 85.6667 % 20.42 C
3618 22-07-2014 12:00:00 24.80833 C 80.7500 % 21.27 C
3619 22-07-2014 13:00:00 26.375 C 75.1667 % 21.62 C
3620 22-07-2014 14:00:00 25.68333 C 76.0833 % 21.15 C
3621 22-07-2014 15:00:00 27.69167 C 70.0833 % 21.74 C
3622 22-07-2014 16:00:00 29.13333 C 62.4167 % 21.21 C
3623 22-07-2014 17:00:00 28.90833 C 62.2500 % 20.96 C
3624 22-07-2014 18:00:00 28.95833 C 61.6667 % 20.85 C
3625 22-07-2014 19:00:00 27.325 C 68.0000 % 20.89 C
Sensor: Nr:Datum:Temp:Feuchte:Taupunkt:
Aussen-T/F 3626 22-07-2014 20:00:00 25.06667 C 81.2500 % 21.62 C
3627 22-07-2014 21:00:00 22.55833 C 85.3333 % 19.97 C
3628 22-07-2014 22:00:00 21.66667 C 86.5000 % 19.31 C
3629 22-07-2014 23:00:00 20.725 C 88.0000 % 18.66 C
3630 23-07-2014 00:00:00 20.125 C 89.6667 % 18.37 C
3631 23-07-2014 01:00:00 19.66667 C 90.5833 % 18.08 C
3632 23-07-2014 02:00:00 18.96667 C 91.9167 % 17.62 C
3633 23-07-2014 03:00:00 18.3 C 93.9167 % 17.3 C
3634 23-07-2014 04:00:00 17.94167 C 94.9167 % 17.11 C
3635 23-07-2014 05:00:00 17.56667 C 95.3333 % 16.81 C
3636 23-07-2014 06:00:00 17.35 C 96.0833 % 16.72 C
3637 23-07-2014 07:00:00 17.875 C 96.5000 % 17.31 C
3638 23-07-2014 08:00:00 19.68333 C 93.0833 % 18.53 C
3639 23-07-2014 09:00:00 21.14167 C 87.8333 % 19.04 C
3640 23-07-2014 10:00:00 23 C 80.5556 % 19.47 C
3641 23-07-2014 11:00:00 25.1 C 74.0000 % 20.14 C
3642 23-07-2014 12:00:00 26.30833 C 67.0000 % 19.69 C
3643 23-07-2014 13:00:00 28.81667 C 49.6667 % 17.25 C
3644 23-07-2014 14:00:00 29.53333 C 44.5833 % 16.2 C
3645 23-07-2014 15:00:00 29.15 C 48.7500 % 17.26 C
3646 23-07-2014 16:00:00 29.275 C 47.3333 % 16.91 C
3647 23-07-2014 17:00:00 30.775 C 41.4167 % 16.16 C
3648 23-07-2014 18:00:00 30.01667 C 41.5833 % 15.54 C
3649 23-07-2014 19:00:00 28.29167 C 48.6667 % 16.45 C
3650 23-07-2014 20:00:00 24.9 C 68.9167 % 18.8 C
Sensor: Nr:Datum:Temp:Feuchte:Taupunkt:
Aussen-T/F 3651 23-07-2014 21:00:00 22.125 C 74.5000 % 17.38 C
3652 23-07-2014 22:00:00 20.70833 C 77.7500 % 16.68 C
3653 23-07-2014 23:00:00 20 C 80.5000 % 16.54 C
3654 24-07-2014 00:00:00 19.34167 C 83.0833 % 16.4 C
3655 24-07-2014 01:00:00 18.775 C 84.8333 % 16.17 C
3656 24-07-2014 02:00:00 18.13333 C 85.9167 % 15.74 C
3657 24-07-2014 03:00:00 17.375 C 87.7500 % 15.32 C
3658 24-07-2014 04:00:00 16.71667 C 89.5833 % 15 C
3659 24-07-2014 05:00:00 16.075 C 91.3333 % 14.66 C
3660 24-07-2014 06:00:00 16.1 C 92.0000 % 14.8 C
3661 24-07-2014 07:00:00 16.85455 C 92.0000 % 15.55 C
3662 24-07-2014 08:00:00 17.3 C 90.0000 % 15.64 C
3663 24-07-2014 10:00:00 22.84286 C 66.5714 % 16.29 C
3664 24-07-2014 11:00:00 24.90833 C 56.6667 % 15.71 C
3665 24-07-2014 12:00:00 26.14167 C 52.1667 % 15.56 C
3666 24-07-2014 13:00:00 27.40833 C 48.0000 % 15.43 C
3667 24-07-2014 14:00:00 28.15833 C 45.0000 % 15.1 C
3668 24-07-2014 15:00:00 25.025 C 52.6667 % 14.68 C
3669 24-07-2014 16:00:00 21.59167 C 67.5000 % 15.32 C
3670 24-07-2014 17:00:00 21.36667 C 75.6667 % 16.89 C
3671 24-07-2014 18:00:00 21.3 C 75.9167 % 16.88 C
3672 24-07-2014 19:00:00 21.99167 C 64.5833 % 15.01 C
3673 24-07-2014 20:00:00 21.34167 C 63.5833 % 14.16 C
3674 24-07-2014 21:00:00 18.80833 C 74.9167 % 14.27 C
3675 24-07-2014 22:00:00 16.61667 C 84.1667 % 13.93 C
Sensor: Nr:Datum:Temp:Feuchte:Taupunkt:
Aussen-T/F 3676 24-07-2014 23:00:00 16.45833 C 86.7500 % 14.24 C
3677 25-07-2014 00:00:00 16.3625 C 92.3750 % 15.12 C
3678 25-07-2014 08:00:00 16.8 C 93.4000 % 15.73 C
3679 25-07-2014 09:00:00 17.28333 C 93.1667 % 16.17 C
3680 25-07-2014 10:00:00 19.53333 C 84.2500 % 16.8 C
3681 25-07-2014 11:00:00 22.43333 C 72.9167 % 17.34 C
3682 25-07-2014 12:00:00 23.625 C 65.6667 % 16.82 C
3683 25-07-2014 13:00:00 25.05833 C 60.2500 % 16.82 C
3684 25-07-2014 14:00:00 26.25833 C 53.5000 % 16.07 C
3685 25-07-2014 15:00:00 23.7 C 69.0000 % 17.67 C
3686 25-07-2014 16:00:00 25.11667 C 58.8333 % 16.5 C
3687 25-07-2014 17:00:00 23.16667 C 69.1111 % 17.19 C
3688 25-07-2014 18:00:00 25.45 C 79.5000 % 21.64 C
3689 25-07-2014 19:00:00 24.37778 C 59.0000 % 15.85 C
3690 25-07-2014 20:00:00 22.725 C 66.0000 % 16.05 C
3691 25-07-2014 21:00:00 20.43333 C 78.5833 % 16.59 C
3692 25-07-2014 22:00:00 18.225 C 85.8333 % 15.81 C
3693 25-07-2014 23:00:00 17.36667 C 88.7500 % 15.49 C
3694 26-07-2014 00:00:00 16.55 C 91.5000 % 15.16 C
3695 26-07-2014 01:00:00 16.26667 C 93.3333 % 15.19 C
3696 26-07-2014 02:00:00 16.3 C 94.0000 % 15.33 C
3697 26-07-2014 08:00:00 16.86667 C 93.7778 % 15.86 C
3698 26-07-2014 09:00:00 17.43333 C 92.3333 % 16.18 C
3699 26-07-2014 10:00:00 18.1 C 90.3333 % 16.49 C
3700 26-07-2014 11:00:00 19.3625 C 87.2500 % 17.19 C
Sensor: Nr:Datum:Temp:Feuchte:Taupunkt:
Aussen-T/F 3701 26-07-2014 14:00:00 25.67 C 64.9000 % 18.57 C
3702 26-07-2014 15:00:00 26.58333 C 56.0000 % 17.09 C
3703 26-07-2014 16:00:00 27.525 C 50.9167 % 16.46 C
3704 26-07-2014 17:00:00 27.50833 C 51.4167 % 16.59 C
3705 26-07-2014 18:00:00 27 C 54.6667 % 17.09 C
3706 26-07-2014 19:00:00 26.175 C 55.9167 % 16.68 C
3707 26-07-2014 20:00:00 24.96667 C 64.3333 % 17.77 C
3708 26-07-2014 21:00:00 20.36667 C 82.3333 % 17.26 C
3709 26-07-2014 22:00:00 20.01667 C 83.5000 % 17.14 C
3710 26-07-2014 23:00:00 19.58333 C 84.0000 % 16.81 C
3711 27-07-2014 01:00:00 17.95 C 88.0000 % 15.93 C
3712 27-07-2014 03:00:00 16.74286 C 92.4286 % 15.51 C
3713 27-07-2014 04:00:00 16.33333 C 93.5000 % 15.28 C
3714 27-07-2014 05:00:00 15.85 C 94.4167 % 14.95 C
3715 27-07-2014 06:00:00 15.58333 C 95.1667 % 14.81 C
3716 27-07-2014 07:00:00 16.03333 C 95.4167 % 15.3 C
3717 27-07-2014 08:00:00 17.825 C 90.5000 % 16.25 C
3718 27-07-2014 09:00:00 19.02857 C 87.5714 % 16.92 C
3719 27-07-2014 10:00:00 21.1 C 87.0000 % 18.85 C
3720 27-07-2014 11:00:00 23.56 C 74.8000 % 18.83 C
3721 27-07-2014 12:00:00 24.23333 C 71.4167 % 18.73 C
3722 27-07-2014 13:00:00 25 C 66.0000 % 18.2 C
3723 27-07-2014 14:00:00 26.5375 C 62.2500 % 18.72 C
3724 27-07-2014 15:00:00 27 C 59.0000 % 18.3 C
3725 27-07-2014 18:00:00 27.14 C 57.4000 % 17.99 C
Sensor: Nr:Datum:Temp:Feuchte:Taupunkt:
Aussen-T/F 3726 28-07-2014 07:00:00 17.05556 C 96.0000 % 16.41 C
3727 28-07-2014 08:00:00 17.93333 C 95.1667 % 17.15 C
3728 28-07-2014 09:00:00 19.4 C 91.3333 % 17.95 C
3729 28-07-2014 10:00:00 20.37143 C 90.1429 % 18.7 C
3730 28-07-2014 11:00:00 26.25714 C 63.7143 % 18.83 C
3731 28-07-2014 12:00:00 26.7 C 58.0000 % 17.75 C
3732 28-07-2014 13:00:00 28.17273 C 63.9091 % 20.69 C
3733 28-07-2014 14:00:00 26.35 C 66.5833 % 19.63 C
3734 28-07-2014 15:00:00 24.13333 C 78.0000 % 20.05 C
3735 28-07-2014 16:00:00 24.4 C 74.0000 % 19.46 C
3736 28-07-2014 17:00:00 24.3 C 70.2000 % 18.52 C
3737 28-07-2014 18:00:00 23.81667 C 73.1667 % 18.72 C
3738 28-07-2014 19:00:00 23 C 75.8333 % 18.51 C
3739 28-07-2014 20:00:00 22.41667 C 75.7500 % 17.92 C
3740 28-07-2014 21:00:00 21.45833 C 76.5000 % 17.15 C
3741 28-07-2014 22:00:00 20.75 C 80.2500 % 17.22 C
3742 28-07-2014 23:00:00 19.94167 C 85.2500 % 17.39 C
3743 29-07-2014 00:00:00 19.15833 C 93.0000 % 18 C
3744 29-07-2014 01:00:00 18.48333 C 95.5833 % 17.76 C
3745 29-07-2014 02:00:00 18.68333 C 96.6667 % 18.14 C
3746 29-07-2014 03:00:00 18.675 C 97.0000 % 18.19 C
3747 29-07-2014 04:00:00 18.725 C 97.0000 % 18.24 C
3748 29-07-2014 05:00:00 18.28333 C 97.0000 % 17.8 C
3749 29-07-2014 06:00:00 18.33333 C 97.0000 % 17.85 C
3750 29-07-2014 07:00:00 18.56667 C 98.0000 % 18.24 C
Sensor: Nr:Datum:Temp:Feuchte:Taupunkt:
Aussen-T/F 3751 29-07-2014 08:00:00 18.70833 C 97.2500 % 18.26 C
3752 29-07-2014 09:00:00 19.05833 C 97.1667 % 18.6 C
3753 29-07-2014 10:00:00 19.5 C 97.2500 % 19.05 C
3754 29-07-2014 11:00:00 19.83333 C 97.2500 % 19.38 C
3755 29-07-2014 12:00:00 20.9 C 94.8333 % 20.04 C
3756 29-07-2014 13:00:00 21.31667 C 94.8333 % 20.45 C
3757 29-07-2014 14:00:00 20.95 C 94.3333 % 20 C
3758 29-07-2014 15:00:00 21.5 C 92.8333 % 20.29 C
3759 29-07-2014 16:00:00 20.625 C 96.1667 % 19.99 C
3760 29-07-2014 17:00:00 22.20833 C 95.0000 % 21.37 C
3761 29-07-2014 18:00:00 23.01667 C 90.6667 % 21.41 C
3762 29-07-2014 19:00:00 21.59167 C 94.5000 % 20.67 C
3763 29-07-2014 20:00:00 20.6 C 96.1667 % 19.97 C
3764 29-07-2014 21:00:00 20.06667 C 96.1667 % 19.44 C